[[[{"header":{"parameterUnit":"kt","parameterCategory":2,"dx":1,"dy":1,"la1":29.285339999999998,"la2":30.599998999999997,"lo1":-89.70041500000002,"lo2":-87.6738589999976,"nx":112,"ny":82,"refTime":"2022-10-27T06:00:00:Z","depth":0,"parameterNumber":1,"parameterNumberName":"U-component_of_WINDS"},"data":[4.7456,4.8895,0.0,4.9069,4.7668,0.0,4.3778,0.0,4.2075,0.0,0.0,0.0,0.0,0.0,4.5272,4.7837,4.7764,0.0,0.0,4.3085,0.0,0.0,0.0,0.0,0.0,0.0,0.0,0.0,0.0,0.0,0.0,0.0,6.2786,6.695,6.7851,6.7881,6.7008,6.7415,6.695,6.567,6.7444,6.7386,6.567,6.6601,6.7008,6.6979,6.6136,6.6048,6.6485,6.6485,6.6485,6.6572,6.7415,6.695,6.599,6.7677,6.7473,6.6514,6.7851,6.8288,6.8375,6.8869,6.9015,6.8928,6.8462,6.7473,6.6106,6.4274,6.3227,6.2326,6.093,6.0818,6.1195,6.1195,6.1195,6.1195,6.1195,6.1195,6.1428,6.2355,6.2529,6.2529,6.2529,6.2529,6.2238,6.1311,6.1195,6.1195,6.1195,6.1195,6.1195,6.1195,6.1195,6.1195,6.1195,6.1195,6.1195,6.1195,6.1195,6.1399,6.1977,6.1428,6.1602,6.2616,6.3838,6.4245,6.3896,6.5525,6.567,6.442,6.2904,6.2299,0.0,0.0,4.5739,4.42,0.0,0.0,0.0,0.0,0.0,0.0,0.0,0.0,0.0,4.2445,4.3492,4.6044,4.6356,0.0,0.0,0.0,0.0,0.0,0.0,0.0,0.0,0.0,0.0,0.0,0.0,0.0,0.0,6.1094,6.3987,6.7619,6.8113,6.8142,6.7706,6.8579,6.8346,6.7037,6.8375,6.8317,6.7037,6.7473,6.7677,6.7648,6.6804,6.6426,6.6426,6.6426,6.6426,6.6514,6.7357,6.6892,6.6019,6.823,6.8462,6.7822,6.8724,6.9015,6.9015,6.9015,6.9015,6.8928,6.8491,6.7124,6.5554,6.471,6.3256,6.186,6.1311,6.1195,6.1195,6.1195,6.1195,6.1195,6.1195,6.1195,6.1428,6.2384,6.2558,6.2558,6.2558,6.2558,6.2413,6.2006,6.1948,6.1948,6.1948,6.1948,6.1773,6.1224,6.1195,6.1195,6.1195,6.1573,6.2122,6.2558,6.218,6.1948,6.1948,6.1428,6.1399,6.1805,6.3605,6.4274,6.3838,6.5554,6.5699,6.4449,6.314,6.2791,0.0,0.0,0.0,3.8313,0.0,0.0,0.0,0.0,3.8992,0.0,0.0,0.0,0.0,0.0,4.1161,4.3671,4.411,0.0,0.0,0.0,0.0,0.0,0.0,0.0,0.0,0.0,0.0,0.0,0.0,0.0,6.2691,6.1958,6.3645,6.8811,6.7735,6.7677,6.8957,6.8986,6.8375,6.7095,6.8404,6.8346,6.7124,6.8404,6.9015,6.9015,6.9015,6.9015,6.9015,6.9015,6.9015,6.9015,6.9015,6.823,6.7241,6.852,6.9015,6.9015,6.9015,6.9015,6.9015,6.9015,6.9015,6.8753,6.7415,6.6979,6.6426,6.3925,6.3198,6.2907,6.1573,6.1282,6.1311,6.1253,6.1253,6.1224,6.1195,6.1195,6.1195,6.1195,6.1195,6.1195,6.1195,6.1195,6.1744,6.3024,6.3198,6.3227,6.3256,6.3227,6.2733,6.137,6.1195,6.1195,6.1195,6.2471,6.3722,6.4972,6.3896,6.3198,6.3198,6.1977,6.1889,6.3111,6.3169,6.3809,6.5001,6.503,6.4391,6.3111,6.1805,6.2006,3.3255,0.0,0.0,0.0,0.0,0.0,0.0,0.0,0.0,0.0,0.0,0.0,0.0,0.0,0.0,4.135,0.0,4.4885,0.0,0.0,0.0,0.0,0.0,0.0,0.0,0.0,0.0,0.0,0.0,6.0293,6.2861,6.5376,6.7044,6.7561,6.8142,6.8171,6.7561,6.852,6.884,6.8491,6.884,6.8811,6.8491,6.884,6.9015,6.9015,6.9015,6.9015,6.9015,6.9015,6.9015,6.9015,6.9015,6.8782,6.852,6.8869,6.9015,6.9015,6.9015,6.9015,6.9015,6.9015,6.9015,6.8753,6.7415,6.6368,6.5292,6.3663,6.3198,6.314,6.2762,6.3373,6.3838,6.2907,6.2675,6.2413,6.1511,6.1195,6.1195,6.1195,6.1195,6.1195,6.1195,6.1195,6.1744,6.3024,6.3198,6.3547,6.4449,6.378,6.3053,6.2733,6.186,6.1195,6.1195,6.2471,6.3344,6.3693,6.3402,6.3198,6.3198,6.1977,6.134,6.1689,6.2733,6.2907,6.2355,6.3285,6.3053,6.1718,6.2413,6.2849,0.0,0.0,0.0,0.0,0.0,0.0,3.9752,0.0,4.2175,0.0,0.0,0.0,0.0,0.0,0.0,0.0,4.3885,0.0,0.0,0.0,0.0,0.0,0.0,0.0,0.0,0.0,0.0,0.0,6.1458,6.2059,6.3832,6.6147,6.727,6.7008,6.7764,6.8084,6.7851,6.8637,6.9015,6.9015,6.9015,6.9015,6.9015,6.9015,6.9015,6.9015,6.9015,6.9015,6.9015,6.9015,6.9015,6.9015,6.9015,6.9015,6.9015,6.9015,6.9015,6.9015,6.9015,6.9015,6.9015,6.9015,6.9015,6.8753,6.7415,6.6485,6.5641,6.4361,6.4012,6.4012,6.4012,6.4565,6.4769,6.3518,6.3198,6.2849,6.1457,6.1195,6.1195,6.1195,6.1195,6.1195,6.1195,6.1195,6.1805,6.3722,6.4012,6.4449,6.5757,6.5263,6.4391,6.3314,6.2529,6.2093,6.2093,6.3256,6.4216,6.4769,6.5321,6.5147,6.4042,6.2267,6.1195,6.1195,6.1921,6.2035,6.1195,6.2587,6.2558,6.1195,6.2064,6.2384,0.0,0.0,0.0,0.0,3.6482,0.0,0.0,0.0,0.0,4.2805,0.0,0.0,0.0,0.0,0.0,0.0,0.0,0.0,0.0,0.0,0.0,0.0,0.0,0.0,0.0,5.674,6.0764,6.4623,6.2936,6.2791,6.5205,6.5321,6.5903,6.7212,6.7241,6.7822,6.8986,6.9015,6.9015,6.9015,6.9015,6.9015,6.9015,6.9015,6.9015,6.9015,6.9015,6.9015,6.9015,6.9015,6.9015,6.9015,6.9015,6.9015,6.9015,6.9015,6.9015,6.9015,6.9015,6.9015,6.9015,6.9015,6.9015,6.8782,6.759,6.7124,6.6717,6.5292,6.5118,6.5321,6.5321,6.5438,6.5234,6.3954,6.3518,6.3053,6.1689,6.1282,6.1195,6.1195,6.1195,6.1195,6.1195,6.1195,6.2122,6.4536,6.4885,6.5408,6.6834,6.6892,6.599,6.3867,6.3518,6.3402,6.3402,6.4594,6.5816,6.695,6.8288,6.791,6.5438,6.314,6.1689,6.1511,6.1253,6.1195,6.1195,6.2442,6.2384,6.1195,6.134,6.1311,0.0,0.0,0.0,0.0,0.0,3.8949,0.0,0.0,0.0,0.0,0.0,0.0,0.0,0.0,0.0,0.0,0.0,0.0,0.0,0.0,0.0,0.0,0.0,0.0,5.2113,5.6136,6.0284,6.3315,6.4071,6.503,6.6572,6.6659,6.727,6.8608,6.8637,6.8753,6.9015,6.9015,6.9015,6.9015,6.9015,6.9015,6.9015,6.9015,6.9015,6.9015,6.9015,6.9015,6.9015,6.9015,6.9015,6.9015,6.9015,6.9015,6.9015,6.9015,6.9015,6.9015,6.9015,6.9015,6.9015,6.9015,6.9015,6.8986,6.8724,6.7881,6.6543,6.4216,6.5059,6.6659,6.6659,6.7444,6.7939,6.6601,6.5496,6.4391,6.3111,6.1921,6.1195,6.1195,6.1195,6.1195,6.1195,6.1195,6.1689,6.3344,6.3576,6.4391,6.6717,6.6106,6.567,6.6223,6.535,6.474,6.474,6.5903,6.6746,6.7008,6.8288,6.8288,6.6717,6.6165,6.4943,6.2878,6.1831,6.1195,6.1195,6.1428,6.1428,6.1195,6.2355,6.2297,0.0,0.0,0.0,3.6124,0.0,0.0,0.0,0.0,4.3013,4.6831,4.6755,4.6765,4.8919,4.7752,4.7,4.8558,5.1819,5.4426,5.5086,0.0,0.0,0.0,0.0,0.0,5.29,5.5633,5.8228,5.9705,6.1726,6.3203,6.3832,6.5887,6.7328,6.7997,6.8666,6.9015,6.9015,6.9015,6.9015,6.9015,6.9015,6.9015,6.9015,6.9015,6.9015,6.9015,6.9015,6.9015,6.9015,6.9015,6.9015,6.9015,6.9015,6.9015,6.9015,6.9015,6.9015,6.9015,6.9015,6.9015,6.9015,6.9015,6.9015,6.8898,6.823,6.7095,6.5787,6.4507,6.6019,6.8026,6.8026,6.852,6.8666,6.7328,6.6514,6.5554,6.3605,6.2704,6.2064,6.1311,6.1195,6.1195,6.1195,6.1195,6.1744,6.3024,6.3198,6.4129,6.6688,6.6455,6.631,6.695,6.6455,6.6048,6.6048,6.6659,6.7299,6.7968,6.8637,6.8404,6.7066,6.7008,6.5816,6.3256,6.1948,6.1195,6.1195,6.1195,6.1195,6.1195,6.1948,6.1805,3.1663,3.3665,3.5809,3.6861,0.0,0.0,4.0998,4.1571,4.293,0.0,4.773,4.8008,5.0816,5.0358,4.9693,5.025,5.3747,5.689,5.8341,5.7642,5.6024,5.3452,5.3411,5.3653,5.345,5.4907,5.5882,5.5882,5.832,6.0163,6.103,6.4547,6.6601,6.6832,6.7872,6.8449,6.8449,6.8859,6.9015,6.9015,6.9015,6.9015,6.9015,6.9015,6.9015,6.9015,6.9015,6.9015,6.9015,6.9015,6.9015,6.9015,6.9015,6.9015,6.9015,6.9015,6.9015,6.9015,6.9015,6.9015,6.9015,6.9015,6.9015,6.8811,6.7735,6.6339,6.5176,6.5408,6.6834,6.8317,6.8549,6.8608,6.8404,6.759,6.7212,6.6368,6.4071,6.3373,6.2907,6.186,6.134,6.1195,6.1195,6.1195,6.1544,6.2675,6.282,6.3751,6.631,6.663,6.6834,6.7357,6.7415,6.7415,6.7415,6.7415,6.7881,6.8957,6.9015,6.852,6.7444,6.7415,6.6194,6.3634,6.2558,6.1689,6.1195,6.1432,6.129,6.1031,6.117,6.1195,3.3039,3.5691,3.8357,3.9474,3.9115,0.0,4.4805,4.5949,4.7467,0.0,5.3722,5.4041,5.5223,5.4709,5.4763,5.7526,5.8403,5.8175,5.676,5.6396,5.5418,5.3274,5.3069,5.2741,5.1893,5.3165,5.4171,5.4171,5.5864,5.8471,6.2168,6.3751,6.5142,6.6182,6.6351,6.6435,6.6435,6.8136,6.9015,6.9015,6.9015,6.9015,6.9015,6.9015,6.9015,6.9015,6.9015,6.9015,6.9015,6.9015,6.9015,6.9015,6.9015,6.9015,6.9015,6.9015,6.9015,6.9015,6.9015,6.9015,6.9015,6.9015,6.9015,6.8986,6.884,6.7066,6.535,6.6485,6.6194,6.5816,6.695,6.7241,6.7502,6.8549,6.7881,6.663,6.5205,6.4012,6.3169,6.3024,6.2093,6.1195,6.1195,6.1195,6.1224,6.137,6.1399,6.2442,6.5001,6.5321,6.6223,6.8549,6.8782,6.8782,6.8782,6.8782,6.8869,6.9015,6.9015,6.8957,6.8782,6.8782,6.7561,6.4943,6.4769,6.3576,6.1195,6.1896,6.1648,6.0554,6.0974,6.1195,3.3638,3.5907,3.7875,3.8924,0.0,0.0,4.3927,4.522,4.7197,0.0,5.3688,5.4421,5.6788,5.6837,5.6984,5.8284,5.7786,5.6851,5.5541,5.4762,5.403,5.3152,5.2493,5.1931,5.1601,5.206,5.2431,5.2431,5.3165,5.497,5.8508,6.1302,6.3411,6.4452,6.4479,6.502,6.6143,6.6857,6.785,6.9015,6.9015,6.9015,6.9015,6.9015,6.9015,6.9015,6.9015,6.9015,6.9015,6.9015,6.9015,6.9015,6.9015,6.9015,6.9015,6.9015,6.9015,6.9015,6.9015,6.9015,6.9015,6.9015,6.9015,6.8869,6.8084,6.6572,6.5234,6.5757,6.4972,6.4303,6.5554,6.5903,6.6252,6.7532,6.7415,6.6863,6.6339,6.5205,6.41,6.3344,6.218,6.1195,6.1195,6.1195,6.1195,6.1195,6.1195,6.1948,6.3751,6.4652,6.5816,6.7648,6.8549,6.9015,6.9015,6.8288,6.8171,6.8986,6.8288,6.82,6.8986,6.9015,6.8142,6.6252,6.6223,6.5321,6.3518,6.3793,6.3289,6.203,6.1519,6.1195,3.3084,0.0,0.0,0.0,0.0,0.0,0.0,0.0,4.6942,5.1967,5.3274,5.4299,5.6959,5.7447,5.7349,5.7056,5.6324,5.5421,5.4347,5.3518,5.2908,5.2639,5.1907,5.1577,5.1577,5.1577,5.1577,0.0,5.1577,5.292,5.61,5.9047,6.1148,6.2635,6.2688,6.3218,6.4615,6.502,6.6039,6.7463,6.8008,6.8165,6.8165,6.8732,6.9015,6.9015,6.9015,6.9015,6.9015,6.9015,6.9015,6.9015,6.9015,6.9015,6.9015,6.9015,6.9015,6.9015,6.9015,6.9015,6.9015,6.9015,6.9015,6.884,6.7851,6.6426,6.5118,6.5118,6.3925,6.2907,6.3809,6.4303,6.4885,6.6165,6.6485,6.6485,6.6485,6.5496,6.4185,6.2702,6.178,6.1054,6.0685,6.0941,6.1195,6.1195,6.1195,6.1744,6.3024,6.4332,6.5612,6.6892,6.823,6.9015,6.9015,6.7793,6.7444,6.8404,6.7561,6.7444,6.8404,6.8811,6.8375,6.7037,6.7008,6.6397,6.5118,6.4956,6.4465,6.3693,6.1809,6.1318,0.0,0.0,0.0,3.7599,3.7599,3.8543,4.537,0.0,4.8127,5.2292,5.3859,5.4933,5.608,5.6275,5.5958,5.4884,5.4713,5.4323,5.3225,5.3054,5.2639,5.1748,5.1577,5.1577,5.1577,5.1577,5.1577,5.1577,5.1577,5.3243,5.7095,5.7385,5.8439,6.0676,6.0753,6.0753,6.0728,6.2548,6.3494,6.3521,6.5317,6.6143,6.6275,6.8136,6.9015,6.9015,6.9015,6.9015,6.9015,6.9015,6.9015,6.9015,6.9015,6.9015,6.9015,6.9015,6.9015,6.9015,6.9015,6.9015,6.9015,6.9015,6.9015,6.9015,6.8986,6.7153,6.5118,6.5118,6.3285,6.1253,6.1282,6.2326,6.3576,6.4856,6.5176,6.5176,6.5176,6.4158,6.2704,6.1083,6.1001,6.0685,5.9217,6.02,6.1195,6.1195,6.1195,6.1744,6.3024,6.4332,6.5612,6.6892,6.823,6.9015,6.9015,6.7793,6.7037,6.7066,6.7037,6.7037,6.7066,6.8317,6.8375,6.7037,6.7008,6.6397,6.5118,6.4677,6.462,6.503,6.1946,6.1379,3.2169,3.4227,3.6198,3.7794,3.8772,4.0294,4.3366,4.5161,4.7032,5.0511,5.19,5.3183,5.4793,5.4591,5.3981,5.364,5.3566,5.32,5.2127,5.198,5.1834,5.1601,5.1577,5.1577,5.1577,5.1577,5.1577,5.1577,5.1577,0.0,5.4386,5.5156,5.6225,5.7666,5.8461,5.9399,6.0609,6.1301,6.2126,6.3356,6.3934,6.4885,6.6143,6.6726,6.7722,6.9015,6.9015,6.8293,6.7146,6.8449,6.9015,6.9015,6.9015,6.9015,6.9015,6.9015,6.9015,6.9015,6.9015,6.9015,6.9015,6.9015,6.9015,6.9015,6.9015,6.7183,6.5118,6.5118,6.3256,6.1195,6.1195,6.1628,6.2238,6.3547,6.3838,6.4071,6.4914,6.41,6.2675,6.0963,6.0745,6.0118,5.7609,5.7592,5.8337,5.9566,5.9682,6.0228,6.1747,6.3053,6.4332,6.5612,6.6921,6.8055,6.8957,6.7793,6.7008,6.7008,6.6223,6.6136,6.6979,6.7444,6.791,6.8346,6.8346,6.8142,6.7706,6.7486,6.6592,6.5089,6.4028,6.2933,3.1524,3.3267,3.4947,3.7359,3.8826,4.0135,4.2206,4.3713,4.5596,4.8945,5.018,5.1355,5.3676,5.3176,5.2444,5.2444,5.2444,5.2224,5.1675,5.1577,5.1577,5.1577,5.1577,5.1577,5.1577,5.1577,5.1577,5.1577,5.1919,5.2468,5.3542,5.4616,5.5714,5.6788,5.7544,5.8461,5.9668,5.9668,6.02,6.147,6.2126,6.2967,6.4207,6.545,6.6435,6.7016,6.7016,6.6595,6.6143,6.7434,6.842,6.9015,6.9015,6.9015,6.9015,6.9015,6.9015,6.8957,6.8462,6.8608,6.8928,6.8462,6.8608,6.9015,6.9015,6.7183,6.5118,6.5118,6.3256,6.1195,6.1195,6.1195,6.1399,6.2326,6.25,6.2733,6.3576,6.2589,6.1487,6.073,5.9847,5.8729,5.7296,5.6645,5.6744,5.786,5.8456,5.9334,6.0315,6.152,6.3019,6.4972,6.5186,6.6194,6.8772,6.7265,6.6362,6.7008,6.5816,6.5467,6.6281,6.6775,6.7415,6.8288,6.8782,6.9015,6.9015,6.852,6.7212,6.5089,6.4623,6.3547,2.8959,3.0065,3.1388,3.6175,3.7444,3.8434,4.1867,4.2691,4.3693,4.7446,4.8328,4.9321,5.2324,5.1967,5.1419,5.1443,5.1577,5.1577,5.1577,5.1577,5.1577,5.1577,5.1577,5.1577,5.1577,5.1577,5.1577,5.1577,5.2419,5.3469,5.4494,5.5616,5.6715,5.7788,5.7886,5.791,5.791,5.791,5.791,5.791,5.9668,6.0609,6.0728,6.4207,6.475,6.3106,6.3218,6.4343,6.5983,6.6011,6.7276,6.9015,6.9015,6.9015,6.9015,6.9015,6.8986,6.8724,6.7444,6.7793,6.8608,6.7328,6.7793,6.8811,6.8811,6.7037,6.5001,6.5001,6.3111,6.1166,6.1195,6.1166,6.1166,6.1195,6.1195,6.1195,6.1195,5.9942,5.9027,6.0144,5.8143,5.6682,5.7726,5.6976,5.613,5.6253,5.7592,5.872,5.8837,5.9789,6.1599,6.4589,6.2891,6.3588,6.8247,6.5883,6.492,6.661,6.5666,6.4969,6.4969,6.6194,6.6892,6.7008,6.8259,6.8898,6.8898,6.7706,6.6426,6.5089,6.3867,6.3227,2.7549,2.9692,3.1652,3.5208,3.6599,3.7759,4.0127,4.0692,4.142,4.3693,4.5423,4.7093,4.9368,4.9504,4.9886,5.1285,5.1577,5.1577,5.1577,5.1577,5.1577,5.1577,5.1577,5.1577,5.1577,5.1577,5.1577,5.1577,5.2419,5.3152,5.3444,5.5201,5.6373,5.6641,5.7471,5.791,5.791,5.791,5.791,5.791,5.8461,5.9252,6.0753,6.156,6.1041,5.9424,6.2152,6.3659,6.4207,6.5584,6.7276,6.9015,6.9015,6.9015,6.9015,6.9015,6.8375,6.7473,6.7124,6.6601,6.6048,6.5699,6.5816,6.6106,6.6106,6.4972,6.3693,6.3693,6.1663,5.9711,6.0941,6.0315,5.9826,6.0941,6.1195,6.1195,6.1195,5.8955,5.6702,5.5753,5.577,5.5358,5.3565,5.2975,5.3165,5.4273,5.4907,5.6006,5.8574,5.8108,5.8592,6.1422,6.0214,6.0386,6.3401,6.2895,6.2572,6.2836,6.3022,6.3125,6.3125,6.3735,6.5059,6.6979,6.7357,6.7532,6.7532,6.82,6.7328,6.5118,6.4769,6.3605,2.3489,2.7176,3.1055,3.5148,3.6534,3.7483,3.9505,3.9978,4.0542,4.2397,4.3693,4.4993,4.7026,4.8027,4.9179,5.1151,5.1577,5.1577,5.1577,5.1577,5.1577,5.1577,5.1577,5.1577,5.1577,5.1577,5.1577,5.1577,5.2419,5.303,5.303,5.4616,5.5763,5.6226,5.6837,5.7398,5.791,5.791,5.791,5.791,5.791,5.8461,5.9521,6.0345,5.9668,5.8061,6.0106,6.1444,6.2267,6.4207,6.6011,6.785,6.8732,6.9015,6.8957,6.8346,6.7648,6.6863,6.5728,6.5234,6.5001,6.4449,6.4652,6.5118,6.5118,6.4216,6.3198,6.3198,6.1144,5.9072,5.9942,5.8955,5.798,5.8837,5.9072,5.9072,5.9072,5.7592,5.5882,5.4145,5.3933,5.381,5.3419,5.2381,5.1819,5.2668,5.3425,5.4527,5.6376,5.5882,5.6433,5.9334,5.7457,5.7443,6.0831,6.0832,6.0852,6.1503,6.2101,6.2351,6.2351,6.2865,6.3867,6.5321,6.4633,6.4921,6.6165,6.7502,6.7095,6.5118,6.5118,6.4332,1.8768,2.3529,2.9099,3.4722,3.6058,3.6677,3.9031,3.9656,4.0091,4.1974,4.2397,4.2984,4.4993,4.6885,4.888,5.0858,5.1285,5.1577,5.1577,5.1577,5.1577,5.1577,5.1577,5.1577,5.1577,5.1577,5.1577,5.1577,5.2419,5.2981,5.2834,5.3981,5.5055,5.5982,5.6153,5.6763,5.7886,5.791,5.791,5.791,5.791,5.791,5.8061,5.9521,5.9399,5.791,5.791,5.9006,6.0728,6.2408,6.407,6.5878,6.7592,6.8334,6.8229,6.7168,6.6653,6.6194,6.372,6.3546,6.442,6.3053,6.3459,6.4594,6.4594,6.3692,6.2705,6.2821,6.0651,5.8337,5.8837,5.7472,5.613,5.6376,5.6006,5.5758,5.6006,5.5882,5.5384,5.4171,5.2562,5.2356,5.4827,5.3186,5.1577,5.1577,5.2668,5.3657,5.3786,5.3657,5.466,5.7393,5.4847,5.4681,5.8891,5.8628,5.9,6.0696,6.1209,6.1445,6.1445,6.1953,6.2299,6.2299,6.1147,6.1889,6.456,6.5985,6.6106,6.4856,6.503,6.4914,1.7654,2.038,2.4333,3.0204,3.1632,3.273,3.6523,3.7483,3.8079,4.0091,4.0561,4.1122,4.2964,4.485,4.6863,4.8743,5.0453,5.1577,5.1577,5.1577,5.1577,5.1577,5.1577,5.1577,5.1577,5.1577,5.1577,5.1577,5.2419,5.2639,5.1895,5.3566,5.4713,5.4909,5.5763,5.6763,5.7886,5.791,5.791,5.791,5.791,5.791,5.791,5.8336,5.8186,5.791,5.791,5.9006,6.0609,6.1015,6.2126,6.3934,6.4207,6.4603,6.5102,6.4877,6.4395,6.3546,6.176,6.1487,6.1662,6.008,6.0658,6.1977,6.1977,6.0802,5.9878,6.1259,5.8265,5.5384,5.8218,5.6622,5.4654,5.6006,5.4273,5.2668,5.4043,5.3295,5.2668,5.3657,5.2562,5.1626,5.2198,5.1808,5.1577,5.1577,5.1686,5.2431,5.3657,5.2668,5.2637,5.4429,5.2969,5.2532,5.4113,5.4136,5.463,5.5777,5.6319,5.6553,5.6553,5.7262,5.753,5.753,5.9559,6.0927,6.1394,6.4114,6.4769,6.3576,6.4623,6.3983,1.5774,1.8165,2.1035,2.5397,2.8353,3.1052,3.4399,3.6058,3.6328,3.4445,3.6406,3.8845,4.0418,4.2616,4.5137,4.805,4.9316,5.0294,5.1419,5.1577,5.1577,5.1577,5.1577,5.1577,5.1577,5.1577,5.1577,5.1577,5.2419,5.2566,5.1626,5.3469,5.464,5.464,5.5665,5.6763,5.7886,5.791,5.791,5.791,5.791,5.791,5.791,5.791,5.791,5.791,5.791,5.8461,5.9252,6.02,6.1158,6.1933,6.2437,6.2822,6.2858,6.1624,6.092,6.0452,5.8879,5.8542,5.872,5.8837,5.8837,5.8837,5.9711,5.945,5.8837,5.872,5.6988,5.5384,5.613,5.44,5.2799,5.3657,5.2668,5.1686,5.2431,5.206,5.1686,5.2431,5.206,5.1577,5.1577,5.1577,5.1577,5.1577,5.1577,5.1819,5.2562,5.1927,5.1819,5.2562,5.1927,5.1773,5.2151,5.2712,5.3249,5.3762,5.4791,5.5373,5.5373,5.4349,5.4145,5.5007,5.7257,5.8901,5.9768,6.27,6.3809,6.3227,6.3838,6.346,1.349,1.6224,1.8958,2.0746,2.5106,2.9309,3.1346,3.3352,3.3539,2.9104,3.267,3.7056,3.8159,4.0691,4.3753,4.7424,4.8328,4.9316,5.1285,5.1577,5.1577,5.1577,5.1577,5.1577,5.1577,5.1577,5.1577,5.1577,5.2224,5.2322,5.1601,5.3249,5.4396,5.464,5.5665,5.6763,5.7886,5.791,5.791,5.791,5.791,5.791,5.791,5.791,5.791,5.791,5.791,5.791,5.8061,5.9546,5.9928,5.9742,6.0369,6.0508,6.022,5.8406,5.7807,5.7737,5.6326,5.6006,5.6499,5.7472,5.7109,5.6622,5.798,5.8099,5.7592,5.6622,5.5882,5.5133,5.4171,5.2668,5.1577,5.1577,5.1577,5.1577,5.1577,5.1577,5.1577,5.1577,5.1577,5.1577,5.1577,5.1577,5.1577,5.1577,5.1577,5.1577,5.1577,5.1577,5.1577,5.1577,5.1577,5.1577,5.1577,5.22,5.2688,5.2688,5.392,5.4511,5.4511,5.2613,5.1961,5.2915,5.4876,5.6622,5.8337,6.0558,6.1893,6.23,6.256,6.2531,1.0708,1.463,1.807,1.6518,2.1083,2.604,2.6164,2.6858,2.7422,2.6947,3.1576,3.599,3.6928,3.9624,4.2594,4.5435,4.7446,4.9316,5.1285,5.1577,5.1577,5.1577,5.1577,5.1577,5.1577,5.1577,5.1577,5.1577,5.1675,5.1675,5.1577,5.2541,5.364,5.4591,5.5665,5.6763,5.7886,5.791,5.791,5.791,5.791,5.791,5.791,5.791,5.791,5.791,5.791,5.791,5.791,5.8036,5.7573,5.6641,5.6664,5.6463,5.5894,5.5688,5.6002,5.6263,5.468,5.5133,5.613,5.4781,5.5258,5.6376,5.6499,5.5509,5.4654,5.6006,5.4273,5.2299,5.3554,5.2668,5.1577,5.1577,5.1577,5.1577,5.1577,5.1577,5.1577,5.1577,5.1577,5.1577,5.1577,5.1577,5.1577,5.1577,5.1577,5.1577,5.1577,5.1577,5.1577,5.1577,5.1577,5.1577,5.1577,5.1516,5.1699,5.1699,5.1833,5.1808,5.1808,5.1601,5.1088,5.0165,5.2763,5.4907,5.6622,5.6852,5.7757,5.9269,6.0337,6.0252,1.0151,1.2843,1.5853,1.6364,1.8942,2.1611,2.2877,2.2736,2.2651,2.4236,2.9833,3.4181,3.3719,3.7015,4.0939,4.4396,4.5577,4.7342,5.1054,5.1577,5.1577,5.1577,5.1577,5.1577,5.1577,5.1577,5.1577,5.1577,5.2029,5.2127,5.1601,5.3078,5.3884,5.3664,5.4713,5.5494,5.5934,5.6592,5.691,5.691,5.7593,5.791,5.791,5.791,5.791,5.791,5.791,5.791,5.7861,5.7178,5.6641,5.6104,5.4811,5.4155,5.395,5.3278,5.3282,5.3295,5.2668,5.293,5.3554,5.3786,5.3657,5.3657,5.4527,5.44,5.3786,5.3554,5.3165,5.2799,5.2562,5.1927,5.1577,5.1577,5.1577,5.1577,5.1577,5.1577,5.1577,5.1577,5.1577,5.1577,5.1577,5.1577,5.1577,5.1577,5.1577,5.1577,5.1577,5.1577,5.1577,5.1577,5.1577,5.1577,5.1577,5.1577,5.1577,5.1577,5.1577,5.1259,5.0443,5.1077,5.1357,5.0784,5.2808,5.4145,5.4907,5.5882,5.6744,5.7379,5.7816,5.7788,1.0548,1.24,1.4588,1.4998,1.6699,1.8597,1.9789,1.8601,1.809,2.1588,2.7524,3.1841,3.0843,3.4179,3.8271,4.2001,4.3684,4.5907,5.0015,5.1151,5.1577,5.1577,5.1577,5.1577,5.1577,5.1577,5.1577,5.1577,5.2127,5.2224,5.1601,5.3469,5.4128,5.3078,5.4372,5.5104,5.5104,5.586,5.6397,5.6739,5.752,5.791,5.791,5.791,5.791,5.791,5.791,5.791,5.7813,5.669,5.586,5.5128,5.3615,5.2834,5.2468,5.1846,5.1577,5.1577,5.1577,5.1577,5.1686,5.2799,5.2431,5.1686,5.2799,5.3165,5.293,5.1819,5.2299,5.293,5.1819,5.1577,5.1577,5.1577,5.1577,5.1577,5.1577,5.1577,5.1577,5.1577,5.1577,5.1577,5.1577,5.1577,5.1577,5.1577,5.1577,5.1577,5.1577,5.1577,5.1577,5.1577,5.1577,5.1577,5.1577,5.1577,5.1297,5.0955,5.1381,5.0662,4.8905,4.9906,5.0492,5.0492,5.1888,5.3069,5.3786,5.4527,5.5133,5.5633,5.613,5.613,1.1674,1.372,1.5364,1.1525,1.4187,1.736,1.6251,1.4032,1.3772,1.922,2.4659,2.8485,2.8772,3.1305,3.4466,3.743,4.1695,4.5494,4.819,5.0294,5.1577,5.1577,5.1577,5.1577,5.1577,5.1577,5.1577,5.1577,5.1577,5.1577,5.1577,5.3469,5.4128,5.3078,5.5104,5.6226,5.6226,5.6226,5.6788,5.7886,5.791,5.791,5.791,5.791,5.791,5.791,5.791,5.791,5.7813,5.669,5.4982,5.3054,5.3054,5.2395,5.1577,5.1577,5.1577,5.1577,5.1577,5.1577,5.1577,5.1577,5.1577,5.1577,5.1577,5.1577,5.1577,5.1577,5.1577,5.1577,5.1577,5.1577,5.1577,5.1577,5.1577,5.1577,5.1577,5.1577,5.1577,5.1577,5.1577,5.1577,5.1577,5.1577,5.1577,5.1577,5.1577,5.1577,5.1577,5.1577,5.1577,5.1577,5.1577,5.1577,5.1577,5.1577,5.0955,4.9833,5.0809,5.0003,4.6807,4.7709,4.8295,4.8295,4.9271,5.1181,5.3786,5.2299,5.2299,5.3915,5.5633,5.5509,1.1522,1.0695,1.0318,1.0557,1.1155,1.1083,0.9535,1.386,1.7655,1.5524,2.0593,2.5879,2.8012,3.161,3.5704,3.9773,4.159,4.3943,4.8051,4.9179,5.0022,5.1285,5.1577,5.1577,5.1577,5.1577,5.1577,5.1577,5.1577,5.1895,5.2493,5.3176,5.3371,5.3054,5.3688,5.4054,5.4054,5.4054,5.4957,5.6763,5.7544,5.791,5.791,5.791,5.791,5.791,5.791,5.7471,5.6666,5.5592,5.3884,5.1809,5.0321,4.9564,4.9247,4.9247,4.9247,4.9345,5.0052,5.0296,5.0418,5.1308,5.1577,5.1577,5.1577,5.1577,5.1577,5.1577,5.1577,5.1577,5.1577,5.1577,5.1577,5.1577,5.1577,5.1577,5.1577,5.1577,5.1577,5.1577,5.1577,5.1577,5.1577,5.1577,5.1577,5.1577,5.1577,5.1577,5.1577,5.1577,5.1577,5.1577,5.1577,5.1577,5.1577,5.0736,5.0125,4.9759,4.9442,4.8466,4.6709,4.7685,4.8246,4.8246,4.8564,4.9135,4.9961,5.0189,5.0759,5.1458,5.3675,5.4489,1.2656,1.0651,0.9218,0.9372,0.8035,0.6931,0.8011,1.2612,1.5974,1.4161,1.8166,2.2697,2.5195,2.9565,3.3887,3.7046,3.9197,4.2173,4.6425,4.7295,4.8449,5.1188,5.1053,5.0955,5.1528,5.1577,5.1577,5.1577,5.1577,5.1907,5.2981,5.342,5.364,5.364,5.403,5.425,5.425,5.425,5.5128,5.6861,5.7154,5.7495,5.7886,5.7056,5.6885,5.7227,5.6422,5.5665,5.4933,5.3859,5.2395,5.0638,4.893,4.8246,4.8246,4.8246,4.8246,4.8344,4.8978,4.9442,4.9857,5.0565,5.1077,5.1577,5.1577,5.1577,5.1577,5.1577,5.1577,5.1577,5.1577,5.1577,5.1577,5.1577,5.1577,5.1577,5.1577,5.1577,5.1577,5.1577,5.1577,5.1577,5.1577,5.1577,5.1577,5.1577,5.1577,5.1577,5.1577,5.1577,5.1406,5.0833,5.0809,5.0638,5.0247,4.9589,4.9003,4.8612,4.7587,4.6709,4.605,4.666,4.7197,4.7636,4.7636,4.7856,4.8246,4.8881,4.954,5.0383,5.2555,5.3574,1.5031,1.2763,1.1018,0.8304,0.5847,0.5427,1.0795,1.0845,1.1027,1.4596,1.7196,1.9333,2.0926,2.5506,2.9432,3.0799,3.5421,4.0208,4.3692,4.4809,4.6795,5.0665,5.0141,4.9922,5.1102,5.1332,5.1332,5.1332,5.1332,5.1663,5.2737,5.3884,5.4518,5.4518,5.5641,5.6226,5.6226,5.6153,5.6641,5.7666,5.6544,5.6544,5.7495,5.5372,5.4957,5.5763,5.3786,5.2883,5.2712,5.1639,5.054,4.9418,4.8417,4.8027,4.8027,4.8027,4.8027,4.8027,4.81,4.8808,4.9662,4.9735,5.0516,5.1577,5.1577,5.1577,5.1577,5.1577,5.1504,5.1479,5.1552,5.1577,5.1577,5.1577,5.1577,5.1577,5.1577,5.1577,5.1577,5.1577,5.1577,5.1577,5.1577,5.1577,5.1577,5.1577,5.1577,5.1577,5.1577,5.1504,5.0906,4.9857,4.9686,4.9271,4.832,4.8246,4.7758,4.6587,4.5538,4.4859,4.4859,4.4859,4.5464,4.6514,4.6538,4.7026,4.8027,4.81,4.8747,5.0127,5.185,5.269,1.7002,1.2392,0.874,1.0049,1.1755,1.2709,1.1084,1.445,1.7082,1.4117,1.6646,1.9463,1.9374,2.2204,2.6347,3.2194,3.5737,3.8682,4.1004,4.1564,4.3052,4.6617,4.6868,4.7208,4.8827,4.9003,4.9003,4.9003,4.9003,4.9442,5.0467,5.2346,5.3396,5.3396,5.525,5.6226,5.6226,5.5421,5.5128,5.5397,5.4299,5.3932,5.4128,5.2785,5.2322,5.2541,5.2029,5.1321,5.0443,4.9418,4.8344,4.727,4.6172,4.5614,4.5614,4.5614,4.5614,4.5735,4.6733,4.7709,4.8734,4.9515,5.0516,5.1577,5.1577,5.1577,5.1577,5.1577,5.0809,5.0345,5.1224,5.1577,5.1577,5.1577,5.1577,5.1577,5.1577,5.1577,5.1577,5.1577,5.1577,5.1577,5.1577,5.1577,5.1577,5.1577,5.1577,5.1577,5.1577,5.0687,5.0052,4.9784,4.9076,4.8515,4.8271,4.8246,4.7417,4.5489,4.5005,4.4859,4.4859,4.4859,4.5098,4.5367,4.5367,4.5489,4.5614,4.6587,4.738,4.8015,5.0206,5.1917,2.1993,1.7617,1.5029,1.999,1.9889,1.8459,1.8333,1.9333,1.9283,1.5894,1.7865,2.0094,1.9063,2.2045,2.576,2.928,3.2286,3.4965,3.7287,3.8812,4.0965,4.4722,4.4988,4.5579,4.6862,4.635,4.5836,4.5836,4.5836,4.6644,4.8443,4.9744,5.1253,5.3005,5.4152,5.5006,5.5494,5.4445,5.3884,5.3884,5.3298,5.2785,5.2249,5.0687,5.0223,5.0614,4.9637,4.8881,4.8271,4.7734,4.688,4.5806,4.522,4.4859,4.4859,4.4859,4.4859,4.5049,4.566,4.6587,4.7612,4.8149,4.9076,4.9979,4.9979,4.9979,5.0052,5.054,5.0223,4.9906,5.0516,5.1053,5.1577,5.1577,5.1577,5.1577,5.1577,5.1577,5.1577,5.1577,5.1577,5.1406,5.0736,5.1102,5.1102,5.0125,5.037,5.0492,5.0028,4.9442,4.8881,4.8368,4.7832,4.7319,4.6782,4.6733,4.6245,4.4932,4.4859,4.4859,4.4859,4.4859,4.4859,4.4859,4.4859,4.4859,4.4859,4.5586,4.6361,4.7246,4.8567,5.003,2.8345,2.6147,2.6255,3.2686,2.8749,2.4112,2.7383,2.4403,2.062,1.9258,2.0463,2.1367,2.002,2.3296,2.5968,2.5878,2.7786,3.0211,3.3201,3.6086,3.9297,4.2818,4.3433,4.3892,4.4743,4.3776,4.2969,4.2706,4.2706,4.3696,4.5984,4.6461,4.8261,5.1816,5.2316,5.2615,5.2891,5.2192,5.1945,5.2219,5.2106,5.1709,5.0882,4.8905,4.8368,4.893,4.7148,4.6392,4.6392,4.6392,4.583,4.4859,4.4859,4.4859,4.4859,4.4859,4.4859,4.4859,4.4859,4.5708,4.666,4.666,4.7368,4.8246,4.8246,4.8246,4.8393,4.9076,4.9271,4.932,4.9491,5.0345,5.1175,5.1175,5.1321,5.1577,5.1577,5.1577,5.1504,5.1224,5.1175,5.0833,4.9711,5.0321,5.0321,4.8515,4.8978,4.9223,4.8368,4.81,4.7661,4.6758,4.6489,4.6001,4.4932,4.4859,4.4859,4.4859,4.4859,4.4859,4.4859,4.4859,4.4859,4.4859,4.4859,4.4859,4.4859,4.4859,4.5534,4.6882,4.6882,4.7642,3.3629,3.6484,3.9786,3.971,3.6369,3.2514,3.0641,2.8122,2.583,2.4481,2.4383,2.458,2.434,2.3872,2.4737,2.8731,2.6875,2.6355,3.0193,3.2969,3.533,3.7261,3.9369,4.0684,4.0815,4.1981,4.2105,4.0586,4.046,4.0652,4.1161,4.2857,4.4695,4.6795,4.8613,4.805,4.4989,4.5524,4.6544,4.8144,4.808,4.8275,4.8686,4.7465,4.6465,4.5684,4.5367,4.522,4.522,4.522,4.5005,4.4859,4.4859,4.4859,4.4859,4.4859,4.4859,4.4859,4.4859,4.5708,4.666,4.666,4.7368,4.8246,4.8246,4.8246,4.81,4.7343,4.7124,4.7343,4.8246,4.9247,5.0003,5.0003,5.0736,5.1577,5.1577,5.1577,5.1283,5.0199,5.0003,4.9686,4.8661,4.8612,4.8612,4.8295,4.8393,4.8417,4.8271,4.7441,4.6831,4.666,4.5782,4.5147,4.4859,4.4859,4.4859,4.4859,4.4859,4.4859,4.4859,4.4859,4.4859,4.4859,4.4859,4.4859,4.4859,4.4859,4.4952,4.5302,4.5302,4.6085,3.9523,4.3196,4.6829,4.6181,4.3252,3.9578,3.6266,3.3181,3.0195,2.7112,2.6581,2.633,2.5405,2.5815,2.6268,2.6667,2.6214,2.6497,2.8343,3.3193,3.6415,3.6147,3.8448,3.965,3.8768,3.8515,3.8154,3.7385,3.7256,3.777,3.8641,3.957,4.1181,4.3395,4.4424,4.4183,4.2377,4.2683,4.341,4.4177,4.4091,4.4798,4.6054,4.5555,4.547,4.5879,4.5879,4.5038,4.3749,4.46,4.4365,4.3749,4.46,4.4859,4.4859,4.4859,4.4859,4.4859,4.4859,4.5318,4.5733,4.5733,4.6074,4.6489,4.6489,4.6489,4.6367,4.5879,4.6172,4.6758,4.7246,4.8149,4.9076,4.9613,4.9735,4.9857,5.0418,5.0516,5.0223,4.9149,4.9393,4.9247,4.7661,4.7856,4.7832,4.6539,4.7002,4.7173,4.6538,4.605,4.5733,4.5733,4.5269,4.4859,4.4859,4.4859,4.4859,4.4859,4.4859,4.4859,4.4859,4.4859,4.4859,4.4859,4.4859,4.4859,4.4859,4.4859,4.4859,4.4859,4.4859,4.5302,4.4581,0.0,5.1026,5.1113,4.8281,4.45,0.0,3.6917,3.3049,2.8971,2.8205,2.7726,2.6564,2.7629,2.782,2.5402,2.5744,2.6735,2.7835,3.2527,3.5596,3.4947,3.749,3.8389,3.6421,3.5868,3.5381,3.5004,3.5004,3.5513,3.6889,3.6889,3.8078,4.0578,4.0212,4.0082,4.0082,4.0164,4.0531,4.1073,4.1374,4.2266,4.3526,4.3754,4.4269,4.5107,4.5107,4.3878,4.214,4.3749,4.3367,4.214,4.4105,4.4718,4.4365,4.4718,4.4718,4.4365,4.4718,4.4718,4.4365,4.4742,4.4859,4.4859,4.4859,4.46,4.4483,4.4859,4.5586,4.6245,4.6245,4.7051,4.8076,4.8832,4.8637,4.8466,4.9223,4.9589,4.9442,4.8442,4.8881,4.8808,4.6977,4.7099,4.6904,4.5103,4.5708,4.5952,4.4957,4.4859,4.4859,4.4859,4.4859,4.4859,4.4859,4.4859,4.4859,4.4859,4.4859,4.4859,4.4859,4.4859,4.4859,4.4859,4.4859,4.4859,4.4859,4.4859,4.4859,4.4859,4.4859,4.4859,0.0,5.1354,5.3631,5.2894,4.9962,4.616,4.2223,3.7618,0.0,3.0387,2.9728,2.9728,2.9615,2.8605,2.7944,2.8542,2.5559,2.477,2.9323,2.8448,2.8301,3.0983,3.429,3.5421,3.2921,3.5528,3.665,3.5136,3.5004,3.5004,3.5136,3.5136,3.6038,3.7744,3.6227,3.5477,3.5477,3.6226,3.7405,3.9258,4.081,4.169,4.187,4.2487,4.2049,4.0508,4.0508,4.0464,4.0398,4.2018,4.1774,4.0522,4.3725,4.3986,4.2911,4.4365,4.3986,4.2911,4.4365,4.3986,4.3008,4.4483,4.4859,4.4859,4.4859,4.3868,4.3008,4.4483,4.4908,4.4957,4.4957,4.5928,4.6782,4.6855,4.7587,4.8271,4.8344,4.9101,4.9442,4.8442,4.8295,4.8002,4.6855,4.5855,4.503,4.4859,4.4932,4.5049,4.4859,4.4859,4.4859,4.4859,4.4859,4.4859,4.4859,4.4859,4.4859,4.4859,4.4859,4.4859,4.4859,4.4859,4.4859,4.4859,4.4859,4.4859,4.4859,4.4859,4.4859,4.4859,4.4859,4.4859,4.8579,5.158,5.3719,5.3093,5.0432,4.6837,4.2391,3.8188,3.4248,3.0729,2.9955,2.9955,2.9955,2.9482,2.8572,2.73,2.5845,2.5899,2.8713,2.8309,2.951,3.4503,3.4884,3.4542,3.4059,3.3764,3.408,3.4966,3.5004,3.5004,3.5004,3.5004,3.5269,3.5887,3.5249,3.5004,3.5004,3.5308,3.5861,3.6507,3.7152,3.8749,4.0912,4.1113,4.1738,4.2548,4.2548,4.1349,0.0,4.1001,4.0421,3.8641,4.1016,4.1507,4.1016,4.163,4.1507,4.1016,4.163,4.214,4.2526,4.1995,4.2624,4.3248,4.2261,4.1507,4.1385,4.3008,4.4105,4.4859,4.4859,4.4559,4.4533,4.6223,4.5664,4.5151,4.6854,4.7563,4.7514,4.6416,4.6758,4.6904,4.5782,4.5127,4.4859,4.4859,4.4859,4.4859,4.4859,4.4859,4.4859,4.4859,4.4859,4.4859,4.4859,4.4859,4.4859,4.4859,4.4859,4.4859,4.4859,4.4859,4.4859,4.4859,4.4859,4.4859,4.4859,4.4859,4.4859,4.4859,4.4859,4.4859,4.8627,5.1424,5.346,5.3194,5.0866,4.7503,4.2636,3.8595,3.4807,3.0787,2.9482,2.9141,2.9141,2.8779,2.7669,2.5411,2.5001,2.5604,2.7232,2.7947,3.003,3.4877,3.426,3.3687,3.4568,3.3354,3.3129,3.4834,3.5004,3.5004,3.5004,3.5004,3.5004,3.5004,3.5004,3.5004,3.5004,3.5004,3.5004,3.5004,3.527,3.6495,3.8734,3.9275,4.0231,4.1625,4.1938,4.0666,3.8458,3.985,3.9108,3.727,3.9254,3.965,3.9273,3.99,3.965,3.9273,3.99,4.0398,4.0893,4.0274,4.0769,4.153,4.0398,3.965,3.9524,4.0646,4.214,4.3487,4.3986,4.3008,4.2201,4.4165,4.3157,4.2224,4.4188,4.525,4.5468,4.4405,4.5568,4.6368,4.5638,4.5159,4.4957,4.544,4.5078,4.4859,4.4859,4.4859,4.4859,4.4859,4.4859,4.5005,4.5464,4.5806,4.5855,4.5538,4.5711,4.5735,4.5513,4.5513,4.5342,4.4859,4.4859,4.4859,4.4859,4.4859,4.4859,4.4859,4.4859,4.4859,4.8452,5.1115,5.2953,5.3484,5.1478,4.8029,4.293,3.8716,3.4807,3.0787,2.8683,2.7628,2.7628,2.6347,2.4797,2.3229,2.3003,2.3471,2.4915,2.6618,2.8531,3.0699,3.173,3.2723,3.3737,3.453,3.5004,3.5004,3.5004,3.5004,3.5004,3.5023,3.5023,3.5023,3.5023,3.5023,3.5023,3.5023,3.5023,3.5023,3.584,3.5821,3.508,3.6751,3.7054,3.6314,3.7149,3.751,3.7575,3.8302,3.7675,3.6397,3.8999,3.9042,3.7642,3.9399,3.8895,3.777,3.9399,3.8895,3.777,3.9399,4.0025,4.0025,4.0025,3.8768,3.7514,3.7514,3.8768,4.0398,4.2162,4.1285,4.0025,4.0025,4.0025,4.0025,4.0025,4.2173,4.38,4.2903,4.4826,4.6653,4.6998,4.5816,4.5224,4.6465,4.5684,4.4859,4.4859,4.4859,4.4859,4.4859,4.4884,4.5464,4.6563,4.7636,4.7807,4.6733,4.7661,4.7758,4.6709,4.666,4.6148,4.4884,4.4859,4.4859,4.4859,4.4859,4.4859,4.4859,4.4859,4.4859,4.6208,4.8616,5.0451,5.0612,4.9234,4.6508,4.1465,3.8568,3.5733,3.0923,2.9596,2.8894,2.7859,2.728,2.6095,2.3349,2.4343,2.534,2.5103,2.7023,2.9161,3.1632,3.2063,3.2173,3.2062,3.3819,3.5004,3.5004,3.5004,3.5004,3.5004,3.5555,3.5859,3.5859,3.6447,3.677,3.677,3.677,3.6466,3.5878,3.6713,3.6998,3.6789,3.7871,3.8535,3.8877,3.9124,3.8896,3.8326,3.8634,3.7685,3.62,3.6996,3.6659,3.5756,3.626,3.6149,3.5756,3.626,3.6889,3.7385,3.663,3.7277,3.8026,3.6889,3.6149,3.6018,3.7148,3.7898,3.8641,4.0398,3.9524,3.8536,3.9775,3.9147,3.8515,3.9775,4.1632,4.2935,4.2716,4.4172,4.5422,4.5544,4.5111,4.4957,4.5416,4.5054,4.4859,4.4859,4.566,4.6148,4.6148,4.6831,4.7417,4.7758,4.8076,4.8124,4.7807,4.8076,4.81,4.7783,4.7758,4.727,4.6172,4.6148,4.5757,4.4859,4.4859,4.4859,4.4859,4.4859,4.5391,4.3798,4.5963,4.7624,4.8259,4.7787,4.5859,4.0841,3.8074,3.5141,3.0011,2.8072,2.7099,2.7172,2.5923,2.4518,2.3598,2.3746,2.4034,2.393,2.5795,2.7836,2.9758,3.0693,3.1338,3.167,3.3025,3.4171,3.4872,3.5004,3.5156,3.5479,3.5953,3.6371,3.6713,3.7225,3.7491,3.7491,3.7491,3.7244,3.6732,3.7244,3.7491,3.7529,3.8345,3.8991,3.9484,3.9826,3.9693,3.9181,3.8858,3.8117,3.7187,3.6846,3.6219,3.5536,3.5878,3.5574,3.5061,3.5384,3.5915,3.639,3.5249,3.5625,3.626,3.5249,3.5004,3.5269,3.626,3.7018,3.7642,3.7898,3.777,3.7642,3.7898,3.7256,3.678,3.777,3.99,4.152,4.1132,4.3144,4.4985,4.5085,4.54,4.5782,4.6101,4.6294,4.6294,4.6294,4.6855,4.7295,4.7295,4.8222,4.8686,4.8295,4.9027,4.932,4.8881,4.9271,4.932,4.8881,4.8856,4.8368,4.7319,4.7295,4.6953,4.6294,4.6294,4.605,4.5635,4.5635,4.6001,4.0897,4.2753,4.4402,4.5823,4.6453,4.5271,4.031,3.696,3.3501,2.859,2.5255,2.3799,2.5817,2.3254,2.1521,2.3605,2.2292,2.1367,2.2139,2.3919,2.5574,2.6588,0.0,0.0,3.1781,3.2051,3.276,3.4588,3.4739,3.506,3.5794,3.612,3.6694,3.7472,3.7643,3.7719,3.7719,3.7719,3.7681,3.7605,3.7681,3.7681,3.7643,3.844,3.882,3.8877,3.9636,3.9978,3.9921,3.9143,3.8782,3.863,3.789,3.7092,3.6428,3.7111,3.6409,3.5213,3.5878,3.5631,3.5004,3.5004,3.5004,3.5004,3.5004,3.5004,3.5004,3.5004,3.6149,3.6889,3.5381,3.6149,3.6889,3.5381,3.5004,3.5004,3.5004,3.7534,3.9508,3.8686,4.1846,4.4751,4.5173,4.5959,4.7026,4.81,4.8246,4.8246,4.8246,4.8246,4.8246,4.8246,4.9076,4.9247,4.832,5.0028,5.0711,4.9686,5.0565,5.0687,4.9662,4.9613,4.9125,4.8124,4.8198,4.8198,4.81,4.8198,4.7758,4.6782,4.6782,4.6855,3.629,3.7946,3.9288,4.1127,4.1562,4.058,3.6816,3.4559,3.2137,2.8375,2.6095,2.4642,2.4319,2.3586,2.296,2.2574,2.3745,2.4331,2.3127,2.4907,2.6413,2.6549,2.6985,0.0,2.9888,3.0162,0.0,3.276,3.2894,3.2966,3.3127,3.5775,3.7301,3.7491,3.8763,3.9446,3.9446,3.9446,3.9105,3.8459,3.9124,3.9105,3.8478,3.9313,3.9693,3.9712,3.9902,3.9978,3.9959,3.9788,3.9313,3.8687,3.8516,3.7947,3.7168,3.6675,3.6276,3.5896,3.5422,3.5156,3.5004,3.5004,3.5004,3.5004,3.5004,3.5004,3.5004,3.5004,3.5269,3.5513,3.5136,3.5249,3.5381,3.5004,3.5004,3.5004,3.5004,3.663,3.796,3.7758,4.0654,4.3284,4.4269,4.5607,4.7026,4.81,4.8246,4.8246,4.8246,4.8246,4.8246,4.8246,4.8442,4.849,4.8271,4.8661,4.8832,4.8588,4.8808,4.8832,4.8588,4.8564,4.8076,4.7026,4.7832,4.7832,4.7002,4.7832,4.8124,4.7905,4.7905,4.832,3.0852,3.2925,3.4886,3.5835,3.7437,3.7907,3.4922,3.3413,3.1529,2.7768,2.4866,2.2892,2.2778,2.1906,2.1606,2.2181,2.335,2.3824,2.3173,2.4144,2.5002,2.5277,2.5319,2.6013,2.7965,2.8104,2.8922,3.083,3.0983,3.0983,3.0983,3.3046,3.5042,3.6722,3.7932,3.9031,3.9978,3.9978,3.975,3.9313,3.9769,3.975,3.9332,3.9769,3.9978,3.9978,3.9978,3.9978,3.9978,3.9978,3.9712,3.9313,3.9313,3.882,3.808,3.8042,3.7263,3.6082,3.6219,3.5669,3.5004,3.5004,3.5004,3.5004,3.5004,3.5004,3.5004,3.5004,3.5004,3.5004,3.5004,3.5004,3.5004,3.5004,3.5004,3.5004,3.5004,3.626,3.7893,3.923,4.1605,4.382,4.5123,4.6412,4.7441,4.7465,4.7929,4.8246,4.8246,4.7807,4.749,4.749,4.749,4.749,4.749,4.7954,4.8246,4.8246,4.8246,4.8246,4.8246,4.8246,4.8002,4.7441,4.7954,4.7978,4.7417,4.7978,4.7978,4.749,4.8002,4.8539,2.5324,2.7676,3.0155,3.0713,3.3253,3.4915,3.3,3.1935,3.0513,2.6867,2.3289,2.0992,2.1682,2.0543,2.0226,2.2015,2.2316,2.24,2.2305,2.2507,2.2952,0.0,2.3462,2.4179,2.6013,2.6155,0.0,2.8922,2.8783,2.8691,2.9234,2.9772,3.1741,3.5173,3.5831,3.717,3.9505,3.9505,3.9656,3.9978,3.9978,3.9978,3.9978,3.9978,3.9978,3.9978,3.9978,3.9978,3.9978,3.9978,3.9978,3.9978,3.9978,3.9541,3.8991,3.956,3.8345,3.6523,3.7073,3.6276,3.5004,3.5004,3.5004,3.5004,3.5004,3.5004,3.5004,3.5004,3.5004,3.5004,3.5004,3.5004,3.5004,3.5004,3.5004,3.5004,3.5004,3.6149,3.7738,4.0019,4.2117,4.3968,4.544,4.6725,4.7336,4.7026,4.7685,4.8246,4.8246,4.7148,4.6367,4.6367,4.6367,4.6367,4.6367,4.7173,4.7685,4.7685,4.7685,4.7685,4.7685,4.7685,4.7685,4.7685,4.788,4.7978,4.7978,4.8149,4.7807,4.6953,4.7832,4.8246,2.1007,2.1961,2.3078,2.6318,2.7568,2.8102,2.8762,2.7788,2.6375,2.5222,2.3324,2.2139,2.2847,2.2691,2.2306,2.1389,0.0,2.2558,1.914,2.0157,2.1325,2.1395,2.1407,2.213,2.4049,2.4335,2.5034,2.6859,2.5589,2.5539,2.7807,2.791,2.9577,3.286,3.3005,3.4438,3.7312,3.7312,3.825,3.9978,3.9978,3.9978,3.9978,3.9978,3.9978,3.9978,3.9978,3.9978,3.9978,3.9978,3.9978,3.9978,3.9978,3.9902,3.9731,3.9105,3.8231,3.7244,3.6599,3.5783,3.5004,3.5004,3.5004,3.5004,3.5004,3.5004,3.5004,3.5004,3.5004,3.5004,3.5004,3.5004,3.5004,3.5004,3.5004,3.5004,3.5004,3.5136,3.542,3.578,3.8448,4.0985,4.2078,4.364,4.5418,4.7655,4.8149,4.8246,4.8246,4.6465,4.5196,4.5196,4.5196,4.5196,4.5196,4.52,4.5297,4.5297,4.5297,4.5297,4.5297,4.5297,4.5297,4.5297,4.6367,4.6855,4.6855,4.7807,4.8173,4.8051,4.8198,4.8246,1.3963,1.5828,1.7903,1.9603,2.1627,2.3465,2.3946,2.4782,2.518,2.3998,2.2895,2.1684,1.991,1.977,1.9888,0.0,0.0,0.0,2.143,2.2154,2.2587,0.0,2.2587,0.0,2.3762,2.3918,2.4192,2.5034,2.3293,2.2817,2.3768,2.5289,2.6924,2.8569,3.0134,3.1733,3.3363,3.4481,3.5591,3.6523,3.6523,3.6523,3.6523,3.6523,3.714,3.825,3.825,3.8879,3.9978,3.9978,3.9978,3.9978,3.9978,3.9978,3.994,3.956,3.8611,3.7434,3.7073,3.6086,3.5004,3.5004,3.5004,3.5004,3.5004,3.5004,3.5004,3.5004,3.5004,3.5004,3.5004,3.5004,3.5004,3.5004,3.5004,3.5004,3.5004,3.5365,3.5555,3.5099,3.7421,4.0192,4.2676,4.3652,4.4652,4.6174,4.6416,4.6416,4.6416,4.5049,4.4073,4.4073,4.3536,4.317,4.317,4.317,4.317,4.317,4.317,4.2809,4.199,4.199,4.1791,4.1388,4.2825,4.3365,4.295,4.44,4.5028,4.5052,4.4697,4.5504,0.7546,1.0135,1.2825,1.3332,1.569,1.8029,1.9077,2.1059,2.247,2.1874,2.1442,2.0367,1.7505,1.7504,0.0,1.7149,1.9282,0.0,2.1563,2.2154,0.0,2.2455,0.0,2.2009,2.3031,2.2743,0.0,2.2455,2.1563,2.0961,2.0961,2.341,2.4983,2.5438,2.7507,2.8956,2.9267,3.1292,3.2699,3.3149,3.3149,3.3149,3.3149,3.3149,3.4077,3.5644,3.5834,3.6857,3.8244,3.8312,3.8726,3.9183,3.9183,3.9505,3.9978,3.9978,3.8934,3.7311,3.6218,3.4787,3.3619,3.3619,3.3619,3.3619,3.4171,3.4304,3.4437,3.4872,3.5004,3.5004,3.5004,3.5004,3.5004,3.5004,3.5004,3.4947,3.4739,3.5175,3.5499,3.5031,3.6429,3.8818,4.2128,4.335,4.4019,4.4721,4.4859,4.4762,4.447,4.3878,4.3268,4.3,4.2243,4.1779,4.1779,4.1779,4.1779,4.1779,4.1779,4.1319,4.028,4.0169,3.9822,3.8906,4.0122,4.037,3.9428,4.0889,4.1509,4.1555,4.1287,4.2488,0.3743,0.512,0.6929,0.884,0.9328,1.0517,1.439,1.5414,1.601,1.7865,1.8305,1.8295,0.0,0.0,1.7453,1.554,1.8471,1.9797,1.6151,1.7186,1.8365,0.0,0.0,0.0,0.0,0.0,0.0,1.8365,1.9954,2.0961,2.0961,2.341,2.4937,2.4976,2.5551,2.5877,2.5917,2.7979,3.0034,3.1936,3.1936,3.1936,3.1936,3.1936,3.2084,3.2117,3.2816,3.3109,3.331,3.3718,3.528,3.7158,3.7158,3.825,3.9978,3.9978,3.8934,3.6934,3.2525,3.0506,2.9888,2.9888,2.9888,3.0162,3.1916,3.2339,3.276,3.4455,3.5004,3.5004,3.5004,3.5004,3.5004,3.5004,3.5004,3.4795,3.4017,3.3884,3.4164,3.4806,3.4546,3.5117,3.8355,4.0965,4.3198,4.4624,4.4859,4.461,4.3585,4.3414,4.3,4.1975,4.1804,4.1779,4.1779,4.1779,4.1779,4.1779,4.1779,4.1755,4.1671,4.1646,4.099,3.968,3.968,3.9003,3.7672,3.8455,3.8893,3.8915,3.9756,4.0237,-0.2305,-0.1021,0.0586,0.1048,0.3163,0.5575,0.7069,0.9313,1.1268,1.2025,1.3206,1.3791,1.2471,1.3242,1.4015,1.3279,1.5524,1.7177,1.7048,1.7629,1.807,1.807,1.7481,1.7629,0.0,0.0,0.0,1.5628,1.6381,1.7066,1.8195,2.0788,2.2825,2.4217,2.4788,2.5282,2.5671,2.6412,2.7149,2.788,2.788,2.788,2.788,2.788,2.8622,2.9942,3.0186,3.103,3.2228,3.2487,3.2902,3.3669,3.3669,3.4118,3.4862,3.4862,3.4076,3.2883,3.0382,2.9264,2.8919,2.8919,2.9242,2.9612,3.0299,3.0557,3.071,3.1272,3.1544,3.1815,3.2894,3.3181,3.3472,3.408,3.4226,3.3998,3.3163,3.341,3.3949,3.4251,3.4364,3.494,3.6172,3.8934,4.1896,4.4483,4.4391,4.3561,4.2463,4.1731,4.1169,4.0885,4.0095,3.9656,3.9656,3.9656,3.9656,3.9656,3.9656,3.8778,3.7037,3.693,3.6134,3.4271,3.5306,3.5393,3.4283,3.4584,3.5309,3.6272,3.4453,3.5633,-0.801,-0.6324,-0.4682,-0.4949,-0.2597,-0.0154,0.0766,0.351,0.6085,0.6791,0.857,0.9622,0.8144,0.9059,0.9969,0.9969,1.1779,1.3725,1.582,1.6116,1.6272,1.7038,1.5837,0.0,0.0,0.0,0.0,1.2386,1.3593,1.4647,1.5612,1.8062,1.9999,2.1471,2.2142,2.2684,2.3086,2.3086,2.3086,2.3086,2.3086,2.3086,2.3098,2.3843,2.4872,2.6177,2.7157,2.8273,2.9593,2.9687,3.0226,3.0773,3.0701,3.1045,3.158,3.1352,2.982,2.7659,2.6915,2.661,2.6478,2.6478,2.6765,2.7144,2.7839,2.811,2.811,2.8769,2.8903,2.9306,3.049,3.1169,3.1703,3.2413,3.2955,3.3125,3.2271,3.2537,3.2935,3.2935,3.36,3.4374,3.529,3.7946,4.1016,4.3725,4.3704,4.3,4.1901,4.0828,4.0126,3.9656,3.8949,3.8485,3.8485,3.8168,3.7997,3.7997,3.7214,3.5985,3.4143,3.365,3.248,3.0411,3.1527,3.1388,3.0059,3.0429,3.1147,3.2069,3.0265,3.1372,-1.3026,-1.0866,-0.8761,-0.885,-0.7993,-0.6613,-0.4251,-0.2037,0.0156,0.2279,0.4393,0.5769,0.5769,0.592,0.592,0.592,0.7555,0.9488,1.161,1.1915,1.2675,1.4657,1.1355,1.0598,0.0,1.0991,0.8579,0.8579,1.19,1.3694,1.3352,1.5538,1.686,1.6764,1.7316,1.7752,1.807,1.807,1.807,1.807,1.807,1.807,1.807,2.01,2.0961,2.0995,2.3594,2.4601,2.464,2.5221,2.6637,2.8491,2.7998,2.9021,3.0766,3.0156,2.6451,2.202,2.202,2.2032,2.2058,2.2058,2.2058,2.247,2.4451,2.4975,2.5352,2.7132,2.7629,2.7629,2.7756,2.89,3.0032,2.9997,3.119,3.213,3.126,3.1189,3.1189,3.1208,3.1929,3.3258,3.5654,3.8281,4.0646,4.2238,4.2891,4.2902,4.1853,4.0885,3.9808,3.8707,3.856,3.8536,3.8536,3.7533,3.6851,3.6851,3.4837,3.3586,3.3586,3.2439,3.0737,2.8474,2.8367,2.7257,2.5121,2.5775,2.6111,2.6159,2.6972,2.7436,-1.7391,-1.55,-1.4286,-1.56,-1.3087,-1.0142,-0.9944,-0.7109,-0.4299,-0.4034,-0.215,-0.0608,-0.0608,0.1825,0.3956,0.3956,0.5614,0.6965,0.7572,0.7723,0.7826,0.8443,0.7546,0.7349,0.8499,0.5867,0.4936,0.6443,0.7256,0.8722,1.1001,1.1843,1.3576,1.6608,1.6891,1.7314,1.807,1.807,1.807,1.807,1.807,1.807,1.807,1.8648,1.8941,1.8952,1.9665,2.0024,2.0034,2.0175,2.1394,2.3077,2.2545,2.3604,2.4838,2.1053,1.8715,1.7371,1.7371,1.8385,1.976,1.976,2.0803,2.2204,2.2736,2.2988,2.3133,2.3634,2.3766,2.4015,2.5467,2.6116,2.6621,2.7355,2.7718,2.79,2.7036,2.7827,2.8824,2.9518,3.1184,3.2907,3.4232,3.7552,3.9909,3.9552,3.955,3.9804,4.0527,4.045,4.0562,4.1135,3.9748,3.8748,3.8748,3.6951,3.5825,3.5825,3.4458,3.3184,3.2127,2.9975,2.805,2.6342,2.4382,2.2527,2.0913,1.8976,1.8769,2.0091,1.9058,2.0253,-2.2812,-2.0229,-1.8469,-1.9596,-1.6859,-1.4017,-1.4856,-1.1515,-0.8537,-0.9046,-0.6629,-0.426,-0.426,-0.2279,-0.0456,0.0,0.152,0.2884,0.4559,0.482,0.5064,0.5877,0.3306,0.1263,0.1366,0.0806,0.1197,0.3195,0.38,0.5318,0.8033,0.8125,0.9408,1.2024,1.2026,1.2327,1.2959,1.3882,1.4336,1.4336,1.526,1.5566,1.5566,1.5566,1.616,1.69,1.7776,1.7609,1.6836,1.7757,1.8805,1.9743,1.9064,1.9508,2.0093,1.6944,1.5781,1.5622,1.5683,1.6443,1.7532,1.7532,1.8362,1.9381,1.9381,1.9913,2.0456,2.0456,2.0974,2.1761,2.2915,2.365,2.4292,2.4878,2.5501,2.5768,2.5367,2.6447,2.7856,2.8765,3.08,3.2783,3.3638,3.6365,3.8103,3.7329,3.8248,3.9322,4.0224,4.037,4.0876,4.2109,4.0831,3.9596,3.8678,3.6569,3.5216,3.4727,3.2747,3.0881,2.952,2.6493,2.4043,2.2337,1.9508,1.7256,1.5498,1.3766,1.3121,1.3644,1.3268,1.251,-2.8025,-2.4572,-2.1658,-2.172,-1.9758,-1.7962,0.0,0.0,-1.2505,-1.3387,-0.9743,-0.6619,-0.6619,-0.6172,-0.5424,-0.3624,-0.3324,-0.2115,0.1661,0.2222,0.2772,0.4508,-0.1112,-0.5214,-0.5218,-0.3761,-0.2203,-0.0649,0.0777,0.2465,0.4176,0.4277,0.4533,0.495,0.5213,0.5474,0.5741,0.771,0.8763,0.8739,1.0707,1.1616,1.1616,1.1616,1.2498,1.425,1.601,1.5673,1.4148,1.6019,1.6983,1.7386,1.6448,1.5806,1.5441,1.5241,1.4808,1.443,1.4664,1.4685,1.4766,1.4892,1.5127,1.5341,1.5466,1.6618,1.7766,1.7766,1.8886,2.0024,2.0024,2.1212,2.2386,2.2386,2.3604,2.4694,2.4694,2.5978,2.7354,2.8403,3.0411,3.2366,3.3372,3.4992,3.6116,3.5508,3.7765,3.9788,4.0358,4.0519,4.1082,4.2261,4.2171,4.0983,3.8613,3.6628,3.5048,3.3989,3.0545,2.7837,2.6266,2.2355,1.9091,1.6381,1.3666,1.109,0.8429,0.8464,0.7762,0.6582,0.8037,0.4313,0.0,0.0,0.0,0.0,0.0,0.0,0.0,-1.9181,-1.5823,-1.7442,-1.3514,-0.981,-0.981,-0.7418,-0.5299,-0.487,-0.487,-0.4584,-0.3721,-0.3564,-0.3525,-0.3033,-0.4413,-0.5235,-0.5208,-0.4942,-0.455,-0.429,-0.3898,-0.3014,-0.1605,-0.148,-0.0827,0.072,0.2323,0.3359,0.367,0.5599,0.6579,0.6592,0.702,0.7163,0.7163,0.7163,0.7444,0.7867,0.8142,0.8142,0.7862,0.8176,1.0248,1.3228,1.2556,1.0436,0.7742,0.744,0.7303,0.7247,0.7287,0.8201,0.9477,1.0819,1.221,1.3627,1.5079,1.5728,1.598,1.598,1.6231,1.6482,1.6482,1.7743,1.8998,1.8998,2.0245,2.1483,2.1483,2.2777,2.4233,2.5701,2.8009,3.0054,3.1563,3.4617,3.632,3.4733,3.4988,3.6563,3.9965,4.1203,4.2162,4.3221,4.3996,4.3537,4.0851,3.7983,3.5843,3.4838,3.0687,2.6743,2.3357,1.8528,1.3098,0.7049,0.5237,0.1926,-0.3062,-0.3129,-0.3361,-0.3888,-0.2215,-0.3994,0.0,0.0,0.0,0.0,0.0,0.0,0.0,0.0,0.0,0.0,0.0,-1.4467,0.0,0.0,-1.0501,-0.9384,-0.8554,-0.7586,-0.661,-0.585,-0.6564,-0.9932,-1.0423,-1.0337,-1.0337,-1.0337,-1.0075,-0.9167,-0.8385,-0.7312,-0.5659,-0.4989,-0.4545,-0.4632,-0.262,-0.1894,-0.2756,0.0432,0.1994,0.1969,0.2947,0.3368,0.3368,0.3368,0.3368,0.3366,0.2389,0.2529,0.337,0.228,0.4321,0.7543,0.5442,0.3903,0.2969,0.2965,0.2808,0.2648,0.282,0.391,0.5243,0.6097,0.7647,0.92,1.012,1.0969,1.1636,1.1669,1.2231,1.2885,1.2937,1.4148,1.5417,1.5417,1.6826,1.8117,1.8117,1.9935,2.1874,2.2704,2.6162,2.9022,2.9356,3.1032,3.2644,3.3518,3.4182,3.626,4.0746,4.1638,4.1784,4.1411,4.3642,4.3571,3.9789,3.9461,3.8955,3.7674,3.4115,3.0415,2.6835,1.8471,1.0801,0.413,-0.2903,-0.8435,-1.2557,-1.2385,-1.2263,-1.2302,-1.414,-1.5165,0.0,0.0,0.0,0.0,0.0,0.0,0.0,0.0,0.0,0.0,0.0,0.0,0.0,0.0,0.0,-1.4363,-1.285,-1.1215,-0.9503,-0.8655,-1.0163,-1.5834,-1.6639,-1.665,-1.644,-1.6481,-1.5731,-1.3979,-1.2601,-1.1381,-0.9898,-0.8821,-0.9057,-1.0657,-0.8471,-0.8003,-0.966,-0.5765,-0.3744,-0.3724,-0.206,0.0,-0.1371,-0.1371,-0.1371,-0.1509,-0.3027,-0.289,-0.151,-0.2772,-0.1391,0.0832,-0.3436,-0.392,-0.2127,-0.23,-0.2398,-0.2334,-0.186,-0.0671,0.0672,0.119,0.2398,0.3776,0.4485,0.5619,0.0,0.7238,0.8333,0.9372,0.9322,1.0535,1.1906,1.1838,1.3509,1.5069,1.5069,1.7427,1.9652,2.0251,2.4086,2.7138,2.739,2.6541,2.6929,3.0133,3.1826,3.4316,3.8772,3.9973,4.0083,3.8956,4.249,4.3305,3.9396,4.0642,4.1499,4.1242,3.7901,3.365,2.8405,1.7712,0.8082,-0.0318,-1.0852,-1.7706,-2.0886,-2.0557,-2.018,-1.9794,-2.3956,-2.4074,0.0,0.0,0.0,0.0,0.0,0.0,0.0,0.0,0.0,0.0,0.0,0.0,0.0,0.0,0.0,0.0,-1.6526,-1.5574,-1.4775,-1.694,-1.8805,-1.9636,-2.0313,-2.0415,-1.9808,-1.9556,-1.8956,-1.7405,-1.668,-1.6258,-1.5723,-1.6149,0.0,0.0,0.0,-1.3327,-1.3573,-1.0756,-0.9419,-0.9318,-0.9178,-0.905,-0.905,-0.905,-0.905,-0.905,-0.9313,-0.9313,-0.8939,-0.7619,-0.6897,-0.7131,-1.3408,-1.3978,-1.1325,-1.2655,-1.2338,-1.0933,-0.9407,0.0,0.0,-0.3316,-0.2334,-0.1618,0.1479,0.2686,0.3225,0.5005,0.5673,0.5797,0.5815,0.7135,0.8385,0.8311,1.0814,1.3105,1.3105,1.4663,1.6951,1.9884,2.0489,2.1793,2.5811,2.2809,2.0236,2.1513,2.2962,2.5182,2.8621,3.3368,3.6606,3.7105,4.1818,0.0,4.3952,4.0719,4.0484,4.4472,3.9328,3.0583,1.8157,1.1561,0.0758,-1.5142,-1.8799,-2.3034,-2.8206,-2.8161,-2.7806,-2.7121,-2.6357,-2.4842,0.0,0.0,0.0,0.0,0.0,0.0,0.0,0.0,0.0,0.0,0.0,0.0,0.0,0.0,0.0,0.0,-2.0725,-2.0714,-2.2263,-2.2843,-2.3379,-2.375,-2.4608,-2.5034,-2.4638,-2.4621,-2.4323,-2.3648,-2.2708,-2.2085,-2.1963,-2.1347,-2.1459,-2.2253,-1.9991,-1.906,-1.9629,-1.7274,-1.6044,-1.6107,-1.6107,-1.6107,-1.6107,-1.6107,-1.6107,-1.6107,-1.6107,-1.6107,-1.5994,-1.5311,-1.3876,-1.2592,0.0,0.0,0.0,0.0,-1.7349,-1.6371,-1.6128,-1.3959,-1.1375,-1.0866,-0.8588,-0.5784,-0.4676,-0.3411,-0.217,-0.1378,-0.0948,-0.0796,-0.0809,0.04,0.2096,0.2982,0.5094,0.7126,0.8202,1.0581,1.2881,1.4023,1.6476,0.0,1.9977,1.9658,2.0449,2.4246,2.6557,2.9384,3.3446,3.6818,3.8425,3.7474,4.2131,4.4559,4.2591,4.3416,0.0,0.0,0.0,3.9269,3.261,2.8594,0.0,0.0,0.0,-2.9621,-3.3204,-3.2002,0.0,0.0,-3.1289,-2.8299,0.0,0.0,0.0,0.0,0.0,0.0,0.0,0.0,0.0,0.0,0.0,0.0,0.0,0.0,0.0,0.0,0.0,-2.5383,-2.9295,-2.9294,-2.8992,-2.9438,-3.066,-3.1102,-3.0585,-3.044,-3.0258,-2.9837,-2.8749,-2.782,-2.7147,-2.669,-2.6672,-2.7021,-2.5542,-2.511,-2.5836,-2.3829,-2.2801,-2.2801,-2.2801,-2.2801,-2.2801,-2.2801,-2.2801,-2.2801,-2.2801,-2.2801,-2.2682,-2.1862,-2.0006,-1.8259,-2.2772,-2.4138,-2.351,-2.3849,-2.3657,-2.3203,-2.283,-1.9971,-1.6717,-1.7976,-1.5059,-1.1128,-1.1128,-0.9651,-0.7798,-0.7065,-0.6758,-0.6584,-0.6055,-0.4923,-0.3527,-0.1819,-0.0132,0.147,0.2699,0.5631,0.8222,0.8364,1.1009,1.2989,1.2494,1.4567,1.8082,2.3181,2.6457,2.9832,3.396,3.7505,3.9084,3.7708,4.2636,4.508,4.2774,4.5219,4.7122,4.7713,4.6387,4.5283,4.4625,3.9464,2.5813,0.2762,-1.8853,-3.2033,0.0,0.0,0.0,0.0,0.0,0.0,0.0,0.0,0.0,0.0,0.0,0.0,0.0,0.0,0.0,0.0,0.0,0.0,0.0,0.0,0.0,0.0,0.0,0.0,-3.5084,-3.6979,-3.7626,-3.7389,-3.9159,-3.9594,-3.7469,-3.7072,-3.6392,-3.5054,-3.4426,-3.3187,-3.0983,-3.2872,-3.3276,-3.1772,-3.1754,-3.1744,-3.1846,-3.0105,-2.9295,-2.9295,-2.9295,-2.9295,-2.9295,-2.9295,-2.9295,-2.9295,-2.9295,-2.9295,-2.9052,-2.601,-2.4605,-2.5269,-3.28,-3.3971,-3.1705,-3.3223,-3.3783,-3.3268,-3.0179,-2.6388,-2.3089,-2.3682,-2.154,-1.8502,-1.7055,-1.5341,-1.3421,-1.0919,-1.0157,-0.976,-0.8068,-0.7676,-0.7225,-0.5492,-0.3634,-0.2481,-0.2819,0.0132,0.3127,0.4516,0.3405,0.2615,0.3745,0.6462,0.9552,1.2644,1.6956,0.0,2.3464,3.1018,3.6385,3.7071,4.2934,4.6837,4.7007,4.4855,4.5377,4.9763,4.5555,4.3775,4.5701,3.3984,2.3484,1.5139,-0.9838,-2.7669,-3.7853,0.0,0.0,0.0,0.0,0.0,0.0,0.0,0.0,0.0,0.0,0.0,0.0,0.0,0.0,0.0,0.0,0.0,0.0,0.0,0.0,0.0,0.0,0.0,0.0,0.0,-4.0324,-4.0029,-4.1839,-4.2131,-3.9802,-3.9409,-3.8686,-3.7307,-3.7758,-3.7801,-3.7028,-3.778,-3.8095,-3.7827,-3.7083,-3.6862,-3.7163,-3.5763,-3.5106,-3.5106,-3.5106,-3.5106,-3.5106,-3.5106,-3.5106,-3.5106,-3.5106,-3.5106,-3.5003,-3.3936,-3.4482,-3.5985,-3.612,-3.5586,-3.467,-3.4317,-3.4719,-3.5252,-3.3555,-3.2969,-3.263,-3.0352,-2.6658,-2.2749,-2.0634,-1.8559,-1.6457,-1.4631,-1.4631,-1.4892,-1.3306,-1.3664,-1.3714,-1.0955,-0.9784,-0.8749,-0.6716,-0.446,-0.2424,-0.0788,0.104,0.2507,0.3382,0.8855,1.4225,1.7202,2.2526,2.7399,3.0389,3.6057,4.0392,4.1853,4.5179,4.7408,4.7831,4.7852,4.8014,4.8335,4.644,4.417,4.1609,3.6068,2.9449,2.1729,0.7439,-0.5614,-1.7032,0.0,0.0,0.0,0.0,0.0,0.0,0.0,0.0,0.0,0.0,0.0,0.0,0.0,0.0,0.0,0.0,0.0,0.0,0.0,0.0,0.0,0.0,0.0,0.0,0.0,0.0,-4.4645,-4.624,0.0,-4.2535,-4.2597,-4.1924,-3.9709,-4.0631,-4.1227,-4.1093,-4.1154,-4.1582,-4.2229,-4.1319,-4.096,-4.1307,-4.0092,-3.9579,-3.9979,-3.9979,-4.0211,-4.0507,-4.0507,-4.0507,-4.0507,-4.0507,-4.0507,-4.06,-4.181,-4.268,-4.3065,-4.002,-3.8338,-3.7392,-3.6198,-3.6515,-3.7509,-3.6562,-3.7626,-3.8856,-3.5201,-3.0486,-2.5855,-2.3595,-2.2043,-2.0678,-1.8994,-1.9829,-2.0749,-1.8287,-1.8661,-1.8915,-1.618,-1.5516,-1.4732,-1.213,-0.9796,-0.7619,-0.5979,-0.2345,0.0888,0.1922,0.8894,1.5374,1.8424,2.5168,3.1234,3.4663,3.9581,4.3405,4.4789,4.6667,4.8097,4.8962,5.0144,5.0033,4.8093,4.7019,4.3807,3.7906,3.506,3.017,2.2857,1.5368,0.6246,0.0,0.0,0.0,0.0,0.0,0.0,0.0,0.0,0.0,0.0,0.0,0.0,0.0,0.0,0.0,0.0,0.0,0.0,0.0,0.0,0.0,0.0,0.0,0.0,0.0,0.0,0.0,-5.0788,-5.2286,0.0,0.0,0.0,0.0,-4.2016,-4.2783,-4.3275,-4.2842,-4.327,-4.3909,-4.4912,-4.4301,-4.3973,-4.4123,-4.2978,-4.2912,-4.3897,-4.3984,-4.45,-4.5501,-4.5501,-4.5501,-4.5583,-4.5583,-4.5554,-4.5769,-4.8726,-4.8557,-4.6301,-4.4329,-4.2029,-3.9796,-3.8775,-3.9189,-4.0173,-3.9189,-4.0286,-4.1486,-3.7705,-3.28,-2.8014,-2.5984,-2.5546,0.0,0.0,-2.5155,-2.6433,-2.2761,-2.2444,-2.2607,-2.105,-2.0581,-2.0142,-1.882,-1.5594,-1.2408,-1.0659,-0.6302,-0.2306,-0.0771,0.0,1.2735,1.6079,2.4342,3.152,3.5443,4.1047,4.4968,4.5669,4.7328,4.8979,5.0416,5.1404,5.1116,4.8985,4.687,4.2323,3.4859,3.0859,2.5512,1.8668,1.3861,0.0,0.0,0.0,0.0,0.0,0.0,0.0,0.0,0.0,0.0,0.0,0.0,0.0,0.0,0.0,0.0,0.0,0.0,0.0,0.0,0.0,0.0,0.0,0.0,0.0,0.0,-4.7517,-5.2041,-5.2493,-5.2083,-5.0582,0.0,0.0,0.0,0.0,0.0,0.0,-4.1998,-4.2083,-4.3103,-4.5361,-4.4374,-4.4774,-4.6808,-4.6303,-4.6241,-4.6486,-4.7259,-4.7776,-4.8008,-4.8008,-4.8372,-4.8883,-4.8883,-4.919,-4.9503,-4.7681,-4.7006,-4.6634,-4.2665,-3.9939,-3.8055,-3.7361,-3.7823,-3.8911,-3.9202,-3.9903,-3.9747,-3.4771,-3.1897,-2.9714,-2.57,0.0,0.0,0.0,0.0,-2.5817,-2.5167,-2.6159,-2.7223,-2.7188,-2.6342,-2.4812,-2.2059,-1.9017,-1.5553,-1.1164,-0.4113,0.0452,-0.1415,0.431,0.0,1.6311,2.3104,2.9591,3.5278,4.1047,4.511,4.6129,4.7454,4.8907,5.0543,5.0308,4.9382,4.7616,4.3429,3.7874,3.0758,2.6296,1.9742,1.0781,0.0,0.0,0.0,0.0,0.0,0.0,0.0,0.0,0.0,0.0,0.0,0.0,0.0,0.0,0.0,0.0,0.0,0.0,0.0,0.0,0.0,0.0,0.0,0.0,0.0,0.0,0.0,-4.4188,-5.0496,-5.1486,-5.0255,-4.7982,0.0,0.0,0.0,0.0,0.0,0.0,0.0,0.0,0.0,-4.5386,-4.4264,-4.4566,-4.6712,-4.6591,-4.7071,-4.8084,-4.8725,-4.9469,-5.0259,-5.0613,-5.1025,-5.1359,-5.0478,-5.0199,-5.0358,-4.8793,-4.6833,-4.4422,0.0,0.0,0.0,0.0,-3.3655,-3.5141,-3.5858,-3.6244,-3.5763,-3.2797,0.0,0.0,0.0,0.0,0.0,0.0,0.0,-2.6946,-2.7668,-2.9072,-3.0445,-3.1333,-3.0006,-2.7348,-2.3389,-2.1205,-1.8088,-1.1318,-0.4046,0.0802,0.0514,0.5916,0.0,0.0,0.0,2.9132,3.3764,4.0357,4.5116,4.6328,4.799,4.9763,5.1614,5.0764,4.9286,4.7299,4.159,3.4853,2.7192,2.1142,1.4425,0.0,0.0,0.0,0.0,0.0,0.0,0.0,0.0,0.0,0.0,0.0,0.0,0.0,0.0,0.0,0.0,0.0,0.0,0.0,0.0,0.0,0.0,0.0,0.0,0.0,0.0,0.0,0.0,0.0,-4.6108,-4.8907,0.0,0.0,0.0,0.0,0.0,0.0,0.0,0.0,0.0,0.0,0.0,0.0,0.0,-4.3558,-4.521,-4.518,-4.614,-4.8008,-4.8337,-4.9247,-5.0956,-5.1597,-5.2036,-5.2064,-5.0028,0.0,-4.9288,-4.9704,0.0,0.0,0.0,0.0,0.0,0.0,0.0,0.0,0.0,0.0,0.0,0.0,0.0,0.0,0.0,0.0,0.0,0.0,0.0,0.0,0.0,0.0,-3.1699,-3.3243,-3.1609,-2.8363,-2.3013,-2.1313,-1.8311,-1.034,-0.4176,0.0536,0.0,0.0,0.0,0.0,0.0,0.0,3.1994,3.9549,4.5142,4.6438,4.8788,5.1025,5.2795,5.1748,5.0005,4.7674,4.0814,3.2883,2.4073,1.7385,0.0,0.0,0.0,0.0,0.0,0.0,0.0,0.0,0.0,0.0,0.0,0.0,0.0,0.0,0.0,0.0,0.0,0.0,0.0,0.0,0.0,0.0,0.0,0.0,0.0,0.0,0.0,0.0,0.0,0.0,0.0,0.0,0.0,0.0,0.0,0.0,0.0,0.0,0.0,0.0,0.0,0.0,0.0,0.0,0.0,0.0,0.0,0.0,0.0,0.0,-4.4686,-4.5455,-4.5483,-4.5955,-4.6636,-4.7387,-4.5591,-4.5884,-4.7433,-4.4339,0.0,0.0,0.0,0.0,0.0,0.0,0.0,0.0,0.0,0.0,0.0,0.0,0.0,0.0,0.0,0.0,0.0,0.0,0.0,0.0,0.0,0.0,-2.817,-2.9697,-3.0095,-2.8163,-2.1158,0.0,0.0,0.0,0.0,0.0,0.0,0.0,0.0,0.0,0.0,0.0,3.2443,4.0041,4.5612,4.7264,4.9558,5.1326,5.2165,5.1055,4.9672,4.8206,4.0094,3.1255,0.0,0.0,0.0,0.0,0.0,0.0,0.0,0.0,0.0,0.0,0.0,0.0,0.0,0.0,0.0,0.0,0.0,0.0,0.0,0.0,0.0,0.0,0.0,0.0,0.0,0.0,0.0,0.0,0.0,0.0,0.0,0.0,0.0,0.0,0.0,0.0,0.0,0.0,0.0,0.0,0.0,0.0,0.0,0.0,0.0,0.0,0.0,0.0,0.0,0.0,0.0,0.0,0.0,0.0,0.0,0.0,0.0,0.0,-4.1288,-4.0996,0.0,0.0,0.0,0.0,0.0,0.0,0.0,0.0,0.0,0.0,0.0,0.0,0.0,0.0,0.0,0.0,0.0,0.0,0.0,0.0,0.0,0.0,0.0,0.0,0.0,0.0,0.0,0.0,0.0,0.0,0.0,0.0,0.0,0.0,0.0,0.0,0.0,0.0,0.0,0.0,2.9828,3.7856,4.4245,4.7203,5.0062,5.1803,5.1991,5.1682,4.9196,4.3874,3.965,0.0,0.0,0.0,0.0,0.0,0.0,0.0,0.0,0.0,0.0,0.0,0.0,0.0,0.0,0.0,0.0,0.0,0.0,0.0,0.0,0.0,0.0,0.0,0.0,0.0,0.0,0.0,0.0,0.0,0.0,0.0,0.0,0.0,0.0,0.0,0.0,0.0,0.0,0.0,0.0,0.0,0.0,0.0,0.0,0.0,0.0,0.0,0.0,0.0,0.0,0.0,0.0,0.0,0.0,0.0,0.0,0.0,0.0,0.0,-3.4634,-3.3861,0.0,0.0,0.0,0.0,0.0,0.0,0.0,0.0,0.0,0.0,0.0,0.0,0.0,0.0,0.0,0.0,0.0,0.0,0.0,0.0,0.0,0.0,0.0,0.0,0.0,0.0,0.0,0.0,0.0,0.0,0.0,0.0,0.0,0.0,0.0,0.0,0.0,0.0,0.0,0.0,2.7478,3.5818,4.2971,4.7167,5.0588,5.2334,5.1683,5.24,4.892,3.9692,3.8879,0.0,0.0,0.0,0.0,0.0,0.0,0.0,0.0,0.0,0.0,0.0,0.0,0.0,0.0,0.0,0.0,0.0,0.0,0.0,0.0,0.0,0.0,0.0,0.0,0.0,0.0,0.0,0.0,0.0,0.0,0.0,0.0,0.0,0.0,0.0,0.0,0.0,0.0,0.0,0.0,0.0,0.0,0.0,0.0,0.0,0.0,0.0,0.0,0.0,0.0,0.0,0.0,0.0,0.0,0.0,0.0,0.0,0.0,0.0,0.0,0.0,0.0,0.0,0.0,0.0,0.0,0.0,0.0,0.0,0.0,0.0,0.0,0.0,0.0,0.0,0.0,0.0,0.0,0.0,0.0,0.0,0.0,0.0,0.0,0.0,0.0,0.0,0.0,0.0,0.0,0.0,0.0,0.0,0.0,0.0,0.0,0.0,0.0,0.0,0.0,0.0,2.8,3.6334,4.3513,4.7683,5.1363,5.2786,5.0981,5.228,4.907,3.934,0.0,0.0,0.0,0.0,0.0,0.0,0.0,0.0,0.0,0.0,0.0,0.0,0.0,0.0,0.0,0.0,0.0,0.0,0.0,0.0,0.0,0.0,0.0,0.0,0.0,0.0,0.0,0.0,0.0,0.0,0.0,0.0,0.0,0.0,0.0,0.0,0.0,0.0,0.0,0.0,0.0,0.0,0.0,0.0,0.0,0.0,0.0,0.0,0.0,0.0,0.0,0.0,0.0,0.0,0.0,0.0,0.0,0.0,0.0,0.0,0.0,0.0,0.0,0.0,0.0,0.0,0.0,0.0,0.0,0.0,0.0,0.0,0.0,0.0,0.0,0.0,0.0,0.0,0.0,0.0,0.0,0.0,0.0,0.0,0.0,0.0,0.0,0.0,0.0,0.0,0.0,0.0,0.0,0.0,0.0,0.0,0.0,0.0,0.0,0.0,0.0,0.0,2.6638,3.5158,4.2335,4.6285,5.0644,5.2782,5.1443,5.2841,4.8403,3.5649,0.0,0.0,0.0,0.0,0.0,0.0,0.0,0.0,0.0,0.0,0.0,0.0,0.0,0.0,0.0,0.0,0.0,0.0,0.0,0.0,0.0,0.0,0.0,0.0,0.0,0.0,0.0,0.0,0.0,0.0,0.0,0.0,0.0,0.0,0.0,0.0,0.0,0.0,0.0,0.0,0.0,0.0,0.0,0.0,0.0,0.0,0.0,0.0,0.0,0.0,0.0,0.0,0.0,0.0,0.0,0.0,0.0,0.0,0.0,0.0,0.0,0.0,0.0,0.0,0.0,0.0,0.0,0.0,0.0,0.0,0.0,0.0,0.0,0.0,0.0,0.0,0.0,0.0,0.0,0.0,0.0,0.0,0.0,0.0,0.0,0.0,0.0,0.0,0.0,0.0,0.0,0.0,0.0,0.0,0.0,0.0,0.0,0.0,0.0,0.0,0.0,0.0,2.6358,3.463,4.1739,4.5972,5.0019,5.215,5.1412,5.0798,4.5049,3.2398,0.0,0.0,0.0,0.0,0.0,0.0,0.0,0.0,0.0,0.0,0.0,0.0,0.0,0.0,0.0,0.0,0.0,0.0,0.0,0.0,0.0,0.0,0.0,0.0,0.0,0.0,0.0,0.0,0.0,0.0,0.0,0.0,0.0,0.0,0.0,0.0,0.0,0.0,0.0,0.0,0.0,0.0,0.0,0.0,0.0,0.0,0.0,0.0,0.0,0.0,0.0,0.0,0.0,0.0,0.0,0.0,0.0,0.0,0.0,0.0,0.0,0.0,0.0,0.0,0.0,0.0,0.0,0.0,0.0,0.0,0.0,0.0,0.0,0.0,0.0,0.0,0.0,0.0,0.0,0.0,0.0,0.0,0.0,0.0,0.0,0.0,0.0,0.0,0.0,0.0,0.0,0.0,0.0,0.0,0.0,0.0,0.0,0.0,0.0,0.0,0.0,0.0,2.7868,3.5427,4.2281,4.7616,4.9852,5.0835,5.0556,4.5015,3.8252,0.0,0.0,0.0,0.0,0.0,0.0,0.0,0.0,0.0,0.0,0.0,0.0,0.0,0.0,0.0,0.0,0.0,0.0,0.0,0.0,0.0,0.0,0.0,0.0,0.0,0.0,0.0,0.0,0.0,0.0,0.0,0.0,0.0,0.0,0.0,0.0,0.0,0.0,0.0,0.0,0.0,0.0,0.0,0.0,0.0,0.0,0.0,0.0,0.0,0.0,0.0,0.0,0.0,0.0,0.0,0.0,0.0,0.0,0.0,0.0,0.0,0.0,0.0,0.0,0.0,0.0,0.0,0.0,0.0,0.0,0.0,0.0,0.0,0.0,0.0,0.0,0.0,0.0,0.0,0.0,0.0,0.0,0.0,0.0,0.0,0.0,0.0,0.0,0.0,0.0,0.0,0.0,0.0,0.0,0.0,0.0,0.0,0.0,0.0,0.0,0.0,0.0,0.0,2.338,3.1445,3.8688,4.395,4.8249,5.0533,4.9937,4.8082,4.2151,3.0803,0.0,0.0,0.0,0.0,0.0,0.0,0.0,0.0,0.0,0.0,0.0,0.0,0.0,0.0,0.0,0.0,0.0,0.0,0.0,0.0,0.0,0.0,0.0,0.0,0.0,0.0,0.0,0.0,0.0,0.0,0.0,0.0,0.0,0.0,0.0,0.0,0.0,0.0,0.0,0.0,0.0,0.0,0.0,0.0,0.0,0.0,0.0,0.0,0.0,0.0,0.0,0.0,0.0,0.0,0.0,0.0,0.0,0.0,0.0,0.0,0.0,0.0,0.0,0.0,0.0,0.0,0.0,0.0,0.0,0.0,0.0,0.0,0.0,0.0,0.0,0.0,0.0,0.0,0.0,0.0,0.0,0.0,0.0,0.0,0.0,0.0,0.0,0.0,0.0,0.0,0.0,0.0,0.0,0.0,0.0,0.0,0.0,0.0,0.0,0.0,0.0,0.0,0.0,3.0847,3.829,0.0,4.7349,4.9645,4.9212,4.6213,4.0105,3.0315,0.0,0.0,0.0,0.0,0.0,0.0,0.0,0.0,0.0,0.0,0.0,0.0,0.0,0.0,0.0,0.0,0.0,0.0,0.0,0.0,0.0,0.0,0.0,0.0,0.0,0.0,0.0,0.0,0.0,0.0,0.0,0.0,0.0,0.0,0.0,0.0,0.0,0.0,0.0,0.0,0.0,0.0,0.0,0.0,0.0,0.0,0.0,0.0,0.0,0.0,0.0,0.0,0.0,0.0,0.0,0.0,0.0,0.0,0.0,0.0,0.0,0.0,0.0,0.0,0.0,0.0,0.0,0.0,0.0,0.0,0.0,0.0,0.0,0.0,0.0,0.0,0.0,0.0,0.0,0.0,0.0,0.0,0.0,0.0,0.0,0.0,0.0,0.0,0.0,0.0,0.0,0.0,0.0,0.0,0.0,0.0,0.0,0.0,0.0,0.0,0.0,0.0,0.0,3.2393,4.0094,4.453,4.6921,4.8253,4.8342,4.0826,3.4039,2.9109,2.4071,0.0,0.0,0.0,0.0,0.0,0.0,0.0,0.0,0.0,0.0,0.0,0.0,0.0,0.0,0.0,0.0,0.0,0.0,0.0,0.0,0.0,0.0,0.0,0.0,0.0,0.0,0.0,0.0,0.0,0.0,0.0,0.0,0.0,0.0,0.0,0.0,0.0,0.0,0.0,0.0,0.0,0.0,0.0,0.0,0.0,0.0,0.0,0.0,0.0,0.0,0.0,0.0,0.0,0.0,0.0,0.0,0.0,0.0,0.0,0.0,0.0,0.0,0.0,0.0,0.0,0.0,0.0,0.0,0.0,0.0,0.0,0.0,0.0,0.0,0.0,0.0,0.0,0.0,0.0,0.0,0.0,0.0,0.0,0.0,0.0,0.0,0.0,0.0,0.0,0.0,0.0,0.0,0.0,0.0,0.0,0.0,0.0,0.0,0.0,0.0,0.0,0.0,2.7774,3.5977,4.1573,4.5784,4.7629,4.6177,4.3525,3.7721,2.7825,2.6644,0.0,0.0,0.0,0.0,0.0,0.0,0.0,0.0,0.0,0.0,0.0,0.0,0.0,0.0,0.0,0.0,0.0,0.0,0.0,0.0,0.0,0.0,0.0,0.0,0.0,0.0,0.0,0.0,0.0,0.0,0.0,0.0,0.0,0.0,0.0,0.0,0.0,0.0,0.0,0.0,0.0,0.0,0.0,0.0,0.0,0.0,0.0,0.0,0.0,0.0,0.0,0.0,0.0,0.0,0.0,0.0,0.0,0.0,0.0,0.0,0.0,0.0,0.0,0.0,0.0,0.0,0.0,0.0,0.0,0.0,0.0,0.0,0.0,0.0,0.0,0.0,0.0,0.0,0.0,0.0,0.0,0.0,0.0,0.0,0.0,0.0,0.0,0.0,0.0,0.0,0.0,0.0,0.0,0.0,0.0,0.0,0.0,0.0,0.0,0.0,0.0,0.0,2.0318,2.8985,3.9455,4.4719,4.6905,4.5388,4.3878,3.8592,2.8338,2.8835,0.0,0.0,0.0,0.0,0.0,0.0,0.0,0.0,0.0,0.0,0.0,0.0,0.0,0.0,0.0,0.0,0.0,0.0,0.0,0.0,0.0,0.0,0.0,0.0,0.0,0.0,0.0,0.0,0.0,0.0,0.0,0.0,0.0,0.0,0.0,0.0,0.0,0.0,0.0,0.0,0.0,0.0,0.0,0.0,0.0,0.0,0.0,0.0,0.0,0.0,0.0,0.0,0.0,0.0,0.0,0.0,0.0,0.0,0.0,0.0,0.0,0.0,0.0,0.0,0.0,0.0,0.0,0.0,0.0,0.0,0.0,0.0,0.0,0.0,0.0,0.0,0.0,0.0,0.0,0.0,0.0,0.0,0.0,0.0,0.0,0.0,0.0,0.0,0.0,0.0,0.0,0.0,0.0,0.0,0.0,0.0,0.0,0.0,0.0,0.0,0.0,0.0,0.0,2.2441,3.6661,4.3276,4.6282,4.5378,4.3408,3.8552,2.9983,0.0,0.0,0.0,0.0,0.0,0.0,0.0,0.0,0.0,0.0,0.0,0.0,0.0,0.0,0.0,0.0,0.0,0.0,0.0,0.0,0.0,0.0,0.0,0.0,0.0,0.0,0.0,0.0,0.0,0.0,0.0,0.0,0.0,0.0,0.0,0.0,0.0,0.0,0.0,0.0,0.0,0.0,0.0,0.0,0.0,0.0,0.0,0.0,0.0,0.0,0.0,0.0,0.0,0.0,0.0,0.0,0.0,0.0,0.0,0.0,0.0,0.0,0.0,0.0,0.0,0.0,0.0,0.0,0.0,0.0,0.0,0.0,0.0,0.0,0.0,0.0,0.0,0.0,0.0,0.0,0.0,0.0,0.0,0.0,0.0,0.0,0.0,0.0,0.0,0.0,0.0,0.0,0.0,0.0,0.0,0.0,0.0,0.0,0.0,0.0,0.0,0.0,0.0,0.0,2.2706,2.9869,4.0252,4.6308,4.5366,4.4557,4.0587,3.2324,0.0,0.0,0.0,0.0,0.0,0.0,0.0,0.0,0.0,0.0,0.0,0.0,0.0,0.0]}],[{"header":{"parameterUnit":"kt","parameterCategory":2,"dx":1,"dy":1,"la1":29.285339999999998,"la2":30.599998999999997,"lo1":-89.70041500000002,"lo2":-87.6738589999976,"nx":112,"ny":82,"refTime":"2022-10-27T06:00:00:Z","depth":0,"parameterNumber":2,"parameterNumberName":"V-component_of_WINDS"},"data":[5.9129,6.0651,0.0,5.6948,5.4595,0.0,4.6334,0.0,4.3761,0.0,0.0,0.0,0.0,0.0,3.9354,3.9259,3.7654,0.0,0.0,4.1245,0.0,0.0,0.0,0.0,0.0,0.0,0.0,0.0,0.0,0.0,0.0,0.0,5.6285,5.6178,5.6934,5.6959,5.6226,5.6568,5.6178,5.5104,5.6592,5.6544,5.5104,5.5885,5.6226,5.6202,5.5494,5.5421,5.5787,5.5787,5.5787,5.586,5.6568,5.6178,5.5372,5.6788,5.6617,5.5812,5.6934,5.73,5.7373,5.7788,5.791,5.7837,5.7447,5.6617,5.547,5.3932,5.3054,5.2297,5.1126,5.1259,5.1577,5.1577,5.1577,5.1577,5.1577,5.1577,5.1773,5.2322,5.2468,5.2468,5.2468,5.2468,5.2224,5.1675,5.1577,5.1577,5.1577,5.1577,5.1577,5.1577,5.1577,5.1577,5.1577,5.1577,5.1577,5.1577,5.1577,5.1748,5.2005,5.1773,5.1919,5.2541,5.3566,5.3908,5.3615,5.4982,5.5104,5.4054,5.3963,5.3444,0.0,0.0,5.802,5.434,0.0,0.0,0.0,0.0,0.0,0.0,0.0,0.0,0.0,4.2817,4.1092,4.0202,3.8725,0.0,0.0,0.0,0.0,0.0,0.0,0.0,0.0,0.0,0.0,0.0,0.0,0.0,0.0,5.6228,5.6363,5.6739,5.7154,5.7178,5.6812,5.7544,5.7349,5.6251,5.7373,5.7325,5.6251,5.6617,5.6788,5.6763,5.6056,5.5738,5.5738,5.5738,5.5738,5.5812,5.6519,5.6129,5.5397,5.7251,5.7447,5.691,5.7666,5.791,5.791,5.791,5.791,5.7837,5.7471,5.6324,5.5006,5.4299,5.3078,5.1907,5.1675,5.1577,5.1577,5.1577,5.1577,5.1577,5.1577,5.1577,5.1773,5.2346,5.2493,5.2493,5.2493,5.2493,5.2371,5.2029,5.198,5.198,5.198,5.198,5.1834,5.1601,5.1577,5.1577,5.1577,5.1895,5.2127,5.2493,5.2175,5.198,5.198,5.1773,5.1748,5.2091,5.3371,5.3932,5.3566,5.5006,5.5128,5.4079,5.2981,5.2688,0.0,0.0,0.0,4.9705,0.0,0.0,0.0,0.0,4.2181,0.0,0.0,0.0,0.0,0.0,4.3374,4.0902,4.0596,0.0,0.0,0.0,0.0,0.0,0.0,0.0,0.0,0.0,0.0,0.0,0.0,0.0,5.6448,5.5787,5.6062,5.7739,5.6837,5.6788,5.7861,5.7886,5.7373,5.63,5.7398,5.7349,5.6324,5.7398,5.791,5.791,5.791,5.791,5.791,5.791,5.791,5.791,5.791,5.7251,5.6422,5.7495,5.791,5.791,5.791,5.791,5.791,5.791,5.791,5.7691,5.6568,5.6202,5.5738,5.364,5.303,5.2785,5.1895,5.165,5.1675,5.1626,5.1626,5.1601,5.1577,5.1577,5.1577,5.1577,5.1577,5.1577,5.1577,5.1577,5.1809,5.2883,5.303,5.3054,5.3078,5.3054,5.2639,5.1724,5.1577,5.1577,5.1577,5.2419,5.3469,5.4518,5.3615,5.303,5.303,5.2005,5.1931,5.2956,5.3005,5.3542,5.4543,5.4567,5.403,5.2956,5.2091,5.2029,5.0243,0.0,0.0,0.0,0.0,0.0,0.0,0.0,0.0,0.0,0.0,0.0,0.0,0.0,0.0,4.3194,0.0,4.3535,0.0,0.0,0.0,0.0,0.0,0.0,0.0,0.0,0.0,0.0,0.0,5.4288,5.66,5.7082,5.7008,5.669,5.7178,5.7203,5.669,5.7495,5.7764,5.7471,5.7764,5.7739,5.7471,5.7764,5.791,5.791,5.791,5.791,5.791,5.791,5.791,5.791,5.791,5.7715,5.7495,5.7788,5.791,5.791,5.791,5.791,5.791,5.791,5.791,5.7691,5.6568,5.569,5.4787,5.342,5.303,5.2981,5.2663,5.3176,5.3566,5.2785,5.259,5.2371,5.1614,5.1577,5.1577,5.1577,5.1577,5.1577,5.1577,5.1577,5.1809,5.2883,5.303,5.3322,5.4079,5.3518,5.2908,5.2639,5.1907,5.1577,5.1577,5.2419,5.3152,5.3444,5.32,5.303,5.303,5.2005,5.1699,5.1993,5.2639,5.2785,5.2322,5.3103,5.2908,5.2017,5.2371,5.2737,0.0,0.0,0.0,0.0,0.0,0.0,4.5328,0.0,4.2175,0.0,0.0,0.0,0.0,0.0,0.0,0.0,4.5444,0.0,0.0,0.0,0.0,0.0,0.0,0.0,0.0,0.0,0.0,0.0,5.3661,5.4185,5.5733,5.6246,5.6446,5.6226,5.6861,5.7129,5.6934,5.7593,5.791,5.791,5.791,5.791,5.791,5.791,5.791,5.791,5.791,5.791,5.791,5.791,5.791,5.791,5.791,5.791,5.791,5.791,5.791,5.791,5.791,5.791,5.791,5.791,5.791,5.7691,5.6568,5.5787,5.5079,5.4006,5.3713,5.3713,5.3713,5.4177,5.4347,5.3298,5.303,5.2737,5.1797,5.1577,5.1577,5.1577,5.1577,5.1577,5.1577,5.1577,5.2091,5.3469,5.3713,5.4079,5.5177,5.4762,5.403,5.3127,5.2468,5.2102,5.2102,5.3078,5.3884,5.4347,5.4811,5.4665,5.3737,5.2249,5.1577,5.1577,5.2189,5.2053,5.1577,5.2517,5.2493,5.1577,5.2078,5.2346,0.0,0.0,0.0,0.0,4.733,0.0,0.0,0.0,0.0,4.3369,0.0,0.0,0.0,0.0,0.0,0.0,0.0,0.0,0.0,0.0,0.0,0.0,0.0,0.0,0.0,5.1539,5.144,5.4225,5.281,5.2688,5.4713,5.4811,5.5299,5.6397,5.6422,5.691,5.7886,5.791,5.791,5.791,5.791,5.791,5.791,5.791,5.791,5.791,5.791,5.791,5.791,5.791,5.791,5.791,5.791,5.791,5.791,5.791,5.791,5.791,5.791,5.791,5.791,5.791,5.791,5.7715,5.6715,5.6324,5.5982,5.4787,5.464,5.4811,5.4811,5.4909,5.4738,5.3664,5.3298,5.2908,5.1993,5.165,5.1577,5.1577,5.1577,5.1577,5.1577,5.1577,5.2127,5.4152,5.4445,5.4884,5.608,5.6129,5.5372,5.3591,5.3298,5.32,5.32,5.4201,5.5226,5.6178,5.73,5.6983,5.4909,5.2981,5.1993,5.1614,5.1626,5.1577,5.1577,5.2395,5.2346,5.1577,5.1699,5.1675,0.0,0.0,0.0,0.0,0.0,4.6417,0.0,0.0,0.0,0.0,0.0,0.0,0.0,0.0,0.0,0.0,0.0,0.0,0.0,0.0,0.0,0.0,0.0,0.0,5.9685,5.5648,5.31,5.3363,5.3762,5.4567,5.586,5.5934,5.6446,5.7569,5.7593,5.7691,5.791,5.791,5.791,5.791,5.791,5.791,5.791,5.791,5.791,5.791,5.791,5.791,5.791,5.791,5.791,5.791,5.791,5.791,5.791,5.791,5.791,5.791,5.791,5.791,5.791,5.791,5.791,5.7886,5.7666,5.6959,5.5836,5.3884,5.4591,5.5934,5.5934,5.6592,5.7007,5.5885,5.4957,5.403,5.2956,5.2189,5.1577,5.1577,5.1577,5.1577,5.1577,5.1577,5.1993,5.3152,5.3347,5.403,5.5982,5.547,5.5104,5.5568,5.4835,5.4323,5.4323,5.5299,5.6007,5.6226,5.73,5.73,5.5982,5.5519,5.4494,5.2761,5.1883,5.1577,5.1577,5.1773,5.1773,5.1577,5.2322,5.2273,0.0,0.0,0.0,4.7078,0.0,0.0,0.0,0.0,4.7353,5.1783,5.1699,5.1484,5.4092,5.5175,5.5519,5.5127,5.7049,5.8365,5.7795,0.0,0.0,0.0,0.0,0.0,6.0056,5.7109,5.5015,5.471,5.4851,5.5184,5.5733,5.6024,5.6495,5.7056,5.7617,5.791,5.791,5.791,5.791,5.791,5.791,5.791,5.791,5.791,5.791,5.791,5.791,5.791,5.791,5.791,5.791,5.791,5.791,5.791,5.791,5.791,5.791,5.791,5.791,5.791,5.791,5.791,5.791,5.7813,5.7251,5.63,5.5201,5.4128,5.5397,5.7081,5.7081,5.7495,5.7617,5.6495,5.5812,5.5006,5.3371,5.2615,5.2078,5.1675,5.1577,5.1577,5.1577,5.1577,5.1809,5.2883,5.303,5.381,5.5958,5.5763,5.5641,5.6178,5.5763,5.5421,5.5421,5.5934,5.647,5.7032,5.7593,5.7398,5.6275,5.6226,5.5226,5.3078,5.198,5.1577,5.1577,5.1577,5.1577,5.1577,5.198,5.2091,4.5219,4.5083,4.5833,4.718,0.0,0.0,4.886,4.7822,4.7888,0.0,5.3477,5.3788,5.7185,5.8443,5.896,5.8836,6.0218,6.2084,6.4511,6.4017,6.3324,6.314,6.1172,5.9588,5.9362,5.786,5.6866,5.6866,5.6074,5.5614,5.568,5.6358,5.6883,5.708,5.7968,5.8461,5.8461,5.8036,5.791,5.791,5.791,5.791,5.791,5.791,5.791,5.791,5.791,5.791,5.791,5.791,5.791,5.791,5.791,5.791,5.791,5.791,5.791,5.791,5.791,5.791,5.791,5.791,5.791,5.7739,5.6837,5.5665,5.4689,5.4884,5.608,5.7325,5.752,5.7569,5.7398,5.6715,5.6397,5.569,5.3762,5.3176,5.2785,5.1907,5.1699,5.1577,5.1577,5.1577,5.1871,5.259,5.2712,5.3493,5.5641,5.5909,5.608,5.6519,5.6568,5.6568,5.6568,5.6568,5.6959,5.7861,5.791,5.7495,5.6592,5.6568,5.5543,5.3396,5.2493,5.1993,5.1577,5.2237,5.2579,5.2356,5.1784,5.1577,4.3844,4.4669,4.612,4.7462,4.6822,0.0,5.3397,5.4518,5.607,0.0,6.3459,6.3835,6.5521,6.4911,6.4119,6.361,6.3736,6.461,6.6457,6.6617,6.5753,6.3489,6.2966,6.23,6.1028,5.9566,5.8602,5.8602,5.7096,5.6465,5.6967,5.8162,5.9171,6.0116,6.0269,6.0345,6.0345,5.871,5.791,5.791,5.791,5.791,5.791,5.791,5.791,5.791,5.791,5.791,5.791,5.791,5.791,5.791,5.791,5.791,5.791,5.791,5.791,5.791,5.791,5.791,5.791,5.791,5.791,5.7886,5.7764,5.6275,5.4835,5.5787,5.5543,5.5226,5.6178,5.6422,5.6641,5.752,5.6959,5.5909,5.4713,5.3713,5.3005,5.2883,5.2102,5.1577,5.1577,5.1577,5.1601,5.1724,5.1748,5.2395,5.4543,5.4811,5.5568,5.752,5.7715,5.7715,5.7715,5.7715,5.7788,5.791,5.791,5.7861,5.7715,5.7715,5.669,5.4494,5.4347,5.3347,5.1577,5.5002,5.6243,5.5245,5.2771,5.1577,4.4437,4.4739,4.5137,4.6388,0.0,0.0,5.235,5.3891,5.6247,0.0,6.3983,6.4856,6.7677,6.7735,6.7313,6.7048,6.6475,6.5979,6.5898,6.5263,6.4391,6.3344,6.2558,6.1889,6.1224,6.0685,6.0315,6.0315,5.9566,5.9207,5.9021,5.9979,6.0968,6.2241,6.2267,6.1702,6.0609,5.9935,5.8981,5.791,5.791,5.791,5.791,5.791,5.791,5.791,5.791,5.791,5.791,5.791,5.791,5.791,5.791,5.791,5.791,5.791,5.791,5.791,5.791,5.791,5.791,5.791,5.791,5.7788,5.7129,5.586,5.4738,5.5177,5.4518,5.3957,5.5006,5.5299,5.5592,5.6666,5.6568,5.6104,5.5665,5.4713,5.3786,5.3152,5.2175,5.1577,5.1577,5.1577,5.1577,5.1577,5.1577,5.198,5.3493,5.425,5.5226,5.6763,5.752,5.791,5.791,5.73,5.7203,5.7886,5.73,5.7227,5.7886,5.791,5.7178,5.5592,5.5568,5.4811,5.3298,5.4967,5.5259,5.416,5.2311,5.1577,4.5745,0.0,0.0,0.0,0.0,0.0,0.0,0.0,5.7199,6.2206,6.3489,6.471,6.7881,6.8462,6.8346,6.7997,6.7124,6.6048,6.4769,6.378,6.3053,6.2733,6.186,6.1195,6.1195,6.1195,6.1195,0.0,6.1195,6.1147,6.0955,6.1413,6.2496,6.4016,6.407,6.3494,6.2126,6.1702,6.0779,5.9424,5.8858,5.8734,5.8734,5.8186,5.791,5.791,5.791,5.791,5.791,5.791,5.791,5.791,5.791,5.791,5.791,5.791,5.791,5.791,5.791,5.791,5.791,5.791,5.791,5.7764,5.6934,5.5738,5.464,5.464,5.364,5.2785,5.3542,5.3957,5.4445,5.5519,5.5787,5.5787,5.5787,5.4957,5.4097,5.379,5.2532,5.1686,5.206,5.1819,5.1577,5.1577,5.1577,5.1809,5.2883,5.3981,5.5055,5.6129,5.7251,5.791,5.791,5.6885,5.6592,5.7398,5.669,5.6592,5.7398,5.7739,5.7373,5.6251,5.6226,5.5714,5.464,5.5478,5.5058,5.3444,5.3024,5.2371,0.0,0.0,0.0,5.3947,5.3947,5.4537,5.9936,0.0,6.16,6.2874,6.4187,6.5467,6.6834,6.7066,6.6688,6.5408,6.5205,6.474,6.3431,6.3227,6.2733,6.1399,6.1195,6.1195,6.1195,6.1195,6.1195,6.1195,6.1195,6.152,6.2308,6.2351,6.3497,6.5927,6.6011,6.6011,6.5983,6.4207,6.3218,6.3244,6.1444,6.0609,6.0465,5.871,5.791,5.791,5.791,5.791,5.791,5.791,5.791,5.791,5.791,5.791,5.791,5.791,5.791,5.791,5.791,5.791,5.791,5.791,5.791,5.791,5.7886,5.6348,5.464,5.464,5.3103,5.1626,5.165,5.2297,5.3347,5.4421,5.4689,5.4689,5.4689,5.3835,5.3554,5.5,5.3261,5.206,5.3554,5.2562,5.1577,5.1577,5.1577,5.1809,5.2883,5.3981,5.5055,5.6129,5.7251,5.791,5.791,5.6885,5.6251,5.6275,5.6251,5.6251,5.6275,5.7325,5.7373,5.6251,5.6226,5.5714,5.464,5.7474,5.7423,5.4567,5.5289,5.4783,5.0495,5.1466,5.2423,5.4735,5.6413,5.8084,6.0797,6.2733,6.4143,6.4362,6.554,6.6264,6.5881,6.5059,6.4332,6.3925,6.3838,6.3402,6.2122,6.1948,6.1773,6.1224,6.1195,6.1195,6.1195,6.1195,6.1195,6.1195,6.1195,0.0,6.284,6.373,6.4965,6.663,6.7548,6.7434,6.6143,6.545,6.4615,6.3356,6.2827,6.1844,6.0609,6.008,5.9129,5.791,5.791,5.8586,5.9668,5.8461,5.791,5.791,5.791,5.791,5.791,5.791,5.791,5.791,5.791,5.791,5.791,5.791,5.791,5.791,5.791,5.6373,5.464,5.464,5.3078,5.1577,5.1577,5.1712,5.2224,5.3322,5.3566,5.3762,5.4469,5.3786,5.353,5.5133,5.4695,5.4369,5.539,5.5133,5.44,5.3165,5.3035,5.2819,5.2042,5.2908,5.3981,5.5055,5.6153,5.7105,5.7861,5.6885,5.6226,5.6226,5.5568,5.5494,5.6202,5.6592,5.6983,5.7349,5.7349,5.7178,5.6812,5.7893,5.7127,5.4616,5.4927,5.3988,5.3517,5.4553,5.5387,5.8082,6.0073,6.1803,6.3166,6.4807,6.5726,6.4658,6.5101,6.5437,6.4538,6.3373,6.25,6.25,6.25,6.2238,6.1311,6.1195,6.1195,6.1195,6.1195,6.1195,6.1195,6.1195,6.1195,6.1195,6.1602,6.2529,6.3809,6.5089,6.6397,6.7677,6.8579,6.8449,6.7146,6.7146,6.6567,6.5344,6.4615,6.3796,6.2548,6.1301,6.0345,5.9814,5.9814,6.0226,6.0609,5.9399,5.8436,5.791,5.791,5.791,5.791,5.791,5.791,5.7861,5.7447,5.7569,5.7837,5.7447,5.7569,5.791,5.791,5.6373,5.464,5.464,5.3078,5.1577,5.1577,5.1577,5.1748,5.2297,5.2444,5.2639,5.3347,5.3456,5.3686,5.5163,5.5564,5.5976,5.6798,5.6645,5.6006,5.4907,5.4273,5.3425,5.2431,5.3243,5.4062,5.4518,5.6665,5.805,5.7963,5.745,5.6929,5.6226,5.5226,5.4933,5.5616,5.6031,5.6568,5.73,5.7715,5.791,5.791,5.7495,5.6397,5.4616,5.4225,5.3322,5.6531,5.7754,5.9032,6.3939,6.5183,6.5574,6.7001,6.7335,6.6644,6.412,6.3554,6.3413,6.3193,6.2206,6.1279,6.1308,6.1195,6.1195,6.1195,6.1195,6.1195,6.1195,6.1195,6.1195,6.1195,6.1195,6.1195,6.1195,6.2471,6.3722,6.4943,6.6281,6.759,6.8869,6.8986,6.9015,6.9015,6.9015,6.9015,6.9015,6.7146,6.6143,6.5983,6.2548,6.1985,6.3659,6.3494,6.2408,6.0728,6.0753,5.9521,5.791,5.791,5.791,5.791,5.791,5.7886,5.7666,5.6592,5.6885,5.7569,5.6495,5.6885,5.7739,5.7739,5.6251,5.4543,5.4543,5.3192,5.1552,5.1577,5.1552,5.1552,5.1577,5.1577,5.1577,5.1577,5.2799,5.4326,5.5354,5.6148,5.6929,5.7979,5.7225,5.6622,5.6499,5.5133,5.4043,5.3915,5.4787,5.5221,5.4678,5.8646,6.0343,5.8288,5.8803,5.8455,5.6639,5.5345,5.4758,5.4758,5.5543,5.6129,5.6226,5.7276,5.7813,5.7813,5.6812,5.5738,5.4616,5.3591,5.3054,5.8744,6.2603,6.5621,6.7275,6.8472,6.9183,6.8806,6.8738,6.8258,6.6644,6.5477,6.4521,6.3473,6.3078,6.2436,6.1391,6.1195,6.1195,6.1195,6.1195,6.1195,6.1195,6.1195,6.1195,6.1195,6.1195,6.1195,6.1195,6.2471,6.3344,6.3693,6.5787,6.7183,6.7502,6.8491,6.9015,6.9015,6.9015,6.9015,6.9015,6.8449,6.7564,6.6011,6.5155,6.5745,6.7463,6.4642,6.3106,6.2548,6.1158,5.9521,5.791,5.791,5.791,5.791,5.791,5.7373,5.6617,5.6324,5.5885,5.5421,5.5128,5.5226,5.547,5.547,5.4518,5.3444,5.3444,5.3367,5.306,5.1819,5.2431,5.293,5.1819,5.1577,5.1577,5.1577,5.3786,5.621,5.7734,5.8769,5.9624,6.0278,6.0141,5.9566,5.8456,5.786,5.6744,5.4145,5.5142,5.5845,5.5304,5.7391,5.9341,6.0429,6.0737,6.0689,6.0416,5.8002,5.6589,5.6589,5.4918,5.4591,5.6202,5.6519,5.6666,5.6666,5.7227,5.6495,5.464,5.4347,5.3371,6.0401,6.4807,6.8541,6.9356,7.0181,7.0496,6.9471,6.9244,6.8827,6.7521,6.6644,6.5773,6.4429,6.3734,6.2946,6.1502,6.1195,6.1195,6.1195,6.1195,6.1195,6.1195,6.1195,6.1195,6.1195,6.1195,6.1195,6.1195,6.2471,6.3198,6.3198,6.5089,6.6455,6.7008,6.7735,6.8404,6.9015,6.9015,6.9015,6.9015,6.9015,6.8449,6.7276,6.6435,6.7146,6.8888,6.6754,6.5317,6.4479,6.2548,6.0753,5.8981,5.8186,5.791,5.7861,5.7349,5.6763,5.6104,5.5153,5.4738,5.4543,5.4079,5.425,5.464,5.464,5.3884,5.303,5.303,5.3386,5.3657,5.2799,5.3786,5.4781,5.3915,5.3657,5.3657,5.3657,5.5133,5.6866,5.8574,5.9898,6.0822,6.0913,6.106,6.0941,6.0057,5.9334,5.8218,5.6376,5.6866,5.7176,5.6552,5.8724,6.0268,6.0566,6.1903,6.2467,6.1772,5.8932,5.7385,5.7385,5.4647,5.3591,5.4811,5.5446,5.5693,5.5519,5.6641,5.63,5.464,5.464,5.3981,6.1871,6.5533,6.9394,7.0798,7.1151,7.0833,6.9695,6.9384,6.9091,6.7829,6.7521,6.7148,6.5773,6.4532,6.313,6.1696,6.1391,6.1195,6.1195,6.1195,6.1195,6.1195,6.1195,6.1195,6.1195,6.1195,6.1195,6.1195,6.2471,6.314,6.2965,6.4332,6.5612,6.6717,6.6921,6.7648,6.8986,6.9015,6.9015,6.9015,6.9015,6.9015,6.8888,6.7276,6.7434,6.9015,6.9015,6.7879,6.5983,6.4343,6.2688,6.0897,5.9277,5.8362,5.8016,5.6862,5.6177,5.5543,5.3943,5.3795,5.4054,5.3378,5.3722,5.4201,5.4201,5.3681,5.3084,5.2947,5.3659,5.44,5.3915,5.5258,5.6622,5.6376,5.6744,5.6988,5.6744,5.6866,5.7351,5.8602,6.02,6.1031,6.0625,6.0915,6.1195,6.1195,6.0057,5.9072,5.8955,5.9072,5.8873,5.8149,6.0914,6.2078,6.019,6.2596,6.3547,6.2035,5.9368,5.7802,5.7802,5.5053,5.3444,5.3444,5.4815,5.5238,5.4654,5.5614,5.547,5.4421,5.4567,5.4469,6.3658,6.6659,6.9679,7.2471,7.3184,7.2658,7.0913,7.0496,7.0133,6.9091,6.8859,6.8438,6.7116,6.5871,6.4501,6.3236,6.2027,6.1195,6.1195,6.1195,6.1195,6.1195,6.1195,6.1195,6.1195,6.1195,6.1195,6.1195,6.2471,6.2733,6.1573,6.3838,6.5205,6.5438,6.6455,6.7648,6.8986,6.9015,6.9015,6.9015,6.9015,6.9015,6.9015,6.8605,6.8732,6.9015,6.9015,6.7879,6.6143,6.5717,6.4615,6.2827,6.2548,6.1038,5.8876,5.8672,5.6473,5.3795,5.4641,5.3686,5.2201,5.3388,5.2962,5.2005,5.2005,5.2854,5.3443,5.2089,5.481,5.7351,5.4527,5.613,5.8099,5.6744,5.8456,6.0057,5.872,5.945,6.0057,5.9072,6.02,6.1253,6.1116,6.1199,6.1195,6.1195,6.1054,6.0315,5.9072,6.0057,6.0286,5.888,6.0399,6.178,6.2524,6.3106,6.3682,6.4448,6.1732,6.0118,6.0118,5.7262,5.5799,5.5799,5.5539,5.5342,5.5279,5.5001,5.4347,5.3347,5.4225,5.3688,6.4462,6.6628,6.8801,7.1719,7.2441,7.2277,7.1715,7.1151,7.0159,6.7967,6.8833,6.9363,6.7266,6.6573,6.5674,6.3764,6.2839,6.2108,6.1279,6.1195,6.1195,6.1195,6.1195,6.1195,6.1195,6.1195,6.1195,6.1195,6.2471,6.2646,6.1253,6.3722,6.5118,6.5118,6.6339,6.7648,6.8986,6.9015,6.9015,6.9015,6.9015,6.9015,6.9015,6.9015,6.9015,6.9015,6.9015,6.8449,6.7564,6.6567,6.5584,6.4696,6.2985,6.1466,6.0174,5.8992,5.7308,5.5637,5.5874,5.507,5.4043,5.3915,5.3915,5.3915,5.306,5.3295,5.3915,5.4043,5.5758,5.7351,5.6622,5.8337,5.9942,5.9072,6.0057,6.1054,6.0315,6.0685,6.1054,6.0315,6.0685,6.1195,6.1195,6.1195,6.1195,6.1195,6.1195,6.0941,6.02,6.0799,6.0941,6.02,6.0799,6.1428,6.2151,6.282,6.346,6.4071,6.193,6.0694,6.0694,5.9572,5.8574,5.7713,5.6513,5.5409,5.4528,5.4026,5.3542,5.3054,5.3566,5.3249,6.3465,6.5681,6.7787,7.0038,7.0896,7.1198,7.1238,7.1119,7.0316,6.7742,6.888,6.9692,6.779,6.7057,6.6104,6.409,6.3554,6.2839,6.1391,6.1195,6.1195,6.1195,6.1195,6.1195,6.1195,6.1195,6.1195,6.1195,6.2238,6.2355,6.1224,6.346,6.4827,6.5118,6.6339,6.7648,6.8986,6.9015,6.9015,6.9015,6.9015,6.9015,6.9015,6.9015,6.9015,6.9015,6.9015,6.9015,6.8888,6.7305,6.6557,6.606,6.3616,6.2113,6.1013,5.9176,5.8059,5.7485,5.7068,5.6744,5.6253,5.5258,5.5633,5.613,5.4781,5.4654,5.5133,5.613,5.6866,5.7592,5.8602,6.0057,6.1195,6.1195,6.1195,6.1195,6.1195,6.1195,6.1195,6.1195,6.1195,6.1195,6.1195,6.1195,6.1195,6.1195,6.1195,6.1195,6.1195,6.1195,6.1195,6.1195,6.1195,6.1195,6.1195,6.2209,6.2791,6.2791,6.1484,6.0807,6.0807,6.1061,6.057,5.9026,5.7575,5.613,5.44,5.405,5.3566,5.3209,5.3431,5.3406,5.9215,6.3368,6.744,6.8149,6.9501,7.0113,6.8159,6.9966,7.1905,7.1597,7.0097,6.9137,7.0189,6.7605,6.5276,6.5191,6.412,6.2839,6.1391,6.1195,6.1195,6.1195,6.1195,6.1195,6.1195,6.1195,6.1195,6.1195,6.1311,6.1311,6.1195,6.2616,6.3925,6.5059,6.6339,6.7648,6.8986,6.9015,6.9015,6.9015,6.9015,6.9015,6.9015,6.9015,6.9015,6.9015,6.9015,6.9015,6.9015,6.8859,6.8008,6.6907,6.6639,6.4101,6.0731,6.0508,5.8757,5.6756,5.8127,5.7592,5.6622,5.798,5.7472,5.6376,5.6253,5.723,5.8099,5.6744,5.8456,6.0429,5.9217,6.0057,6.1195,6.1195,6.1195,6.1195,6.1195,6.1195,6.1195,6.1195,6.1195,6.1195,6.1195,6.1195,6.1195,6.1195,6.1195,6.1195,6.1195,6.1195,6.1195,6.1195,6.1195,6.1195,6.1195,6.1395,6.134,6.134,6.1228,6.1199,6.1199,6.1224,6.0615,5.9257,5.8857,5.786,5.613,5.6113,5.529,5.3836,5.4806,5.473,5.6846,6.042,6.3582,6.4432,6.6608,6.8543,6.8371,6.9457,7.0762,7.1398,7.1144,7.0471,6.9134,6.747,6.5835,6.4295,6.3603,6.2824,6.1386,6.1195,6.1195,6.1195,6.1195,6.1195,6.1195,6.1195,6.1195,6.1195,6.2006,6.2122,6.1224,6.3256,6.4216,6.3954,6.5205,6.6136,6.6659,6.7444,6.7822,6.7822,6.8637,6.9015,6.9015,6.9015,6.9015,6.9015,6.9015,6.9015,6.8957,6.8142,6.7502,6.6863,6.5321,6.3688,6.2062,6.1289,6.0224,5.945,6.0057,5.9826,5.9217,5.8955,5.9072,5.9072,5.8218,5.8337,5.8955,5.9217,5.9566,5.9942,6.02,6.0799,6.1195,6.1195,6.1195,6.1195,6.1195,6.1195,6.1195,6.1195,6.1195,6.1195,6.1195,6.1195,6.1195,6.1195,6.1195,6.1195,6.1195,6.1195,6.1195,6.1195,6.1195,6.1195,6.1195,6.1195,6.1195,6.1195,6.1195,6.0818,6.0115,6.0871,6.0934,6.0522,5.9427,5.8574,5.786,5.6866,5.6006,5.541,5.5832,5.5806,5.4262,5.772,6.0765,6.1291,6.3993,6.706,6.9012,6.942,6.9947,7.1728,7.1703,7.0685,6.847,6.708,6.5625,6.3758,6.3264,6.2896,6.204,6.1502,6.1195,6.1195,6.1195,6.1195,6.1195,6.1195,6.1195,6.1195,6.2122,6.2238,6.1224,6.3722,6.4507,6.3256,6.4798,6.567,6.567,6.6572,6.7212,6.7619,6.8549,6.9015,6.9015,6.9015,6.9015,6.9015,6.9015,6.9015,6.8898,6.7561,6.6572,6.5699,6.3896,6.2965,6.2529,6.1515,6.1195,6.1195,6.1195,6.1195,6.1054,5.9942,6.0315,6.1054,5.9942,5.9566,5.9826,6.0941,6.0429,5.9826,6.0941,6.1195,6.1195,6.1195,6.1195,6.1195,6.1195,6.1195,6.1195,6.1195,6.1195,6.1195,6.1195,6.1195,6.1195,6.1195,6.1195,6.1195,6.1195,6.1195,6.1195,6.1195,6.1195,6.1195,6.1195,6.1195,6.1133,6.0726,6.0963,6.0377,5.8283,5.9475,6.0173,6.0173,5.9428,5.8939,5.8955,5.8218,5.7592,5.7109,5.6622,5.6622,5.1075,5.5545,5.9946,5.9294,6.2068,6.5939,6.9696,6.975,7.0034,7.3655,7.1615,6.9196,6.9036,6.6376,6.4145,6.4182,6.3595,6.3195,6.3373,6.2108,6.1195,6.1195,6.1195,6.1195,6.1195,6.1195,6.1195,6.1195,6.1195,6.1195,6.1195,6.3722,6.4507,6.3256,6.567,6.7008,6.7008,6.7008,6.7677,6.8986,6.9015,6.9015,6.9015,6.9015,6.9015,6.9015,6.9015,6.9015,6.8898,6.7561,6.5525,6.3227,6.3227,6.2442,6.1195,6.1195,6.1195,6.1195,6.1195,6.1195,6.1195,6.1195,6.1195,6.1195,6.1195,6.1195,6.1195,6.1195,6.1195,6.1195,6.1195,6.1195,6.1195,6.1195,6.1195,6.1195,6.1195,6.1195,6.1195,6.1195,6.1195,6.1195,6.1195,6.1195,6.1195,6.1195,6.1195,6.1195,6.1195,6.1195,6.1195,6.1195,6.1195,6.1195,6.1195,6.1195,6.0726,5.9388,6.0552,5.9592,5.5782,5.6858,5.7556,5.7556,5.8719,5.9137,5.8955,6.0429,6.0429,5.8837,5.7109,5.723,5.0409,5.4388,5.8514,6.1439,6.3262,6.5355,6.8935,7.2144,7.3538,7.0755,7.123,7.1102,6.7626,6.6273,6.5417,6.4904,6.4659,6.4237,6.3478,6.2946,6.2327,6.1391,6.1195,6.1195,6.1195,6.1195,6.1195,6.1195,6.1195,6.1573,6.2558,6.3373,6.3605,6.3227,6.3983,6.442,6.442,6.442,6.5496,6.7648,6.8579,6.9015,6.9015,6.9015,6.9015,6.9015,6.9015,6.8491,6.7532,6.6252,6.4216,6.1744,5.997,5.9068,5.869,5.869,5.869,5.8807,5.965,5.9941,6.0086,6.0876,6.1195,6.1195,6.1195,6.1195,6.1195,6.1195,6.1195,6.1195,6.1195,6.1195,6.1195,6.1195,6.1195,6.1195,6.1195,6.1195,6.1195,6.1195,6.1195,6.1195,6.1195,6.1195,6.1195,6.1195,6.1195,6.1195,6.1195,6.1195,6.1195,6.1195,6.1195,6.1195,6.1195,6.0464,5.9737,5.9301,5.8923,5.776,5.5666,5.6829,5.7498,5.7498,5.7876,5.804,5.7983,5.9286,5.8649,5.6403,5.756,5.7419,5.0293,5.3546,5.739,6.1785,6.3159,6.4588,6.8975,7.1525,7.2056,6.8833,7.0241,7.0906,6.6943,6.5631,6.5096,6.5147,6.4277,6.3416,6.3316,6.2479,6.1734,6.1274,6.0842,6.0726,6.1137,6.1195,6.1195,6.1195,6.1195,6.186,6.314,6.3663,6.3925,6.3925,6.4391,6.4652,6.4652,6.4652,6.5699,6.7764,6.8113,6.852,6.8986,6.7997,6.7793,6.82,6.7241,6.6339,6.5467,6.4187,6.2442,6.0348,5.8312,5.7498,5.7498,5.7498,5.7498,5.7614,5.837,5.8923,5.9417,6.0261,6.0871,6.1195,6.1195,6.1195,6.1195,6.1195,6.1195,6.1195,6.1195,6.1195,6.1195,6.1195,6.1195,6.1195,6.1195,6.1195,6.1195,6.1195,6.1195,6.1195,6.1195,6.1195,6.1195,6.1195,6.1195,6.1195,6.1195,6.1195,6.0992,6.0581,6.0552,6.0348,5.9883,5.9097,5.8399,5.7934,5.6713,5.5666,5.488,5.5607,5.6247,5.6771,5.6771,5.7032,5.7498,5.8254,5.7494,5.5225,5.6112,5.5721,5.0745,5.316,5.6685,6.1018,6.2141,6.3627,6.9133,6.8472,6.6789,6.7227,6.8334,6.8549,6.637,6.434,6.3479,6.4935,6.2926,6.162,6.2981,6.1112,5.9894,6.0919,6.0021,5.9759,6.0901,6.0905,6.0905,6.0905,6.0905,6.1569,6.2849,6.4216,6.4972,6.4972,6.631,6.7008,6.7008,6.6921,6.7502,6.8724,6.7386,6.7386,6.852,6.599,6.5496,6.6455,6.41,6.3024,6.282,6.154,6.0232,5.8894,5.7701,5.7236,5.7236,5.7236,5.7236,5.7236,5.7323,5.8167,5.9185,5.9272,6.0203,6.1195,6.1195,6.1195,6.1195,6.1195,6.1108,6.1079,6.1166,6.1195,6.1195,6.1195,6.1195,6.1195,6.1195,6.1195,6.1195,6.1195,6.1195,6.1195,6.1195,6.1195,6.1195,6.1195,6.1195,6.1195,6.1195,6.1108,6.0668,5.9417,5.9214,5.8719,5.7585,5.7498,5.6916,5.552,5.427,5.3699,5.3699,5.3699,5.4182,5.5433,5.5462,5.6044,5.7236,5.7323,5.6574,5.4944,5.3692,5.2921,5.2718,5.4767,5.7618,6.3447,6.3423,6.2465,6.4507,6.586,6.5463,6.1149,6.2122,6.3168,6.1446,6.1006,6.1695,6.3872,6.4142,6.3746,6.314,6.2499,6.1484,5.9936,5.9451,5.9084,5.8448,5.8399,5.8399,5.8399,5.8399,5.8923,6.0144,6.2384,6.3634,6.3634,6.5845,6.7008,6.7008,6.6048,6.5699,6.6019,6.471,6.4274,6.4507,6.2907,6.2355,6.2616,6.2006,6.1162,6.0115,5.8894,5.7614,5.6334,5.5026,5.4602,5.4602,5.4602,5.4602,5.4748,5.5695,5.6858,5.8079,5.901,6.0203,6.1195,6.1195,6.1195,6.1195,6.1195,6.0552,5.9999,6.1046,6.1195,6.1195,6.1195,6.1195,6.1195,6.1195,6.1195,6.1195,6.1195,6.1195,6.1195,6.1195,6.1195,6.1195,6.1195,6.1195,6.1195,6.1195,6.0406,5.965,5.933,5.8487,5.7818,5.7527,5.7498,5.6509,5.4211,5.3873,5.3699,5.3699,5.3699,5.3746,5.4066,5.4066,5.4211,5.4602,5.552,5.4745,5.24,5.3839,5.2831,5.15,5.3036,5.4654,5.7241,5.7356,5.7235,5.8589,5.9945,6.024,5.7802,5.8892,6.0054,5.9553,6.0983,6.2189,6.2083,6.1691,6.1177,6.055,5.9765,5.9051,5.8282,5.8365,5.8339,5.8389,5.8795,5.9198,5.9198,5.9198,5.9434,6.0089,6.1429,6.2452,6.3169,6.4536,6.5554,6.6136,6.4885,6.4216,6.4216,6.3518,6.2907,6.2267,6.0406,5.9854,6.0319,5.9156,5.8254,5.7527,5.6887,5.5869,5.4589,5.3891,5.3699,5.3699,5.3699,5.3699,5.3688,5.4415,5.552,5.6742,5.7381,5.8487,5.9563,5.9563,5.9563,5.965,6.0232,5.9854,5.9475,6.0203,6.0842,6.1195,6.1195,6.1195,6.1195,6.1195,6.1195,6.1195,6.1195,6.1195,6.0992,6.0464,6.0901,6.0901,5.9737,6.0028,6.0173,5.9621,5.8923,5.8254,5.7643,5.7003,5.6393,5.5753,5.5695,5.5113,5.3786,5.3699,5.3699,5.3699,5.3699,5.3699,5.3699,5.3699,5.3699,5.3699,5.4328,5.3568,5.156,5.277,5.1807,4.8604,4.9176,4.9119,4.7558,4.8807,5.0837,5.2602,5.3548,5.4426,5.5928,5.6993,5.7917,5.8556,6.1085,6.2308,5.9872,5.8254,5.7421,5.7506,5.6372,5.5863,5.6821,5.7117,5.7722,5.884,5.9703,6.024,6.0427,6.0427,6.0419,6.0472,6.0824,6.1495,6.2579,6.2903,6.3544,6.4448,6.3597,6.3014,6.2787,6.293,6.2174,6.0639,5.8283,5.7643,5.8312,5.6189,5.5287,5.5287,5.5287,5.4619,5.3699,5.3699,5.3699,5.3699,5.3699,5.3699,5.3699,5.3699,5.4473,5.5607,5.5607,5.6451,5.7498,5.7498,5.7498,5.7672,5.8487,5.8719,5.8777,5.8981,5.9999,6.0988,6.0988,6.1162,6.1195,6.1195,6.1195,6.1108,6.1046,6.0988,6.0581,5.9243,5.997,5.997,5.7818,5.837,5.8661,5.7643,5.7323,5.68,5.5724,5.5404,5.4822,5.3786,5.3699,5.3699,5.3699,5.3699,5.3699,5.3699,5.3699,5.3699,5.3699,5.3699,5.3699,5.3699,5.3699,5.3078,5.184,5.184,5.109,4.5865,4.348,4.138,4.1663,4.4315,4.7308,4.9036,5.126,5.3255,5.4347,5.4765,5.4885,5.4992,5.5899,5.6891,5.7625,5.7634,5.7498,5.7387,5.7683,5.7653,5.6833,5.7016,5.73,5.7486,5.6735,5.6643,5.7695,5.7783,5.7788,5.7706,5.9807,6.0678,5.9894,6.1943,6.262,6.1639,6.2658,6.2615,6.1345,6.154,6.0419,5.8021,5.6567,5.5375,5.4444,5.4066,5.3891,5.3891,5.3891,5.3873,5.3699,5.3699,5.3699,5.3699,5.3699,5.3699,5.3699,5.3699,5.4473,5.5607,5.5607,5.6451,5.7498,5.7498,5.7498,5.7323,5.6422,5.616,5.6422,5.7498,5.869,5.9592,5.9592,6.0464,6.1195,6.1195,6.1195,6.0847,5.9824,5.9592,5.9214,5.7992,5.7934,5.7934,5.7556,5.7672,5.7701,5.7527,5.6538,5.5811,5.5607,5.456,5.3804,5.3699,5.3699,5.3699,5.3699,5.3699,5.3699,5.3699,5.3699,5.3699,5.3699,5.3699,5.3699,5.3699,5.3699,5.3572,5.3276,5.3276,5.255,4.2569,3.8893,3.5449,3.5919,3.8774,4.2257,4.4986,4.8278,5.126,5.3211,5.3605,5.3687,5.4173,5.4735,5.5697,5.7187,5.7855,5.8143,5.8112,5.7203,5.6613,5.6739,5.7001,5.7422,5.8021,5.8189,5.8472,5.8966,5.9048,5.872,5.8105,5.922,5.964,5.9183,6.0311,6.0535,5.9962,6.0676,6.0579,5.9975,6.0132,5.9179,5.7382,5.676,5.5901,5.4677,5.4677,5.4636,5.451,5.3865,5.4059,5.451,5.3865,5.3699,5.3699,5.3699,5.3699,5.3699,5.3699,5.4008,5.4502,5.4502,5.4909,5.5404,5.5404,5.5404,5.5258,5.4677,5.5026,5.5724,5.6305,5.7381,5.8487,5.9126,5.9272,5.9417,6.0086,6.0203,5.9854,5.8574,5.8865,5.869,5.68,5.7032,5.7003,5.5709,5.6015,5.6218,5.5462,5.488,5.4502,5.4502,5.395,5.3699,5.3699,5.3699,5.3699,5.3699,5.3699,5.3699,5.3699,5.3699,5.3699,5.3699,5.3699,5.3699,5.3699,5.3699,5.3699,5.3699,5.3699,5.3276,3.9965,0.0,3.204,3.3035,3.5726,3.9026,0.0,4.641,4.9696,5.2265,5.2769,5.2979,5.3571,5.4226,5.5193,5.6721,5.7484,5.7992,5.8357,5.6623,5.5875,5.7308,5.7182,5.7726,5.9433,5.999,6.0366,6.0629,6.0629,6.0289,5.9323,5.9323,5.9199,5.9041,5.9337,5.9425,5.9425,5.9827,5.9809,5.9484,6.0199,5.9529,5.7761,5.8064,5.7433,5.5951,5.5951,5.591,5.5668,5.451,5.4765,5.5668,5.4222,5.3767,5.4059,5.3767,5.3767,5.4059,5.3767,5.3767,5.4059,5.3796,5.3699,5.3699,5.3699,5.3865,5.3962,5.3699,5.4328,5.5113,5.5113,5.6073,5.7294,5.8196,5.7963,5.776,5.8661,5.9097,5.8923,5.773,5.8254,5.8167,5.5985,5.6131,5.5898,5.399,5.4473,5.4764,5.3815,5.3699,5.3699,5.3699,5.3699,5.3699,5.3699,5.3699,5.3699,5.3699,5.3699,5.3699,5.3699,5.3699,5.3699,5.3699,5.3699,5.3699,5.3699,5.3699,5.3699,5.3699,5.3699,5.3699,0.0,3.4802,3.2225,3.6183,3.8165,4.0126,4.3724,4.6871,0.0,5.1587,5.2014,5.2014,5.2078,5.2683,5.3679,5.5123,5.5441,5.5964,5.724,5.6747,5.7075,5.9202,5.7924,5.8086,6.1269,6.0015,5.9515,6.0553,6.0629,6.0629,6.0553,6.0553,5.9977,5.8962,5.9995,6.053,6.053,6.1807,6.1945,6.0742,6.3446,6.2689,5.8972,6.0396,5.9497,5.7053,5.7053,5.6991,5.6898,5.576,5.5943,5.681,5.448,5.4318,5.5172,5.4059,5.4318,5.5172,5.4059,5.4318,5.5048,5.3962,5.3699,5.3699,5.3699,5.4414,5.5048,5.3962,5.3757,5.3815,5.3815,5.4735,5.5753,5.584,5.6713,5.7527,5.7614,5.8516,5.8923,5.773,5.7556,5.7207,5.584,5.4648,5.3903,5.3699,5.3786,5.3688,5.3699,5.3699,5.3699,5.3699,5.3699,5.3699,5.3699,5.3699,5.3699,5.3699,5.3699,5.3699,5.3699,5.3699,5.3699,5.3699,5.3699,5.3699,5.3699,5.3699,5.3699,5.3699,5.3699,5.3699,3.8642,3.5949,3.4387,3.6832,3.9049,4.1256,4.4089,4.7581,5.0537,5.165,5.1883,5.1883,5.1883,5.211,5.3175,5.5664,5.6062,5.683,5.9198,5.9351,5.9187,5.9164,5.8057,5.8349,6.0817,5.9982,5.9628,6.0563,6.0629,6.0629,6.0629,6.0629,6.0476,6.0022,6.0443,6.0629,6.0629,6.1155,6.1185,6.0758,6.1831,6.2011,6.1519,6.2115,6.188,6.1048,6.1048,6.0446,0.0,5.8285,5.7996,5.8105,5.6454,5.6094,5.6454,5.6003,5.6094,5.6454,5.6003,5.5668,5.5421,5.5729,5.5298,5.486,5.5576,5.6094,5.6184,5.5048,5.4222,5.3699,5.3699,5.4538,5.5487,5.5577,5.589,5.6257,5.6336,5.6683,5.6625,5.5317,5.5724,5.5898,5.456,5.4019,5.3699,5.3699,5.3699,5.3699,5.3699,5.3699,5.3699,5.3699,5.3699,5.3699,5.3699,5.3699,5.3699,5.3699,5.3699,5.3699,5.3699,5.3699,5.3699,5.3699,5.3699,5.3699,5.3699,5.3699,5.3699,5.3699,5.3699,5.3699,4.0803,3.8751,3.7433,3.9362,4.1191,4.296,4.5323,4.852,5.1121,5.1748,5.211,5.2302,5.2302,5.2458,5.3437,5.5759,5.6152,5.7172,6.0103,6.0276,5.9904,5.9209,5.9042,5.924,5.9873,5.9863,6.0075,6.064,6.0629,6.0629,6.0629,6.0629,6.0629,6.0629,6.0629,6.0629,6.0629,6.0629,6.0629,6.0629,6.109,6.1649,6.2289,6.3159,6.3455,6.3187,6.3663,6.3223,6.2147,6.0492,5.9934,5.9935,5.7923,5.7422,5.768,5.7248,5.7422,5.768,5.7248,5.6898,5.6543,5.6986,5.6632,5.6124,5.6898,5.7422,5.7508,5.6721,5.5668,5.467,5.4318,5.5048,5.6002,5.6022,5.599,5.6033,5.6052,5.6129,5.6148,5.6075,5.5772,5.5752,5.6107,5.4782,5.3815,5.4153,5.3961,5.3699,5.3699,5.3699,5.3699,5.3699,5.3699,5.3873,5.4182,5.4589,5.4648,5.427,5.4718,5.4748,5.424,5.424,5.4037,5.3699,5.3699,5.3699,5.3699,5.3699,5.3699,5.3699,5.3699,5.3699,4.5182,4.3272,4.1558,4.4286,4.4946,4.5577,4.7888,4.9777,5.1121,5.1748,5.2554,5.3073,5.3073,5.3721,5.4412,5.5058,5.5194,5.6316,5.9415,5.9089,5.8823,5.9606,6.0953,6.0901,5.873,5.9807,6.0629,6.0629,6.0629,6.0629,6.0629,6.0662,6.0662,6.0662,6.0662,6.0662,6.0662,6.0662,6.0662,6.0662,6.2076,6.2043,6.0761,6.3654,6.418,6.2898,6.4345,6.4969,6.4756,6.2198,6.1781,6.2411,5.8642,5.7882,5.8803,5.7594,5.7936,5.872,5.7594,5.7936,5.872,5.7594,5.7161,5.7161,5.7161,5.8021,5.8885,5.8885,5.8021,5.6898,5.5698,5.6305,5.7161,5.7161,5.7161,5.7161,5.7161,5.7254,5.8125,6.0706,5.8155,5.6847,6.0698,5.7086,5.4136,5.5375,5.4444,5.3699,5.3699,5.3699,5.3699,5.3699,5.3728,5.4182,5.5491,5.6771,5.6974,5.5695,5.68,5.6916,5.5666,5.5607,5.4997,5.3728,5.3699,5.3699,5.3699,5.3699,5.3699,5.3699,5.3699,5.3699,4.641,4.6337,4.7047,4.7819,4.8806,4.9656,4.9856,5.1181,5.2236,5.1976,5.2045,5.2395,5.2952,5.3253,5.3801,5.5007,5.5654,5.6915,5.9501,5.9989,6.0458,6.109,6.1593,6.115,5.9359,6.0081,6.0629,6.0629,6.0629,6.0629,6.0629,6.1583,6.2109,6.2109,6.3128,6.3687,6.3687,6.3687,6.3161,6.2142,6.3588,6.4082,6.372,6.5594,6.6745,6.7337,6.7764,6.7369,6.6383,6.5588,6.4297,6.2701,6.1571,6.071,6.0101,5.9754,5.9865,6.0101,5.9754,5.9323,5.8966,5.9483,5.908,5.8555,5.9323,5.9865,5.9944,5.9161,5.8638,5.8105,5.6898,5.7508,5.8221,5.7335,5.7766,5.8189,5.7335,5.652,5.6208,5.6945,5.5532,5.4614,5.5743,5.4723,5.3815,5.4124,5.3932,5.3699,5.3699,5.4415,5.4997,5.4997,5.5811,5.6509,5.6916,5.7294,5.7352,5.6974,5.7294,5.7323,5.6945,5.6916,5.6334,5.5026,5.4997,5.4531,5.3699,5.3699,5.3699,5.3699,5.3699,5.4095,5.0162,5.016,5.0847,5.0192,5.0799,5.1381,5.0661,5.1927,5.3092,5.2508,5.2797,5.3473,5.4202,5.4348,5.4746,5.5933,5.6283,5.7315,5.9982,6.0403,6.108,6.274,6.2584,6.1838,6.0514,6.0824,6.1016,6.0705,6.0629,6.0892,6.1451,6.2273,6.2997,6.3588,6.4476,6.4936,6.4936,6.4936,6.4509,6.3621,6.4509,6.4936,6.5002,6.6416,6.7534,6.8389,6.8981,6.875,6.7863,6.7304,6.6021,6.441,6.3819,6.2734,6.155,6.2142,6.1616,6.0728,6.1287,6.0669,5.9675,6.0443,6.0178,5.9754,6.0443,6.0629,6.0476,5.9754,5.9242,5.8803,5.8638,5.872,5.8803,5.8638,5.9048,5.9435,5.872,5.7248,5.6368,5.74,5.5471,5.4088,5.5676,5.5075,5.456,5.5185,5.5171,5.5171,5.5171,5.584,5.6364,5.6364,5.7469,5.8021,5.7556,5.8428,5.8777,5.8254,5.8719,5.8777,5.8254,5.8225,5.7643,5.6393,5.6364,5.5956,5.5171,5.5171,5.488,5.4386,5.4386,5.4822,5.527,5.4476,5.3388,5.2022,5.1818,5.1849,5.1133,5.254,5.3874,5.3209,5.4159,5.5393,5.6325,5.6488,5.6805,5.7698,5.7323,5.7917,6.0828,6.0722,6.1362,6.4188,0.0,0.0,6.2038,6.1899,6.1613,6.0824,6.0781,6.1342,6.2627,6.2878,6.3555,6.4904,6.5199,6.5331,6.5331,6.5331,6.5265,6.5134,6.5265,6.5265,6.5199,6.658,6.7238,6.7337,6.8652,6.9244,6.9145,6.7797,6.7172,6.6909,6.5627,6.4246,6.3095,6.4279,6.3062,6.0991,6.2142,6.1714,6.0629,6.0629,6.0629,6.0629,6.0629,6.0629,6.0629,6.0629,5.9865,5.9323,6.0366,5.9865,5.9323,6.0366,6.0629,6.0629,6.0629,5.8917,5.8025,6.0433,5.707,5.5018,5.8606,5.7263,5.6044,5.7323,5.7498,5.7498,5.7498,5.7498,5.7498,5.7498,5.8487,5.869,5.7585,5.9621,6.0435,5.9214,6.0261,6.0406,5.9185,5.9126,5.8545,5.7352,5.744,5.744,5.7323,5.744,5.6916,5.5753,5.5753,5.584,5.6963,5.679,5.7164,5.6091,5.5912,5.5598,5.4071,5.4509,5.4831,5.3366,5.3801,5.5023,5.6947,5.7295,5.7917,5.9978,6.0668,6.1375,6.2689,6.323,6.3768,6.4492,6.4352,0.0,6.3014,6.2883,0.0,6.1613,6.1541,6.1675,6.1976,6.3555,6.4608,6.4936,6.7139,6.8323,6.8323,6.8323,6.7731,6.6613,6.7764,6.7731,6.6646,6.8093,6.875,6.8783,6.9112,6.9244,6.9211,6.8915,6.8093,6.7008,6.6712,6.5726,6.4377,6.3523,6.2832,6.2175,6.1353,6.0892,6.0629,6.0629,6.0629,6.0629,6.0629,6.0629,6.0629,6.0629,6.0476,6.0289,6.0553,6.0443,6.0366,6.0629,6.0629,6.0629,6.0629,5.9483,5.8733,5.9269,5.6995,5.5651,5.7433,5.6572,5.6044,5.7323,5.7498,5.7498,5.7498,5.7498,5.7498,5.7498,5.773,5.7789,5.7527,5.7992,5.8196,5.7905,5.8167,5.8196,5.7905,5.7876,5.7294,5.6044,5.7003,5.7003,5.6015,5.7003,5.7352,5.7091,5.7091,5.7585,6.0551,6.0014,5.982,5.9345,5.8483,5.7544,5.6433,5.5884,5.5445,5.4794,5.4881,5.561,5.7458,5.8202,5.8961,6.053,6.1227,6.2062,6.3239,6.3728,6.4293,6.5001,6.5107,6.4792,6.3932,6.3871,6.3463,6.2516,6.2483,6.2483,6.2483,6.4163,6.5559,6.6591,6.8785,6.9695,6.9244,6.9244,6.8849,6.8093,6.8882,6.8849,6.8126,6.8882,6.9244,6.9244,6.9244,6.9244,6.9244,6.9244,6.8783,6.8093,6.8093,6.7238,6.5956,6.589,6.4542,6.2812,6.2734,6.178,6.0629,6.0629,6.0629,6.0629,6.0629,6.0629,6.0629,6.0629,6.0629,6.0629,6.0629,6.0629,6.0629,6.0629,6.0629,6.0629,6.0629,5.9754,5.8912,5.899,5.7528,5.634,5.6474,5.6553,5.6538,5.6567,5.712,5.7498,5.7498,5.6974,5.6596,5.6596,5.6596,5.6596,5.6596,5.7149,5.7498,5.7498,5.7498,5.7498,5.7498,5.7498,5.7207,5.6538,5.7149,5.7178,5.6509,5.7178,5.7178,5.6596,5.7207,5.7847,6.4289,6.3271,6.217,6.1939,6.0613,5.9275,5.8625,5.7612,5.6787,5.6967,5.6925,5.7286,5.8771,5.9661,6.045,6.1317,6.1733,6.2389,6.3872,6.4002,6.4368,0.0,6.5799,6.5539,6.4792,6.4735,0.0,6.3463,6.3526,6.3693,6.378,6.4953,6.6547,6.8661,6.9945,7.0276,6.9471,6.9471,6.9384,6.9244,6.9244,6.9244,6.9244,6.9244,6.9244,6.9244,6.9244,6.9244,6.9244,6.9244,6.9244,6.9244,6.9244,6.8487,6.7534,6.852,6.6416,6.326,6.4213,6.2832,6.0629,6.0629,6.0629,6.0629,6.0629,6.0629,6.0629,6.0629,6.0629,6.0629,6.0629,6.0629,6.0629,6.0629,6.0629,6.0629,6.0629,5.9865,5.9237,5.933,5.8235,5.7042,5.6365,5.6935,5.7169,5.6044,5.6829,5.7498,5.7498,5.6189,5.5258,5.5258,5.5258,5.5258,5.5258,5.6218,5.6829,5.6829,5.6829,5.6829,5.6829,5.6829,5.6829,5.6829,5.7062,5.7178,5.7178,5.7381,5.6974,5.5956,5.7003,5.7498,6.5627,6.5635,6.517,6.393,6.3401,6.275,6.0985,6.0976,6.1022,5.9781,5.9976,6.0828,6.2348,6.2768,6.3429,6.5344,0.0,6.5512,6.6749,6.6449,6.6123,6.634,6.6376,6.6139,6.5627,6.5522,6.5217,6.4446,6.4961,6.5673,6.6313,6.6558,6.7619,6.9672,6.9981,7.0219,7.0544,7.0544,7.0083,6.9244,6.9244,6.9244,6.9244,6.9244,6.9244,6.9244,6.9244,6.9244,6.9244,6.9244,6.9244,6.9244,6.9244,6.9112,6.8816,6.7731,6.6219,6.4509,6.3391,6.1977,6.0629,6.0629,6.0629,6.0629,6.0629,6.0629,6.0629,6.0629,6.0629,6.0629,6.0629,6.0629,6.0629,6.0629,6.0629,6.0629,6.0629,6.0553,6.0432,6.044,5.8642,5.7459,5.845,5.7913,5.7355,5.7299,5.7381,5.7498,5.7498,5.5375,5.3862,5.3862,5.3862,5.3862,5.3862,5.4107,5.4223,5.4223,5.4223,5.4223,5.4223,5.4223,5.4223,5.4223,5.5258,5.584,5.584,5.6974,5.7411,5.7265,5.744,5.7498,6.7129,6.7221,6.6816,6.6179,6.5586,6.491,6.4046,6.2912,6.1934,6.171,6.1237,6.1233,6.267,6.3669,6.4546,0.0,0.0,0.0,6.6449,6.6211,6.6064,0.0,6.6064,0.0,6.5732,6.5715,6.5575,6.5217,6.5778,6.6266,6.6657,6.7191,6.8352,7.027,7.0563,7.1274,7.237,7.1886,7.1385,7.0913,7.0913,7.0913,7.0913,7.0913,7.0592,7.0083,7.0083,6.978,6.9244,6.9244,6.9244,6.9244,6.9244,6.9244,6.9178,6.852,6.6876,6.4838,6.4213,6.2503,6.0629,6.0629,6.0629,6.0629,6.0629,6.0629,6.0629,6.0629,6.0629,6.0629,6.0629,6.0629,6.0629,6.0629,6.0629,6.0629,6.0629,6.1254,6.1583,6.0794,5.9886,5.903,5.8203,5.7666,5.6895,5.5519,5.5317,5.5317,5.5317,5.3688,5.2525,5.2525,5.1885,5.1448,5.1448,5.1448,5.1448,5.1448,5.1448,5.1701,5.2319,5.2319,5.3011,5.4428,5.4323,5.5009,5.6483,5.6321,5.6355,5.6385,5.7727,5.7722,6.7538,6.7813,6.7549,6.7799,6.7292,6.6704,6.653,6.4813,6.3452,6.3981,6.3166,6.2683,6.3659,6.4761,0.0,6.572,6.6155,0.0,6.6366,6.6211,0.0,6.6149,0.0,6.6259,6.5951,6.6051,0.0,6.6149,6.6366,6.6479,6.6479,6.7508,6.8641,6.9889,7.0733,7.1669,7.2895,7.1966,7.1338,7.1088,7.1088,7.1088,7.1088,7.1088,7.0648,6.9956,7.0328,7.0054,6.935,6.9833,6.9864,6.9609,6.9609,6.9471,6.9244,6.9244,6.7435,6.4952,6.5004,6.3409,6.1279,6.1279,6.1279,6.1279,6.1016,6.0941,6.0866,6.0705,6.0629,6.0629,6.0629,6.0629,6.0629,6.0629,6.0629,6.0531,6.0169,6.0925,6.1177,5.9471,5.9739,5.9489,5.7193,5.6751,5.6089,5.4011,5.3699,5.3582,5.3232,5.2292,5.1565,5.1245,5.0343,4.9791,4.9791,4.9791,4.9791,4.9791,4.9791,5.0124,5.0866,5.0954,5.1897,5.4044,5.3243,5.3816,5.6049,5.5512,5.5335,5.5396,5.7616,5.7682,6.5916,6.6928,6.7337,6.83,6.8542,6.8331,6.7699,6.7434,6.7334,6.7259,6.7141,6.7104,0.0,0.0,6.7485,6.7989,6.7174,6.6834,6.7925,6.7671,6.736,0.0,0.0,0.0,0.0,0.0,0.0,6.736,6.6827,6.6479,6.6479,6.7508,6.8051,6.8158,6.9727,7.0618,7.0725,6.9689,6.8663,6.7715,6.7715,6.7715,6.7715,6.7715,6.7645,6.7714,6.9189,6.9806,6.9837,7.1492,7.154,7.0625,7.0625,7.0083,6.9244,6.9244,6.7435,6.4949,6.5235,6.4318,6.3014,6.3014,6.3014,6.2883,6.1969,6.1792,6.1613,6.0899,6.0629,6.0629,6.0629,6.0629,6.0629,6.0629,6.0629,6.0268,5.892,5.8689,5.7999,5.5431,5.693,5.7871,5.5547,5.5361,5.5044,5.3894,5.3699,5.3164,5.1943,5.1739,5.1245,5.0023,4.982,4.9791,4.9791,4.9791,4.9791,4.9791,4.9791,4.9762,4.9882,4.9853,5.0393,5.1479,5.1479,5.1994,5.3059,5.4413,5.5033,5.5064,5.6515,5.7198,6.602,6.685,6.7159,6.8634,6.8987,6.891,6.8697,6.8429,6.8249,6.8197,6.794,6.7785,6.8117,6.8126,6.8126,6.8312,6.7915,6.7634,6.7745,6.7557,6.744,6.744,6.7595,6.7557,0.0,0.0,0.0,6.6371,6.5094,6.425,6.3979,6.494,6.5822,6.6536,6.8106,6.9461,7.0531,7.0176,6.9813,6.9442,6.9442,6.9442,6.9442,6.9442,6.9099,6.8454,6.9011,6.8885,6.8333,6.8882,6.898,6.8651,6.8651,6.8429,6.8053,6.8053,6.6877,6.4886,6.2988,6.2049,6.1666,6.1666,6.2353,6.3144,6.2817,6.265,6.2618,6.2381,6.2244,6.2106,6.1541,6.143,6.1012,5.9628,5.9281,5.8887,5.744,5.7867,5.8213,5.7285,5.863,5.9613,5.8739,5.7451,5.5851,5.3962,5.2903,5.1914,5.0605,4.9733,4.9064,4.8509,4.7784,4.726,4.726,4.726,4.726,4.726,4.726,4.7886,4.915,4.9231,5.0426,5.3026,5.2343,5.297,5.5131,5.5346,5.5157,5.4802,5.6498,5.675,6.4081,6.568,6.696,6.8615,6.9998,7.0806,7.0194,6.9883,6.9553,6.8954,6.8564,6.8463,6.8807,6.8807,6.8758,6.8758,6.8548,6.8224,6.7847,6.7777,6.7779,6.7708,6.7921,0.0,0.0,0.0,0.0,6.5237,6.3948,6.2819,6.2038,6.299,6.3916,6.4638,6.6175,6.7795,6.9502,6.9502,6.9502,6.9502,6.9502,6.9502,6.9538,6.9246,6.8802,6.8194,6.8505,6.8257,6.7654,6.8276,6.8288,6.7918,6.7367,6.6958,6.6582,6.6101,6.5057,6.361,6.1532,6.0837,6.0895,6.0895,6.1556,6.2426,6.2161,6.2039,6.2039,6.1695,6.1632,6.1441,6.082,6.0518,5.9939,5.8475,5.7953,5.7374,5.5895,5.6355,5.7045,5.7045,5.8196,5.9239,5.9318,5.8154,5.6454,5.448,5.2783,5.1245,4.9936,4.8656,4.7609,4.726,4.6417,4.5864,4.5864,4.5486,4.5283,4.5283,4.5144,4.5647,4.6994,4.7394,4.9071,5.2409,5.1701,5.2759,5.5652,5.5753,5.5617,5.5266,5.692,5.7184,5.9993,6.3235,6.6549,6.8375,7.1538,7.3737,7.2085,7.1802,7.1375,6.963,6.9338,6.9428,6.9428,6.9415,6.9415,6.9415,6.8989,6.8596,6.8462,6.8448,6.8388,6.8224,6.8774,6.8856,0.0,6.5678,6.4084,6.4084,6.3435,6.2412,6.0854,6.1743,6.2379,6.2562,6.4065,6.5678,6.744,6.744,6.744,6.744,6.744,6.744,6.744,6.6784,6.6479,6.6587,6.7564,6.8052,6.8159,6.9766,6.9847,6.8783,6.7179,6.5956,6.4867,6.3223,6.1939,6.0911,6.0911,6.0947,6.1019,6.1019,6.1019,6.0909,6.0141,5.9925,5.9725,5.8854,5.8581,5.8581,5.8521,5.7964,5.7386,5.7318,5.6852,5.5932,5.4418,5.4021,5.4021,5.4053,5.5303,5.6461,5.6782,5.7022,5.6721,5.5546,5.3202,5.1129,4.9878,4.8509,4.7232,4.5926,4.5751,4.5722,4.5722,4.473,4.4113,4.4113,4.3601,4.3377,4.3377,4.4242,4.6219,4.9319,4.9381,5.0994,5.418,5.5592,5.6315,5.6418,5.7841,5.8504,5.9667,6.1596,6.3135,6.8248,6.8929,6.8886,7.0756,7.0601,7.0295,7.1033,7.0355,6.9664,6.9664,6.9681,6.9669,6.9669,6.9402,6.9165,6.914,6.9123,6.8691,6.7547,6.7538,6.7102,6.5664,6.3855,6.2715,6.2616,6.1304,6.0154,5.9355,5.9541,6.061,6.2525,6.3039,6.4616,6.744,6.744,6.744,6.744,6.744,6.744,6.744,6.7243,6.7161,6.7197,6.7467,6.7599,6.7635,6.8108,6.7855,6.702,6.5476,6.4415,6.3461,6.0288,5.8907,5.8644,5.8644,5.9209,5.9925,5.9925,6.0415,6.1006,6.081,6.0675,6.066,6.0385,6.0333,6.0194,5.9635,5.9354,5.8754,5.703,5.6516,5.596,5.4524,5.374,5.3643,5.4649,5.5683,5.6711,5.7826,5.755,5.6732,5.545,5.2247,4.9595,4.8512,4.6533,4.4655,4.3347,4.3188,4.3224,4.3224,4.2883,4.2694,4.2694,4.3126,4.3639,4.4422,4.572,4.7147,4.877,4.9441,5.0895,5.3092,5.4338,5.5292,5.5957,5.6958,5.7591,5.6463,5.9167,6.1367,6.5111,6.6383,6.7389,6.989,6.9748,6.9524,7.1106,7.0457,6.9651,6.9651,6.963,6.9665,0.0,6.965,6.9531,6.9556,6.8929,6.815,6.717,6.5825,6.4301,6.259,6.1537,6.0961,6.0965,5.9979,5.9292,5.9024,5.9701,6.1126,6.3334,6.4107,6.5711,6.8258,6.8231,6.8176,6.8176,6.8131,6.81,6.81,6.81,6.7962,6.7782,6.7518,6.7483,6.7524,6.7445,6.7239,6.6652,6.4359,6.3313,6.2771,6.0584,5.8895,5.7798,5.8528,5.8793,5.8715,5.8715,5.9137,5.965,5.965,5.9514,5.941,5.941,5.9229,5.8985,5.8546,5.8171,5.7577,5.6207,5.5635,5.526,5.44,5.3629,5.3511,5.4964,5.5853,5.6782,5.8262,5.7635,5.6226,5.381,5.0757,4.8128,4.6477,4.5033,4.3643,4.2293,4.1369,4.0824,4.0758,4.0793,4.087,4.1386,4.1914,4.27,4.356,4.5201,4.6934,4.8732,4.9524,5.0834,5.2744,5.4203,5.5182,5.5759,5.6903,5.7618,5.1615,5.5844,5.9912,6.0495,6.3633,6.7036,0.0,0.0,6.8304,6.9683,6.9327,6.8742,6.8742,6.8821,6.8922,6.9154,6.9207,6.9217,6.9191,6.7884,6.6838,6.6553,6.3697,6.1131,5.9644,5.9373,5.9375,5.9489,5.9373,5.9441,5.9726,6.1165,6.286,6.4694,6.6235,6.7661,6.9087,6.901,6.8884,6.8696,6.857,6.8499,6.8499,6.8499,6.8266,6.7767,6.7334,6.7218,6.7284,6.7371,6.7487,6.7227,6.4176,6.2811,6.2511,6.2286,6.0516,5.842,5.9926,5.9452,5.814,5.8108,5.7969,5.7755,5.7722,5.748,5.7215,5.7215,5.6855,5.6545,5.6545,5.5988,5.5407,5.5407,5.494,5.45,5.45,5.3858,5.3684,5.4853,5.572,5.6628,5.7802,5.7102,5.5086,5.1423,4.9216,4.7,4.4431,4.4026,4.3292,4.1711,3.967,3.8385,3.8111,3.8096,3.8585,3.9621,4.0351,4.1077,4.1831,4.3874,4.6089,4.8605,4.928,5.0545,5.2479,5.4204,5.5229,5.5611,5.7184,5.8041,0.0,0.0,0.0,0.0,0.0,0.0,0.0,6.373,6.4059,6.5093,6.4973,6.4675,6.4675,6.5107,6.5505,6.5538,6.5538,6.5558,6.5537,6.528,6.4559,6.314,6.1194,5.9833,5.9531,5.9477,5.947,5.9489,5.9478,6.0024,6.1293,6.1676,6.3169,6.6018,6.6513,6.6887,6.7213,6.7385,6.68,6.5463,6.5419,6.5403,6.5403,6.5403,6.5334,6.5246,6.5136,6.5136,6.5208,6.6585,6.7565,6.8052,6.6132,6.4077,6.1934,6.0594,6.0572,6.1229,6.1568,6.1262,6.0693,6.0584,5.935,5.7871,5.7785,5.769,5.7621,5.7621,5.7551,5.7479,5.7479,5.7143,5.6778,5.6778,5.6386,5.5966,5.5966,5.5329,5.4749,5.4495,5.497,5.5352,5.4944,5.4338,5.2846,4.9835,4.9052,4.765,4.4581,4.323,4.1432,3.8238,3.6754,3.5099,3.3228,3.3901,3.4917,3.5919,3.8752,4.0984,4.2355,4.5008,4.6443,4.647,4.7817,4.9014,5.0059,5.1158,5.3046,5.5598,5.6373,5.7113,0.0,0.0,0.0,0.0,0.0,0.0,0.0,0.0,0.0,0.0,0.0,6.2665,0.0,0.0,6.3605,6.3741,6.3896,6.4094,6.424,6.3666,6.2451,6.0158,5.9112,5.8626,5.8626,5.8626,5.8633,5.8705,5.9665,6.0647,6.1587,6.3396,6.499,6.624,6.6692,6.6755,6.6459,6.5945,6.527,6.4436,6.4284,6.4264,6.4264,6.4264,6.4264,6.4226,6.4383,6.4378,6.4301,6.5299,6.5919,6.6201,6.5493,6.3815,6.1813,6.1737,6.125,6.0649,6.1516,6.1722,6.1471,6.0553,6.0109,5.9775,5.8895,5.8472,5.8498,5.9343,5.8803,5.8119,5.8963,5.8371,5.7538,5.7538,5.7261,5.7025,5.7025,5.6294,5.5529,5.5154,5.5159,5.4871,5.3787,5.1646,4.9554,4.8091,4.7481,4.6203,4.3504,4.1638,3.9306,3.6157,3.2738,3.0508,2.9712,2.92,2.9622,3.1472,3.4715,3.756,3.9784,4.2227,4.3321,4.2893,4.4287,4.4964,4.4899,4.7462,5.0117,5.2762,5.2771,5.4222,0.0,0.0,0.0,0.0,0.0,0.0,0.0,0.0,0.0,0.0,0.0,0.0,0.0,0.0,0.0,6.1598,6.1777,6.2017,6.2648,6.1582,5.9927,5.7583,5.7553,5.7589,5.7333,5.7954,5.8201,5.767,5.9928,6.1408,6.1626,6.4817,6.6548,6.6349,6.6587,6.6377,6.5619,6.4284,6.3482,6.3141,6.2913,0.0,6.2818,6.2818,6.2818,6.2853,6.3026,6.3033,6.2891,6.3494,6.3729,6.3549,6.2929,6.1874,6.0898,6.1993,6.104,5.9408,6.0868,6.1539,6.1577,6.0581,6.104,6.1731,6.0351,5.9722,0.0,6.1153,6.0247,5.9172,6.0563,5.9747,5.8521,5.8186,5.7938,5.7748,5.7748,5.7002,5.6273,5.602,5.5393,5.4431,5.2897,4.9655,4.6879,4.5526,4.4825,4.353,4.1036,3.911,3.673,3.3715,2.9202,2.6408,2.6324,2.4059,2.3719,2.6274,2.856,3.1106,3.4002,3.5331,3.6084,3.6446,3.8161,3.9077,3.9074,4.2858,4.6411,4.9615,4.7787,4.9634,0.0,0.0,0.0,0.0,0.0,0.0,0.0,0.0,0.0,0.0,0.0,0.0,0.0,0.0,0.0,0.0,5.6241,5.6158,5.8177,5.7188,5.6202,5.5836,5.6966,5.7252,5.5937,5.8873,5.9667,5.6929,6.0145,6.2303,6.248,6.4173,0.0,0.0,0.0,6.4779,6.3176,6.179,6.0318,5.8835,5.878,5.88,5.88,5.88,5.88,5.88,5.8797,5.8797,5.8932,6.0954,6.1728,6.1395,5.8078,5.7123,5.7592,5.7081,5.8044,5.9714,6.0243,0.0,0.0,6.3278,6.2904,6.1787,6.16,6.1522,6.1534,6.1872,6.1738,6.1612,6.1801,6.1433,6.0623,5.9139,5.8347,5.7914,5.7914,5.7735,5.7224,5.6151,5.48,5.327,5.1487,4.9476,4.6262,4.089,4.0793,3.9911,3.5981,3.4857,3.3105,2.9647,2.7548,0.0,2.2033,1.8772,1.7813,2.015,1.9394,2.0242,2.3345,2.163,2.1703,2.4115,2.7481,3.0846,3.4217,3.6535,4.1419,4.8429,4.1773,4.2384,0.0,0.0,0.0,0.0,0.0,0.0,0.0,0.0,0.0,0.0,0.0,0.0,0.0,0.0,0.0,0.0,5.4345,5.4675,5.476,5.4809,5.5077,5.5951,5.7277,5.792,5.7347,5.8715,5.9086,5.7803,6.0334,6.1937,6.2021,6.3799,6.4602,6.4172,6.2923,6.1385,5.9528,5.8316,5.7367,5.6639,5.6639,5.6639,5.6639,5.6639,5.6639,5.6639,5.6639,5.6639,5.671,5.7645,5.8359,5.861,0.0,0.0,0.0,0.0,5.5873,5.6168,5.7185,5.8144,5.9207,6.0845,6.209,6.2948,6.2925,6.2474,6.215,6.316,6.2067,6.0778,6.1765,6.1085,6.0025,5.9379,5.9731,6.0211,6.0265,6.0009,5.9325,5.7855,5.5623,0.0,5.1705,4.9587,4.6749,4.2422,4.25,4.1577,3.7473,3.5711,3.3109,2.8496,2.4447,2.1135,1.8963,1.4422,0.0,0.0,0.0,0.9791,1.0204,0.8538,0.0,0.0,0.0,1.3734,1.7285,2.3897,0.0,0.0,3.6635,3.7384,0.0,0.0,0.0,0.0,0.0,0.0,0.0,0.0,0.0,0.0,0.0,0.0,0.0,0.0,0.0,0.0,0.0,5.2332,5.1255,5.2042,5.312,5.4218,5.5886,5.6986,5.6921,5.7858,5.8125,5.7316,5.9603,6.1045,6.0973,6.2498,6.2836,6.1776,5.981,5.8094,5.6692,5.5132,5.4374,5.4374,5.4374,5.4374,5.4374,5.4374,5.4374,5.4374,5.4374,5.4374,5.4423,5.4798,5.5342,5.5782,5.3974,5.3585,5.407,5.3881,5.3135,5.2423,5.3784,5.487,5.5987,5.8342,6.0963,6.3112,6.3112,6.2702,6.2386,6.3237,6.1705,6.012,6.1473,6.085,5.9806,5.954,6.0327,6.1259,6.1825,6.1284,6.0416,5.9515,5.7305,5.4628,5.1545,4.9575,4.7105,4.3142,4.2963,4.163,3.706,3.4821,3.1791,2.6897,2.1607,1.753,1.5463,0.9303,0.4953,0.3441,0.081,-0.2076,-0.5084,-0.5898,-0.8762,-1.4044,-0.8246,-0.1749,0.0,0.0,0.0,0.0,0.0,0.0,0.0,0.0,0.0,0.0,0.0,0.0,0.0,0.0,0.0,0.0,0.0,0.0,0.0,0.0,0.0,0.0,0.0,0.0,4.7197,4.8192,4.9036,4.9169,5.1496,5.3022,5.3017,5.6276,5.7123,5.4238,5.7579,5.9565,5.9202,5.9609,6.0341,6.136,5.7581,5.554,5.5438,5.2673,5.1255,5.1255,5.1255,5.1255,5.1255,5.1255,5.1255,5.1255,5.1255,5.1255,5.135,5.2744,5.3372,5.2977,4.8858,4.8515,5.025,4.9488,4.9154,4.9321,5.0475,5.1236,5.2473,5.7173,5.9995,6.1476,6.1499,6.2105,6.2471,6.1144,6.0698,6.0763,6.1279,6.1406,6.104,5.9772,5.9419,5.982,6.1478,6.0517,5.9676,6.0767,5.9965,5.704,5.0393,4.9084,4.6951,4.1035,3.9945,0.0,3.1709,2.9693,2.7418,2.3845,1.9679,1.5444,1.1069,0.294,-0.407,-0.8999,-1.157,-1.6041,-2.3035,-2.26,-2.5184,-3.1561,-2.4197,-1.2247,0.4146,0.0,0.0,0.0,0.0,0.0,0.0,0.0,0.0,0.0,0.0,0.0,0.0,0.0,0.0,0.0,0.0,0.0,0.0,0.0,0.0,0.0,0.0,0.0,0.0,0.0,4.6592,4.8776,4.9641,5.0882,5.2819,5.4242,5.4993,5.4793,5.6777,5.7931,5.7843,5.79,5.7283,5.5817,5.3704,5.1679,4.9767,4.8111,4.7228,4.7228,4.7228,4.7228,4.7228,4.7228,4.7228,4.7228,4.7228,4.7228,4.7304,4.7797,4.7028,4.5647,4.665,4.7439,4.8159,4.8783,4.8451,4.764,4.7043,4.7085,4.8149,5.2837,5.589,5.8122,6.0352,6.0705,6.0364,6.0364,5.9231,5.8108,5.8803,5.8604,5.8241,5.8398,5.9259,6.0342,6.1327,6.1837,6.1685,6.017,5.9559,5.7425,5.1598,5.0868,4.8805,4.231,4.2588,4.1006,3.4197,3.2466,2.9212,2.2371,1.7797,1.2592,0.6085,-0.2403,-0.9659,-1.5124,-1.9236,-2.4232,-3.0509,-3.3634,-3.8034,-4.4061,-4.0631,-3.3551,-2.2913,0.0,0.0,0.0,0.0,0.0,0.0,0.0,0.0,0.0,0.0,0.0,0.0,0.0,0.0,0.0,0.0,0.0,0.0,0.0,0.0,0.0,0.0,0.0,0.0,0.0,0.0,4.5233,4.6645,0.0,4.9147,5.0541,5.1542,5.1984,5.3191,5.4216,5.503,5.4366,5.3223,5.1686,4.9681,4.7747,4.5876,4.4722,4.3957,4.3439,4.3439,4.3121,4.2686,4.2686,4.2686,4.2686,4.2686,4.2686,4.2597,4.1087,4.0679,4.1046,4.2728,4.4494,4.6175,4.6541,4.5905,4.4701,4.4156,4.4055,4.4699,4.8008,5.2014,5.5764,5.6963,5.7052,5.643,5.4774,5.4113,5.4052,5.4654,5.5369,5.6125,5.6894,5.7905,5.9088,6.0296,6.0988,6.0954,5.9382,5.9674,5.8157,5.1787,5.1093,4.9132,4.2372,4.2941,4.1638,3.4814,3.2919,2.9002,2.1004,1.6297,1.0553,0.2245,-0.7382,-1.5416,-2.0787,-2.6063,-3.1682,-3.7906,-4.2343,-4.6681,-5.1039,-4.9492,-4.3748,0.0,0.0,0.0,0.0,0.0,0.0,0.0,0.0,0.0,0.0,0.0,0.0,0.0,0.0,0.0,0.0,0.0,0.0,0.0,0.0,0.0,0.0,0.0,0.0,0.0,0.0,0.0,3.9147,4.2152,0.0,0.0,0.0,0.0,4.6053,4.71,4.8699,5.0832,4.8907,4.8129,4.9013,4.5675,4.3973,4.3931,4.2605,4.126,3.9873,3.9777,3.9026,3.7675,3.7675,3.7675,3.7576,3.7576,3.7552,3.7229,3.3332,3.4635,3.8851,3.7361,3.971,4.3812,4.2688,4.1477,4.0525,4.1477,4.19,4.2216,4.3184,4.84,5.3814,5.1272,5.1237,0.0,0.0,4.6089,4.8937,4.9373,5.1926,5.4578,5.5197,5.5414,5.61,5.8355,5.8198,5.7757,5.8221,5.9959,5.8688,5.045,0.0,4.7527,4.1082,4.0915,3.9449,3.3634,3.1072,2.6886,1.9503,1.5036,0.8857,-0.044,-1.2104,-2.1042,-2.6183,-3.2213,-3.8612,-4.5225,-4.8674,-5.1169,-5.2716,-5.0841,0.0,0.0,0.0,0.0,0.0,0.0,0.0,0.0,0.0,0.0,0.0,0.0,0.0,0.0,0.0,0.0,0.0,0.0,0.0,0.0,0.0,0.0,0.0,0.0,0.0,0.0,3.7292,3.7464,3.7616,3.7667,3.829,0.0,0.0,0.0,0.0,0.0,0.0,4.5037,4.454,4.4246,4.4189,4.2479,4.1388,4.1231,3.9025,3.7612,3.7309,3.6263,3.5514,3.5201,3.5201,3.4503,3.344,3.344,3.2713,3.1537,3.0085,2.9802,3.0866,3.5327,3.6437,3.5956,3.8019,3.7989,3.6764,3.6397,3.8199,4.0624,4.0,4.2137,4.4892,4.4739,0.0,0.0,0.0,0.0,4.4716,4.7333,4.8179,4.9111,5.1675,5.2834,5.3821,5.5292,5.7252,5.7541,5.3674,5.3754,5.1745,4.322,4.2799,0.0,3.8898,3.9618,3.8739,3.3477,3.1072,2.6572,1.8287,1.2715,0.5033,-0.643,-1.4902,-2.2375,-2.9037,-3.6603,-4.3187,-4.8513,-5.0514,-5.1429,-5.1271,0.0,0.0,0.0,0.0,0.0,0.0,0.0,0.0,0.0,0.0,0.0,0.0,0.0,0.0,0.0,0.0,0.0,0.0,0.0,0.0,0.0,0.0,0.0,0.0,0.0,0.0,0.0,3.4523,3.3423,3.3436,3.3579,3.4068,0.0,0.0,0.0,0.0,0.0,0.0,0.0,0.0,0.0,3.928,3.814,3.7728,3.7996,3.6565,3.5632,3.5418,3.4595,3.3524,3.2327,3.1627,3.0811,2.9951,2.8124,2.6973,2.5936,2.4995,2.7312,3.154,0.0,0.0,0.0,0.0,3.6567,3.5141,3.4628,3.6721,3.9372,3.6424,0.0,0.0,0.0,0.0,0.0,0.0,0.0,4.1893,4.364,4.6076,4.8486,4.9901,5.1195,5.2534,5.3792,5.2157,4.9697,4.7143,4.7437,4.5969,3.9291,3.9,0.0,0.0,0.0,3.5814,3.1762,2.9455,2.5266,1.7668,1.0859,0.2173,-0.9217,-1.7109,-2.4439,-3.1306,-3.9124,-4.5421,-4.9821,-5.0417,-4.9894,0.0,0.0,0.0,0.0,0.0,0.0,0.0,0.0,0.0,0.0,0.0,0.0,0.0,0.0,0.0,0.0,0.0,0.0,0.0,0.0,0.0,0.0,0.0,0.0,0.0,0.0,0.0,0.0,0.0,2.9233,2.8952,0.0,0.0,0.0,0.0,0.0,0.0,0.0,0.0,0.0,0.0,0.0,0.0,0.0,3.3726,3.4691,3.4356,3.3831,3.3304,3.2757,3.1374,2.8977,2.7579,2.6657,2.61,2.3063,0.0,2.1559,2.0082,0.0,0.0,0.0,0.0,0.0,0.0,0.0,0.0,0.0,0.0,0.0,0.0,0.0,0.0,0.0,0.0,0.0,0.0,0.0,0.0,0.0,0.0,4.8812,4.8143,4.9141,5.0387,5.1385,4.5189,3.9719,4.0344,4.1477,4.0923,0.0,0.0,0.0,0.0,0.0,0.0,2.9317,2.7181,2.3625,1.7594,0.9263,-0.0223,-1.1102,-1.9219,-2.6448,-3.2919,-3.9933,-4.5468,-4.9085,-4.7124,0.0,0.0,0.0,0.0,0.0,0.0,0.0,0.0,0.0,0.0,0.0,0.0,0.0,0.0,0.0,0.0,0.0,0.0,0.0,0.0,0.0,0.0,0.0,0.0,0.0,0.0,0.0,0.0,0.0,0.0,0.0,0.0,0.0,0.0,0.0,0.0,0.0,0.0,0.0,0.0,0.0,0.0,0.0,0.0,0.0,0.0,0.0,0.0,0.0,0.0,2.5411,2.4169,2.4439,2.3289,2.1623,1.9628,2.126,2.1885,2.1617,2.0441,0.0,0.0,0.0,0.0,0.0,0.0,0.0,0.0,0.0,0.0,0.0,0.0,0.0,0.0,0.0,0.0,0.0,0.0,0.0,0.0,0.0,0.0,4.0988,4.2609,4.298,4.255,4.0861,0.0,0.0,0.0,0.0,0.0,0.0,0.0,0.0,0.0,0.0,0.0,2.7955,2.5755,2.2617,1.7554,0.8182,-0.3477,-1.7707,-2.2067,-2.683,-3.3286,-3.8549,-4.2238,0.0,0.0,0.0,0.0,0.0,0.0,0.0,0.0,0.0,0.0,0.0,0.0,0.0,0.0,0.0,0.0,0.0,0.0,0.0,0.0,0.0,0.0,0.0,0.0,0.0,0.0,0.0,0.0,0.0,0.0,0.0,0.0,0.0,0.0,0.0,0.0,0.0,0.0,0.0,0.0,0.0,0.0,0.0,0.0,0.0,0.0,0.0,0.0,0.0,0.0,0.0,0.0,0.0,0.0,0.0,0.0,0.0,0.0,2.2301,2.1228,0.0,0.0,0.0,0.0,0.0,0.0,0.0,0.0,0.0,0.0,0.0,0.0,0.0,0.0,0.0,0.0,0.0,0.0,0.0,0.0,0.0,0.0,0.0,0.0,0.0,0.0,0.0,0.0,0.0,0.0,0.0,0.0,0.0,0.0,0.0,0.0,0.0,0.0,0.0,0.0,2.6274,2.3885,2.028,1.4544,0.4931,-0.5445,-1.5895,-2.2338,-2.7692,-3.217,-3.6974,0.0,0.0,0.0,0.0,0.0,0.0,0.0,0.0,0.0,0.0,0.0,0.0,0.0,0.0,0.0,0.0,0.0,0.0,0.0,0.0,0.0,0.0,0.0,0.0,0.0,0.0,0.0,0.0,0.0,0.0,0.0,0.0,0.0,0.0,0.0,0.0,0.0,0.0,0.0,0.0,0.0,0.0,0.0,0.0,0.0,0.0,0.0,0.0,0.0,0.0,0.0,0.0,0.0,0.0,0.0,0.0,0.0,0.0,0.0,2.5511,2.2306,0.0,0.0,0.0,0.0,0.0,0.0,0.0,0.0,0.0,0.0,0.0,0.0,0.0,0.0,0.0,0.0,0.0,0.0,0.0,0.0,0.0,0.0,0.0,0.0,0.0,0.0,0.0,0.0,0.0,0.0,0.0,0.0,0.0,0.0,0.0,0.0,0.0,0.0,0.0,0.0,2.4633,2.1842,1.769,1.1215,0.1435,-0.7355,-1.409,-2.2108,-2.8102,-3.1151,-3.5007,0.0,0.0,0.0,0.0,0.0,0.0,0.0,0.0,0.0,0.0,0.0,0.0,0.0,0.0,0.0,0.0,0.0,0.0,0.0,0.0,0.0,0.0,0.0,0.0,0.0,0.0,0.0,0.0,0.0,0.0,0.0,0.0,0.0,0.0,0.0,0.0,0.0,0.0,0.0,0.0,0.0,0.0,0.0,0.0,0.0,0.0,0.0,0.0,0.0,0.0,0.0,0.0,0.0,0.0,0.0,0.0,0.0,0.0,0.0,0.0,0.0,0.0,0.0,0.0,0.0,0.0,0.0,0.0,0.0,0.0,0.0,0.0,0.0,0.0,0.0,0.0,0.0,0.0,0.0,0.0,0.0,0.0,0.0,0.0,0.0,0.0,0.0,0.0,0.0,0.0,0.0,0.0,0.0,0.0,0.0,0.0,0.0,0.0,0.0,0.0,0.0,2.3391,1.9728,1.5196,0.9377,-0.0672,-1.038,-1.8556,-2.2868,-2.706,-3.1715,0.0,0.0,0.0,0.0,0.0,0.0,0.0,0.0,0.0,0.0,0.0,0.0,0.0,0.0,0.0,0.0,0.0,0.0,0.0,0.0,0.0,0.0,0.0,0.0,0.0,0.0,0.0,0.0,0.0,0.0,0.0,0.0,0.0,0.0,0.0,0.0,0.0,0.0,0.0,0.0,0.0,0.0,0.0,0.0,0.0,0.0,0.0,0.0,0.0,0.0,0.0,0.0,0.0,0.0,0.0,0.0,0.0,0.0,0.0,0.0,0.0,0.0,0.0,0.0,0.0,0.0,0.0,0.0,0.0,0.0,0.0,0.0,0.0,0.0,0.0,0.0,0.0,0.0,0.0,0.0,0.0,0.0,0.0,0.0,0.0,0.0,0.0,0.0,0.0,0.0,0.0,0.0,0.0,0.0,0.0,0.0,0.0,0.0,0.0,0.0,0.0,0.0,2.2651,1.9189,1.4063,0.6196,-0.343,-1.1701,-1.7588,-2.243,-2.6144,-2.8611,0.0,0.0,0.0,0.0,0.0,0.0,0.0,0.0,0.0,0.0,0.0,0.0,0.0,0.0,0.0,0.0,0.0,0.0,0.0,0.0,0.0,0.0,0.0,0.0,0.0,0.0,0.0,0.0,0.0,0.0,0.0,0.0,0.0,0.0,0.0,0.0,0.0,0.0,0.0,0.0,0.0,0.0,0.0,0.0,0.0,0.0,0.0,0.0,0.0,0.0,0.0,0.0,0.0,0.0,0.0,0.0,0.0,0.0,0.0,0.0,0.0,0.0,0.0,0.0,0.0,0.0,0.0,0.0,0.0,0.0,0.0,0.0,0.0,0.0,0.0,0.0,0.0,0.0,0.0,0.0,0.0,0.0,0.0,0.0,0.0,0.0,0.0,0.0,0.0,0.0,0.0,0.0,0.0,0.0,0.0,0.0,0.0,0.0,0.0,0.0,0.0,0.0,2.2512,1.9593,1.4168,0.4629,-0.5699,-1.3366,-1.7327,-2.2087,-2.5617,-2.7305,0.0,0.0,0.0,0.0,0.0,0.0,0.0,0.0,0.0,0.0,0.0,0.0,0.0,0.0,0.0,0.0,0.0,0.0,0.0,0.0,0.0,0.0,0.0,0.0,0.0,0.0,0.0,0.0,0.0,0.0,0.0,0.0,0.0,0.0,0.0,0.0,0.0,0.0,0.0,0.0,0.0,0.0,0.0,0.0,0.0,0.0,0.0,0.0,0.0,0.0,0.0,0.0,0.0,0.0,0.0,0.0,0.0,0.0,0.0,0.0,0.0,0.0,0.0,0.0,0.0,0.0,0.0,0.0,0.0,0.0,0.0,0.0,0.0,0.0,0.0,0.0,0.0,0.0,0.0,0.0,0.0,0.0,0.0,0.0,0.0,0.0,0.0,0.0,0.0,0.0,0.0,0.0,0.0,0.0,0.0,0.0,0.0,0.0,0.0,0.0,0.0,0.0,2.3075,2.0868,1.5703,0.532,-0.7006,-1.5906,-1.9154,-2.2199,-2.5439,0.0,0.0,0.0,0.0,0.0,0.0,0.0,0.0,0.0,0.0,0.0,0.0,0.0,0.0,0.0,0.0,0.0,0.0,0.0,0.0,0.0,0.0,0.0,0.0,0.0,0.0,0.0,0.0,0.0,0.0,0.0,0.0,0.0,0.0,0.0,0.0,0.0,0.0,0.0,0.0,0.0,0.0,0.0,0.0,0.0,0.0,0.0,0.0,0.0,0.0,0.0,0.0,0.0,0.0,0.0,0.0,0.0,0.0,0.0,0.0,0.0,0.0,0.0,0.0,0.0,0.0,0.0,0.0,0.0,0.0,0.0,0.0,0.0,0.0,0.0,0.0,0.0,0.0,0.0,0.0,0.0,0.0,0.0,0.0,0.0,0.0,0.0,0.0,0.0,0.0,0.0,0.0,0.0,0.0,0.0,0.0,0.0,0.0,0.0,0.0,0.0,0.0,0.0,2.3278,2.141,1.6223,0.5299,-0.3903,-1.1319,-1.6467,-2.0907,-2.4336,-2.6542,0.0,0.0,0.0,0.0,0.0,0.0,0.0,0.0,0.0,0.0,0.0,0.0,0.0,0.0,0.0,0.0,0.0,0.0,0.0,0.0,0.0,0.0,0.0,0.0,0.0,0.0,0.0,0.0,0.0,0.0,0.0,0.0,0.0,0.0,0.0,0.0,0.0,0.0,0.0,0.0,0.0,0.0,0.0,0.0,0.0,0.0,0.0,0.0,0.0,0.0,0.0,0.0,0.0,0.0,0.0,0.0,0.0,0.0,0.0,0.0,0.0,0.0,0.0,0.0,0.0,0.0,0.0,0.0,0.0,0.0,0.0,0.0,0.0,0.0,0.0,0.0,0.0,0.0,0.0,0.0,0.0,0.0,0.0,0.0,0.0,0.0,0.0,0.0,0.0,0.0,0.0,0.0,0.0,0.0,0.0,0.0,0.0,0.0,0.0,0.0,0.0,0.0,0.0,2.2003,1.7048,0.0,-0.1757,-0.9425,-1.7186,-2.1182,-2.4217,-2.6236,0.0,0.0,0.0,0.0,0.0,0.0,0.0,0.0,0.0,0.0,0.0,0.0,0.0,0.0,0.0,0.0,0.0,0.0,0.0,0.0,0.0,0.0,0.0,0.0,0.0,0.0,0.0,0.0,0.0,0.0,0.0,0.0,0.0,0.0,0.0,0.0,0.0,0.0,0.0,0.0,0.0,0.0,0.0,0.0,0.0,0.0,0.0,0.0,0.0,0.0,0.0,0.0,0.0,0.0,0.0,0.0,0.0,0.0,0.0,0.0,0.0,0.0,0.0,0.0,0.0,0.0,0.0,0.0,0.0,0.0,0.0,0.0,0.0,0.0,0.0,0.0,0.0,0.0,0.0,0.0,0.0,0.0,0.0,0.0,0.0,0.0,0.0,0.0,0.0,0.0,0.0,0.0,0.0,0.0,0.0,0.0,0.0,0.0,0.0,0.0,0.0,0.0,0.0,2.2577,1.7851,0.7852,-0.0614,-0.9817,-2.0396,-2.2747,-2.4845,-2.7623,-2.7569,0.0,0.0,0.0,0.0,0.0,0.0,0.0,0.0,0.0,0.0,0.0,0.0,0.0,0.0,0.0,0.0,0.0,0.0,0.0,0.0,0.0,0.0,0.0,0.0,0.0,0.0,0.0,0.0,0.0,0.0,0.0,0.0,0.0,0.0,0.0,0.0,0.0,0.0,0.0,0.0,0.0,0.0,0.0,0.0,0.0,0.0,0.0,0.0,0.0,0.0,0.0,0.0,0.0,0.0,0.0,0.0,0.0,0.0,0.0,0.0,0.0,0.0,0.0,0.0,0.0,0.0,0.0,0.0,0.0,0.0,0.0,0.0,0.0,0.0,0.0,0.0,0.0,0.0,0.0,0.0,0.0,0.0,0.0,0.0,0.0,0.0,0.0,0.0,0.0,0.0,0.0,0.0,0.0,0.0,0.0,0.0,0.0,0.0,0.0,0.0,0.0,0.0,2.2591,1.7257,0.8931,0.0499,-0.9258,-2.0801,-2.2537,-2.4379,-2.7584,-2.7471,0.0,0.0,0.0,0.0,0.0,0.0,0.0,0.0,0.0,0.0,0.0,0.0,0.0,0.0,0.0,0.0,0.0,0.0,0.0,0.0,0.0,0.0,0.0,0.0,0.0,0.0,0.0,0.0,0.0,0.0,0.0,0.0,0.0,0.0,0.0,0.0,0.0,0.0,0.0,0.0,0.0,0.0,0.0,0.0,0.0,0.0,0.0,0.0,0.0,0.0,0.0,0.0,0.0,0.0,0.0,0.0,0.0,0.0,0.0,0.0,0.0,0.0,0.0,0.0,0.0,0.0,0.0,0.0,0.0,0.0,0.0,0.0,0.0,0.0,0.0,0.0,0.0,0.0,0.0,0.0,0.0,0.0,0.0,0.0,0.0,0.0,0.0,0.0,0.0,0.0,0.0,0.0,0.0,0.0,0.0,0.0,0.0,0.0,0.0,0.0,0.0,0.0,2.5316,2.0295,1.1969,0.1952,-0.8376,-1.88,-2.2599,-2.5544,-2.8092,-2.5963,0.0,0.0,0.0,0.0,0.0,0.0,0.0,0.0,0.0,0.0,0.0,0.0,0.0,0.0,0.0,0.0,0.0,0.0,0.0,0.0,0.0,0.0,0.0,0.0,0.0,0.0,0.0,0.0,0.0,0.0,0.0,0.0,0.0,0.0,0.0,0.0,0.0,0.0,0.0,0.0,0.0,0.0,0.0,0.0,0.0,0.0,0.0,0.0,0.0,0.0,0.0,0.0,0.0,0.0,0.0,0.0,0.0,0.0,0.0,0.0,0.0,0.0,0.0,0.0,0.0,0.0,0.0,0.0,0.0,0.0,0.0,0.0,0.0,0.0,0.0,0.0,0.0,0.0,0.0,0.0,0.0,0.0,0.0,0.0,0.0,0.0,0.0,0.0,0.0,0.0,0.0,0.0,0.0,0.0,0.0,0.0,0.0,0.0,0.0,0.0,0.0,0.0,0.0,2.4597,1.6227,0.3691,-0.7745,-1.6853,-2.2597,-2.662,-2.8577,0.0,0.0,0.0,0.0,0.0,0.0,0.0,0.0,0.0,0.0,0.0,0.0,0.0,0.0,0.0,0.0,0.0,0.0,0.0,0.0,0.0,0.0,0.0,0.0,0.0,0.0,0.0,0.0,0.0,0.0,0.0,0.0,0.0,0.0,0.0,0.0,0.0,0.0,0.0,0.0,0.0,0.0,0.0,0.0,0.0,0.0,0.0,0.0,0.0,0.0,0.0,0.0,0.0,0.0,0.0,0.0,0.0,0.0,0.0,0.0,0.0,0.0,0.0,0.0,0.0,0.0,0.0,0.0,0.0,0.0,0.0,0.0,0.0,0.0,0.0,0.0,0.0,0.0,0.0,0.0,0.0,0.0,0.0,0.0,0.0,0.0,0.0,0.0,0.0,0.0,0.0,0.0,0.0,0.0,0.0,0.0,0.0,0.0,0.0,0.0,0.0,0.0,0.0,0.0,2.694,2.1801,0.6016,-0.8687,-2.0198,-2.1492,-2.3551,-2.7976,0.0,0.0,0.0,0.0,0.0,0.0,0.0,0.0,0.0,0.0,0.0,0.0,0.0,0.0]}]]]